[[{"header":{"parameterUnit":"m.s-1","parameterCategory":1,"la1":31.0,"la2":29.5877,"lo1":-88.7671,"lo2":-86.6584,"dy":0.0162,"dx":0.0185,"nx":115,"ny":88,"refTime":"2024-03-17T00:00:00:Z","depth":0,"parameterNumber":2,"parameterNumberName":"U-component_of_WINDS"},"data":[0.0,0.0,0.0,0.0,0.0,0.0,0.0,0.0,0.0,0.0,0.0,0.0,0.0,0.0,0.0,0.0,0.0,0.0,0.0,0.0,0.0,0.0,0.0,0.0,0.0,0.0,0.0,0.0,0.0,0.0,0.0,0.0,0.0,0.0,0.0,0.0,0.0,0.0,0.0,0.0,0.0,0.0,0.0,0.0,0.0,0.0,0.0,0.0,0.0,0.0,0.0,0.0,0.0,0.0,0.0,0.0,0.0,0.0,0.0,0.0,0.0,0.0,0.0,0.0,0.0,0.0,0.0,0.0,0.0,0.0,0.0,0.0,0.0,0.0,0.0,0.0,0.0,0.0,0.0,0.0,0.0,0.0,0.0,0.0,0.0,0.0,0.0,0.0,0.0,0.0,0.0,0.0,0.0,0.0,0.0,0.0,0.0,0.0,0.0,0.0,0.0,0.0,0.0,0.0,0.0,0.0,0.0,0.0,0.0,0.0,0.0,0.0,0.0,0.0,0.0,0.0,0.0,0.0,0.0,0.0,0.0,0.0,0.0,0.0,0.0,0.0,0.0,0.0,0.0,0.0,0.0,0.0,0.0,0.0,0.0,0.0,0.0,0.0,0.0,0.0,0.0,0.0,0.0,0.0,0.0,0.0,0.0,0.0,0.0,0.0,0.0,0.0,0.0,0.0,0.0,0.0,0.0,0.0,0.0,0.0,0.0,0.0,0.0,0.0,0.0,0.0,0.0,0.0,0.0,0.0,0.0,0.0,0.0,0.0,0.0,0.0,0.0,0.0,0.0,0.0,0.0,0.0,0.0,0.0,0.0,0.0,0.0,0.0,0.0,0.0,0.0,0.0,0.0,0.0,0.0,0.0,0.0,0.0,0.0,0.0,0.0,0.0,0.0,0.0,0.0,0.0,0.0,0.0,0.0,0.0,0.0,0.0,0.0,0.0,0.0,0.0,0.0,0.0,0.0,0.0,0.0,0.0,0.0,0.0,0.0,0.0,0.0,0.0,0.0,0.0,0.0,0.0,0.0,0.0,0.0,0.0,0.0,0.0,0.0,0.0,0.0,0.0,0.0,0.0,0.0,0.0,0.0,0.0,0.0,0.0,0.0,0.0,0.0,0.0,0.0,0.0,0.0,0.0,0.0,0.0,0.0,0.0,0.0,0.0,0.0,0.0,0.0,0.0,0.0,0.0,0.0,0.0,0.0,0.0,0.0,0.0,0.0,0.0,0.0,0.0,0.0,0.0,0.0,0.0,0.0,0.0,0.0,0.0,0.0,0.0,0.0,0.0,0.0,0.0,0.0,0.0,0.0,0.0,0.0,0.0,0.0,0.0,0.0,0.0,0.0,0.0,0.0,0.0,0.0,0.0,0.0,0.0,0.0,0.0,0.0,0.0,0.0,0.0,0.0,0.0,0.0,0.0,0.0,0.0,0.0,0.0,0.0,0.0,0.0,0.0,0.0,0.0,0.0,0.0,0.0,0.0,0.0,0.0,0.0,0.0,0.0,0.0,0.0,0.0,0.0,0.0,0.0,0.0,0.0,0.0,0.0,0.0,0.0,0.0,0.0,0.0,0.0,0.0,0.0,0.0,0.0,0.0,0.0,0.0,0.0,0.0,0.0,0.0,0.0,0.0,0.0,0.0,0.0,0.0,0.0,0.0,0.0,0.0,0.0,0.0,0.0,0.0,0.0,0.0,0.0,0.0,0.0,0.0,0.0,0.0,0.0,0.0,0.0,0.0,0.0,0.0,0.0,0.0,0.0,0.0,0.0,0.0,0.0,0.0,0.0,0.0,0.0,0.0,0.0,0.0,0.0,0.0,0.0,0.0,0.0,0.0,0.0,0.0,0.0,0.0,0.0,0.0,0.0,0.0,0.0,0.0,0.0,0.0,0.0,0.0,0.0,0.0,0.0,0.0,0.0,0.0,0.0,0.0,0.0,0.0,0.0,0.0,0.0,0.0,0.0,0.0,0.0,0.0,0.0,0.0,0.0,0.0,0.0,0.0,0.0,0.0,0.0,0.0,0.0,0.0,0.0,0.0,0.0,0.0,0.0,0.0,0.0,0.0,0.0,0.0,0.0,0.0,0.0,0.0,0.0,0.0,0.0,0.0,0.0,0.0,0.0,0.0,0.0,0.0,0.0,0.0,0.0,0.0,0.0,0.0,0.0,0.0,0.0,0.0,0.0,0.0,0.0,0.0,0.0,0.0,0.0,0.0,0.0,0.0,0.0,0.0,0.0,0.0,0.0,0.0,0.0,0.0,0.0,0.0,0.0,0.0,0.0,0.0,0.0,0.0,0.0,0.0,0.0,0.0,0.0,0.0,0.0,0.0,0.0,0.0,0.0,0.0,0.0,0.0,0.0,0.0,0.0,0.0,0.0,0.0,0.0,0.0,0.0,0.0,0.0,0.0,0.0,0.0,0.0,0.0,0.0,0.0,0.0,0.0,0.0,0.0,0.0,0.0,0.0,0.0,0.0,0.0,0.0,0.0,0.0,0.0,0.0,0.0,0.0,0.0,0.0,0.0,0.0,0.0,0.0,0.0,0.0,0.0,0.0,0.0,0.0,0.0,0.0,0.0,0.0,0.0,0.0,0.0,0.0,0.0,0.0,0.0,0.0,0.0,0.0,0.0,0.0,0.0,0.0,0.0,0.0,0.0,0.0,0.0,0.0,0.0,0.0,0.0,0.0,0.0,0.0,0.0,0.0,0.0,0.0,0.0,0.0,0.0,0.0,0.0,0.0,0.0,0.0,0.0,0.0,0.0,0.0,0.0,0.0,0.0,0.0,0.0,0.0,0.0,0.0,0.0,0.0,0.0,0.0,0.0,0.0,0.0,0.0,0.0,0.0,0.0,0.0,0.0,0.0,0.0,0.0,0.0,0.0,0.0,0.0,0.0,0.0,0.0,0.0,0.0,0.0,0.0,0.0,0.0,0.0,0.0,0.0,0.0,0.0,0.0,0.0,0.0,0.0,0.0,0.0,0.0,0.0,0.0,0.0,0.0,0.0,0.0,0.0,0.0,0.0,0.0,0.0,0.0,0.0,0.0,0.0,0.0,0.0,0.0,0.0,0.0,0.0,0.0,0.0,0.0,0.0,0.0,0.0,0.0,0.0,0.0,0.0,0.0,0.0,0.0,0.0,0.0,0.0,0.0,0.0,0.0,0.0,0.0,0.0,0.0,0.0,0.0,0.0,0.0,0.0,0.0,0.0,0.0,0.0,0.0,0.0,0.0,0.0,0.0,0.0,0.0,0.0,0.0,0.0,0.0,0.0,0.0,0.0,0.0,0.0,0.0,0.0,0.0,0.0,0.0,0.0,0.0,0.0,0.0,0.0,0.0,0.0,0.0,0.0,0.0,0.0,0.0,0.0,0.0,0.0,0.0,0.0,0.0,0.0,0.0,0.0,0.0,0.0,0.0,0.0,0.0,0.0,0.0,0.0,0.0,0.0,0.0,0.0,0.0,0.0,0.0,0.0,0.0,0.0,0.0,0.0,0.0,0.0,0.0,0.0,0.0,0.0,0.0,0.0,0.0,0.0,0.0,0.0,0.0,0.0,0.0,0.0,0.0,0.0,0.0,0.0,0.0,0.0,0.0,0.0,0.0,0.0,0.0,0.0,0.0,0.0,0.0,0.0,0.0,0.0,0.0,0.0,0.0,0.0,0.0,0.0,0.0,0.0,0.0,0.0,0.0,0.0,0.0,0.0,0.0,0.0,0.0,0.0,0.0,0.0,0.0,0.0,0.0,0.0,0.0,0.0,0.0,0.0,0.0,0.0,0.0,0.0,0.0,0.0,0.0,0.0,0.0,0.0,0.0,0.0,0.0,0.0,0.0,0.0,0.0,0.0,0.0,0.0,0.0,0.0,0.0,0.0,0.0,0.0,0.0,0.0,0.0,0.0,0.0,0.0,0.0,0.0,0.0,0.0,0.0,0.0,0.0,0.0,0.0,0.0,0.0,0.0,0.0,0.0,0.0,0.0,0.0,0.0,0.0,0.0,0.0,0.0,0.0,0.0,0.0,0.0,0.0,0.0,0.0,0.0,0.0,0.0,0.0,0.0,0.0,0.0,0.0,0.0,0.0,0.0,0.0,0.0,0.0,0.0,0.0,0.0,0.0,0.0,0.0,0.0,0.0,0.0,0.0,0.0,0.0,0.0,0.0,0.0,0.0,0.0,0.0,0.0,0.0,0.0,0.0,0.0,0.0,0.0,0.0,0.0,0.0,0.0,0.0,0.0,0.0,0.0,0.0,0.0,0.0,0.0,0.0,3.1758,0.0,0.0,0.0,0.0,0.0,0.0,0.0,0.0,0.0,0.0,0.0,0.0,0.0,0.0,0.0,0.0,0.0,0.0,0.0,0.0,0.0,0.0,0.0,0.0,0.0,0.0,0.0,0.0,0.0,0.0,0.0,0.0,0.0,0.0,0.0,0.0,0.0,0.0,0.0,0.0,0.0,0.0,0.0,0.0,0.0,0.0,0.0,0.0,0.0,0.0,0.0,0.0,0.0,0.0,0.0,0.0,0.0,0.0,0.0,0.0,0.0,0.0,0.0,0.0,0.0,0.0,0.0,0.0,0.0,0.0,0.0,0.0,0.0,0.0,0.0,0.0,0.0,0.0,0.0,0.0,0.0,0.0,0.0,0.0,0.0,0.0,0.0,0.0,0.0,0.0,0.0,0.0,0.0,0.0,0.0,0.0,0.0,0.0,0.0,0.0,0.0,0.0,0.0,0.0,0.0,0.0,0.0,0.0,0.0,0.0,3.0039,3.082,2.9609,2.9726,3.1406,0.0,0.0,0.0,0.0,0.0,0.0,0.0,0.0,0.0,0.0,0.0,0.0,0.0,0.0,0.0,0.0,0.0,0.0,0.0,0.0,0.0,0.0,0.0,0.0,0.0,0.0,0.0,0.0,0.0,0.0,0.0,0.0,0.0,0.0,0.0,0.0,0.0,0.0,0.0,0.0,0.0,0.0,0.0,0.0,0.0,0.0,0.0,0.0,0.0,0.0,0.0,0.0,0.0,0.0,0.0,0.0,0.0,0.0,0.0,0.0,0.0,0.0,0.0,0.0,0.0,0.0,0.0,0.0,0.0,0.0,0.0,0.0,0.0,0.0,0.0,0.0,0.0,0.0,0.0,0.0,0.0,0.0,0.0,0.0,0.0,0.0,0.0,0.0,0.0,0.0,0.0,0.0,0.0,0.0,0.0,0.0,0.0,0.0,0.0,0.0,0.0,0.0,0.0,0.0,0.0,0.0,0.0,0.0,0.0,0.0,0.0,0.0,3.0547,3.0469,3.1992,0.0,0.0,0.0,0.0,0.0,0.0,0.0,0.0,0.0,0.0,0.0,0.0,0.0,0.0,0.0,0.0,0.0,0.0,0.0,0.0,0.0,0.0,0.0,0.0,0.0,0.0,0.0,0.0,0.0,0.0,0.0,0.0,0.0,0.0,0.0,0.0,0.0,0.0,0.0,0.0,0.0,0.0,0.0,0.0,0.0,0.0,0.0,0.0,0.0,0.0,0.0,0.0,0.0,0.0,0.0,0.0,0.0,0.0,0.0,0.0,0.0,0.0,0.0,0.0,0.0,0.0,0.0,0.0,0.0,0.0,0.0,0.0,0.0,0.0,0.0,0.0,0.0,0.0,0.0,0.0,0.0,0.0,0.0,0.0,0.0,0.0,0.0,0.0,0.0,0.0,0.0,0.0,0.0,0.0,0.0,0.0,0.0,0.0,0.0,0.0,0.0,0.0,0.0,0.0,0.0,0.0,0.0,0.0,0.0,0.0,3.2187,3.5391,3.457,0.0,3.543,0.0,0.0,0.0,0.0,0.0,0.0,0.0,0.0,0.0,0.0,0.0,0.0,0.0,0.0,0.0,0.0,0.0,0.0,0.0,0.0,0.0,0.0,0.0,0.0,0.0,0.0,0.0,0.0,0.0,0.0,0.0,0.0,0.0,0.0,0.0,0.0,0.0,0.0,0.0,0.0,0.0,0.0,0.0,0.0,0.0,0.0,0.0,0.0,0.0,0.0,0.0,0.0,0.0,0.0,0.0,0.0,0.0,0.0,0.0,0.0,0.0,0.0,0.0,0.0,0.0,0.0,0.0,0.0,0.0,0.0,0.0,0.0,0.0,0.0,0.0,0.0,0.0,0.0,0.0,0.0,0.0,0.0,0.0,0.0,0.0,0.0,0.0,0.0,0.0,0.0,0.0,0.0,0.0,0.0,0.0,0.0,0.0,0.0,0.0,0.0,0.0,0.0,0.0,0.0,0.0,0.0,0.0,0.0,0.0,0.0,3.3203,3.5195,3.4883,3.4609,0.0,0.0,0.0,0.0,0.0,0.0,0.0,0.0,0.0,0.0,0.0,0.0,0.0,0.0,0.0,0.0,0.0,0.0,0.0,0.0,0.0,0.0,0.0,0.0,0.0,0.0,0.0,0.0,0.0,0.0,0.0,0.0,0.0,0.0,0.0,0.0,0.0,0.0,0.0,0.0,0.0,0.0,0.0,0.0,0.0,0.0,0.0,0.0,0.0,0.0,0.0,0.0,0.0,0.0,0.0,0.0,0.0,0.0,0.0,0.0,0.0,0.0,0.0,0.0,0.0,0.0,0.0,0.0,0.0,0.0,0.0,0.0,0.0,0.0,0.0,0.0,0.0,0.0,0.0,0.0,0.0,0.0,0.0,0.0,0.0,0.0,0.0,0.0,0.0,0.0,0.0,0.0,0.0,0.0,0.0,0.0,0.0,0.0,0.0,0.0,0.0,0.0,0.0,0.0,0.0,0.0,0.0,0.0,0.0,0.0,3.3434,3.4332,3.5625,3.4844,3.418,3.375,0.0,0.0,0.0,0.0,0.0,0.0,0.0,0.0,0.0,0.0,0.0,0.0,0.0,0.0,0.0,0.0,0.0,0.0,0.0,0.0,0.0,0.0,0.0,0.0,0.0,0.0,0.0,0.0,0.0,0.0,0.0,0.0,0.0,0.0,0.0,0.0,0.0,0.0,0.0,0.0,0.0,0.0,0.0,0.0,0.0,0.0,0.0,0.0,0.0,0.0,0.0,0.0,0.0,0.0,0.0,0.0,0.0,0.0,0.0,0.0,0.0,0.0,0.0,0.0,0.0,0.0,0.0,0.0,0.0,0.0,0.0,0.0,0.0,0.0,0.0,0.0,0.0,0.0,0.0,0.0,0.0,0.0,0.0,0.0,0.0,0.0,0.0,0.0,0.0,0.0,0.0,0.0,0.0,0.0,0.0,0.0,0.0,0.0,0.0,0.0,0.0,0.0,0.0,0.0,0.0,0.0,0.0,0.0,3.8655,3.5998,3.5701,3.8203,3.5234,3.3828,0.0,0.0,0.0,0.0,0.0,0.0,0.0,0.0,0.0,0.0,0.0,0.0,0.0,0.0,0.0,0.0,0.0,0.0,0.0,0.0,0.0,0.0,0.0,0.0,0.0,0.0,0.0,0.0,0.0,0.0,0.0,0.0,0.0,0.0,0.0,0.0,0.0,0.0,0.0,0.0,0.0,0.0,0.0,0.0,0.0,0.0,0.0,0.0,0.0,0.0,0.0,0.0,0.0,0.0,0.0,0.0,0.0,0.0,0.0,0.0,0.0,0.0,0.0,0.0,0.0,0.0,0.0,0.0,0.0,0.0,0.0,0.0,0.0,0.0,0.0,0.0,0.0,0.0,0.0,0.0,0.0,0.0,0.0,0.0,0.0,0.0,0.0,0.0,0.0,0.0,0.0,0.0,0.0,0.0,0.0,0.0,0.0,0.0,0.0,0.0,0.0,0.0,0.0,0.0,0.0,0.0,0.0,0.0,0.0,3.3732,3.4364,3.5619,3.7578,3.5469,3.4101,0.0,0.0,0.0,0.0,0.0,0.0,0.0,0.0,0.0,0.0,0.0,0.0,0.0,0.0,0.0,0.0,0.0,0.0,0.0,0.0,0.0,0.0,0.0,0.0,0.0,0.0,0.0,0.0,0.0,0.0,0.0,0.0,0.0,0.0,0.0,0.0,0.0,0.0,0.0,0.0,0.0,0.0,0.0,0.0,0.0,0.0,0.0,0.0,0.0,0.0,0.0,0.0,0.0,0.0,0.0,0.0,0.0,0.0,0.0,0.0,0.0,0.0,0.0,0.0,0.0,0.0,0.0,0.0,0.0,0.0,0.0,0.0,0.0,0.0,0.0,0.0,0.0,0.0,0.0,0.0,0.0,0.0,0.0,0.0,0.0,0.0,0.0,0.0,0.0,0.0,0.0,0.0,0.0,0.0,0.0,0.0,0.0,0.0,0.0,0.0,0.0,0.0,0.0,0.0,0.0,0.0,0.0,0.0,0.0,3.2744,0.0,3.6406,3.7148,3.5312,3.3633,0.0,0.0,0.0,0.0,0.0,0.0,0.0,0.0,0.0,0.0,0.0,0.0,0.0,0.0,0.0,0.0,0.0,0.0,0.0,0.0,0.0,0.0,0.0,0.0,0.0,0.0,0.0,0.0,0.0,0.0,0.0,0.0,0.0,0.0,0.0,0.0,0.0,0.0,0.0,0.0,0.0,0.0,0.0,0.0,0.0,0.0,0.0,0.0,0.0,0.0,0.0,0.0,0.0,0.0,0.0,0.0,0.0,0.0,0.0,0.0,0.0,0.0,0.0,0.0,0.0,0.0,0.0,0.0,0.0,0.0,0.0,0.0,0.0,0.0,0.0,0.0,0.0,0.0,0.0,0.0,0.0,0.0,0.0,0.0,0.0,0.0,0.0,0.0,0.0,0.0,0.0,0.0,0.0,0.0,0.0,0.0,0.0,0.0,0.0,0.0,0.0,0.0,0.0,0.0,0.0,0.0,0.0,0.0,3.2694,3.6853,3.7886,3.8008,3.7344,3.4805,3.2266,0.0,0.0,0.0,0.0,0.0,0.0,0.0,0.0,0.0,0.0,0.0,0.0,0.0,0.0,0.0,0.0,0.0,0.0,0.0,0.0,0.0,0.0,0.0,0.0,0.0,0.0,0.0,0.0,0.0,0.0,0.0,0.0,0.0,0.0,0.0,0.0,0.0,0.0,0.0,0.0,0.0,0.0,0.0,0.0,0.0,0.0,0.0,0.0,0.0,0.0,0.0,0.0,0.0,0.0,0.0,0.0,0.0,0.0,0.0,0.0,0.0,0.0,0.0,0.0,0.0,0.0,0.0,0.0,0.0,0.0,0.0,0.0,0.0,0.0,0.0,0.0,0.0,0.0,0.0,0.0,0.0,0.0,0.0,0.0,0.0,0.0,0.0,0.0,0.0,0.0,0.0,0.0,0.0,0.0,0.0,0.0,0.0,0.0,0.0,0.0,0.0,0.0,0.0,0.0,0.0,0.0,0.0,0.0,0.0,3.4515,3.542,3.7226,3.9648,3.457,3.2695,0.0,0.0,0.0,0.0,0.0,0.0,0.0,0.0,0.0,0.0,0.0,0.0,0.0,0.0,0.0,0.0,0.0,0.0,0.0,0.0,0.0,0.0,0.0,0.0,0.0,0.0,0.0,0.0,0.0,0.0,0.0,0.0,0.0,0.0,0.0,0.0,0.0,0.0,0.0,0.0,0.0,0.0,0.0,0.0,0.0,0.0,0.0,0.0,0.0,0.0,0.0,0.0,0.0,0.0,0.0,0.0,0.0,0.0,0.0,0.0,0.0,0.0,0.0,0.0,0.0,0.0,0.0,0.0,0.0,0.0,0.0,0.0,0.0,0.0,0.0,0.0,0.0,0.0,0.0,0.0,0.0,0.0,0.0,0.0,0.0,0.0,0.0,0.0,0.0,0.0,0.0,0.0,0.0,0.0,0.0,0.0,0.0,0.0,0.0,0.0,0.0,0.0,0.0,0.0,0.0,0.0,0.0,0.0,0.0,3.6727,3.7248,3.8398,4.0195,3.5391,3.332,3.4297,0.0,0.0,0.0,0.0,0.0,0.0,0.0,0.0,0.0,0.0,0.0,0.0,0.0,0.0,0.0,0.0,0.0,0.0,0.0,0.0,0.0,0.0,0.0,0.0,0.0,0.0,0.0,0.0,0.0,0.0,0.0,0.0,0.0,0.0,0.0,0.0,0.0,0.0,0.0,0.0,0.0,0.0,0.0,0.0,0.0,0.0,0.0,0.0,0.0,0.0,0.0,0.0,0.0,0.0,0.0,0.0,0.0,0.0,0.0,0.0,0.0,0.0,0.0,0.0,0.0,0.0,0.0,0.0,0.0,0.0,0.0,0.0,0.0,0.0,0.0,0.0,0.0,0.0,0.0,0.0,0.0,0.0,0.0,0.0,0.0,0.0,0.0,0.0,0.0,0.0,0.0,0.0,0.0,0.0,0.0,0.0,0.0,0.0,0.0,0.0,0.0,0.0,0.0,0.0,0.0,0.0,0.0,0.0,4.2422,4.2851,4.1875,3.9453,3.7266,3.4258,0.0,0.0,0.0,0.0,0.0,0.0,0.0,0.0,0.0,0.0,0.0,0.0,0.0,0.0,0.0,0.0,0.0,0.0,0.0,0.0,0.0,0.0,0.0,0.0,0.0,0.0,0.0,0.0,0.0,0.0,0.0,0.0,0.0,0.0,0.0,0.0,0.0,0.0,0.0,0.0,0.0,0.0,0.0,0.0,0.0,0.0,0.0,0.0,0.0,0.0,0.0,0.0,0.0,0.0,0.0,0.0,0.0,0.0,0.0,0.0,0.0,0.0,0.0,0.0,0.0,0.0,0.0,0.0,0.0,0.0,0.0,0.0,0.0,0.0,0.0,0.0,0.0,0.0,0.0,0.0,0.0,0.0,0.0,0.0,0.0,0.0,0.0,0.0,0.0,0.0,0.0,0.0,0.0,0.0,0.0,0.0,0.0,0.0,0.0,0.0,0.0,0.0,0.0,0.0,0.0,0.0,0.0,0.0,0.0,4.4336,4.8555,4.9648,4.7148,4.1172,3.7695,0.0,0.0,0.0,0.0,0.0,0.0,0.0,0.0,0.0,0.0,0.0,0.0,0.0,0.0,0.0,0.0,0.0,0.0,0.0,0.0,0.0,0.0,0.0,0.0,0.0,0.0,0.0,0.0,0.0,0.0,0.0,0.0,0.0,0.0,0.0,0.0,0.0,0.0,0.0,0.0,0.0,0.0,0.0,0.0,0.0,0.0,0.0,0.0,0.0,0.0,0.0,0.0,0.0,0.0,0.0,0.0,0.0,0.0,0.0,0.0,0.0,0.0,0.0,0.0,0.0,0.0,0.0,0.0,0.0,0.0,0.0,0.0,0.0,0.0,0.0,0.0,0.0,0.0,0.0,0.0,0.0,0.0,0.0,0.0,0.0,0.0,0.0,0.0,0.0,0.0,0.0,0.0,0.0,0.0,0.0,0.0,0.0,0.0,0.0,0.0,0.0,0.0,0.0,0.0,0.0,0.0,0.0,0.0,4.4873,4.7462,5.3029,5.4961,5.2851,4.6664,4.1883,0.0,0.0,0.0,0.0,0.0,0.0,0.0,0.0,0.0,0.0,0.0,0.0,0.0,0.0,0.0,0.0,0.0,0.0,0.0,0.0,0.0,0.0,0.0,0.0,0.0,0.0,0.0,0.0,0.0,0.0,0.0,0.0,0.0,0.0,0.0,0.0,0.0,0.0,0.0,0.0,0.0,0.0,0.0,0.0,0.0,0.0,0.0,0.0,0.0,0.0,0.0,0.0,0.0,0.0,0.0,0.0,0.0,0.0,0.0,0.0,0.0,0.0,0.0,0.0,0.0,0.0,0.0,0.0,0.0,0.0,0.0,0.0,0.0,0.0,0.0,0.0,0.0,0.0,0.0,0.0,0.0,0.0,0.0,0.0,0.0,0.0,0.0,0.0,0.0,0.0,0.0,0.0,0.0,0.0,0.0,0.0,0.0,0.0,0.0,0.0,0.0,0.0,0.0,0.0,0.0,0.0,0.0,0.0,4.755,5.0893,5.6308,5.832,5.6523,5.2252,4.6152,0.0,0.0,0.0,0.0,0.0,0.0,0.0,0.0,0.0,0.0,0.0,0.0,0.0,0.0,0.0,0.0,0.0,0.0,0.0,0.0,0.0,0.0,0.0,0.0,0.0,0.0,0.0,0.0,0.0,0.0,0.0,0.0,0.0,0.0,0.0,0.0,0.0,0.0,0.0,0.0,0.0,0.0,0.0,0.0,0.0,0.0,0.0,0.0,0.0,0.0,0.0,0.0,0.0,0.0,0.0,0.0,0.0,0.0,0.0,0.0,0.0,0.0,0.0,0.0,0.0,0.0,0.0,0.0,0.0,0.0,0.0,0.0,0.0,0.0,0.0,0.0,0.0,0.0,0.0,0.0,0.0,0.0,0.0,0.0,0.0,0.0,0.0,0.0,0.0,0.0,0.0,0.0,0.0,0.0,0.0,0.0,0.0,0.0,0.0,0.0,0.0,0.0,0.0,0.0,0.0,0.0,0.0,0.0,4.8106,5.1124,5.7448,5.9763,5.7617,5.2752,4.7349,0.0,0.0,0.0,0.0,0.0,0.0,0.0,0.0,0.0,0.0,0.0,0.0,0.0,0.0,0.0,0.0,0.0,0.0,0.0,0.0,0.0,0.0,0.0,0.0,0.0,0.0,0.0,0.0,0.0,0.0,0.0,0.0,0.0,0.0,0.0,0.0,0.0,0.0,0.0,0.0,0.0,0.0,0.0,0.0,0.0,0.0,0.0,0.0,2.6602,0.0,0.0,0.0,0.0,0.0,0.0,0.0,0.0,0.0,0.0,0.0,0.0,0.0,0.0,0.0,0.0,0.0,0.0,0.0,0.0,0.0,0.0,0.0,0.0,0.0,0.0,0.0,0.0,0.0,0.0,0.0,0.0,0.0,0.0,0.0,0.0,0.0,0.0,0.0,0.0,0.0,0.0,0.0,0.0,0.0,0.0,0.0,0.0,0.0,0.0,0.0,0.0,0.0,0.0,0.0,0.0,0.0,0.0,0.0,4.9759,5.3283,5.8549,6.0332,5.8259,5.421,4.9384,0.0,0.0,0.0,0.0,0.0,0.0,0.0,0.0,0.0,0.0,0.0,0.0,0.0,0.0,0.0,0.0,0.0,0.0,0.0,0.0,0.0,0.0,0.0,0.0,0.0,0.0,0.0,0.0,0.0,0.0,0.0,0.0,0.0,0.0,0.0,0.0,0.0,0.0,0.0,0.0,0.0,0.0,0.0,0.0,0.0,0.0,0.0,0.0,0.0,0.0,0.0,0.0,0.0,0.0,0.0,0.0,0.0,0.0,0.0,0.0,0.0,0.0,0.0,0.0,0.0,0.0,0.0,0.0,0.0,0.0,0.0,0.0,0.0,0.0,0.0,0.0,0.0,0.0,0.0,0.0,0.0,0.0,0.0,0.0,0.0,0.0,0.0,0.0,0.0,0.0,0.0,0.0,0.0,0.0,0.0,0.0,0.0,0.0,0.0,0.0,0.0,0.0,0.0,0.0,0.0,0.0,0.0,4.7086,5.151,5.584,5.9343,6.0333,5.8737,5.5513,5.1094,4.5469,0.0,0.0,0.0,0.0,0.0,0.0,0.0,0.0,0.0,0.0,0.0,0.0,0.0,0.0,0.0,0.0,0.0,0.0,0.0,0.0,0.0,0.0,0.0,0.0,0.0,0.0,0.0,0.0,0.0,0.0,0.0,0.0,0.0,0.0,0.0,0.0,0.0,0.0,2.6853,2.8771,0.0,0.0,0.0,0.0,0.0,0.0,0.0,0.0,2.8076,0.0,0.0,0.0,0.0,0.0,0.0,0.0,0.0,0.0,0.0,0.0,0.0,0.0,0.0,0.0,0.0,0.0,0.0,0.0,0.0,0.0,0.0,0.0,0.0,0.0,0.0,0.0,0.0,0.0,0.0,0.0,0.0,0.0,0.0,0.0,0.0,0.0,0.0,0.0,0.0,0.0,0.0,0.0,0.0,0.0,0.0,0.0,0.0,0.0,0.0,0.0,0.0,0.0,0.0,0.0,0.0,4.597,4.8279,5.1856,5.6819,5.9061,5.9764,5.8803,5.5005,5.0781,4.6211,0.0,0.0,0.0,0.0,0.0,0.0,0.0,0.0,0.0,0.0,0.0,0.0,0.0,0.0,0.0,0.0,0.0,0.0,0.0,0.0,0.0,0.0,0.0,0.0,0.0,0.0,0.0,0.0,0.0,0.0,0.0,0.0,0.0,0.0,0.0,0.0,0.0,0.0,0.0,3.0653,3.2495,0.0,0.0,0.0,0.0,0.0,0.0,0.0,0.0,2.8359,0.0,0.0,0.0,0.0,0.0,0.0,0.0,0.0,0.0,0.0,0.0,0.0,0.0,0.0,0.0,0.0,0.0,0.0,0.0,0.0,0.0,0.0,0.0,0.0,0.0,0.0,0.0,0.0,0.0,0.0,0.0,0.0,0.0,0.0,0.0,0.0,0.0,0.0,0.0,0.0,0.0,0.0,0.0,0.0,0.0,0.0,0.0,0.0,0.0,0.0,0.0,0.0,0.0,0.0,0.0,4.6663,4.9394,5.301,5.7627,5.9219,5.9399,5.8064,5.2897,4.8867,0.0,0.0,0.0,0.0,0.0,0.0,0.0,0.0,0.0,0.0,0.0,0.0,0.0,0.0,0.0,0.0,0.0,0.0,0.0,0.0,0.0,0.0,0.0,0.0,0.0,0.0,0.0,0.0,0.0,0.0,0.0,0.0,0.0,0.0,0.0,0.0,0.0,0.0,0.0,0.0,3.1976,3.3164,3.2812,0.0,0.0,0.0,0.0,0.0,0.0,2.9766,2.8906,0.0,0.0,0.0,0.0,0.0,0.0,0.0,0.0,0.0,0.0,0.0,0.0,0.0,0.0,0.0,0.0,0.0,0.0,0.0,0.0,0.0,0.0,0.0,0.0,0.0,0.0,0.0,0.0,0.0,0.0,0.0,0.0,0.0,0.0,0.0,0.0,0.0,0.0,0.0,0.0,0.0,0.0,0.0,0.0,0.0,0.0,0.0,0.0,0.0,0.0,0.0,0.0,0.0,0.0,0.0,4.6817,5.0202,5.3895,5.7857,5.9104,5.8896,5.7118,5.141,4.7695,0.0,0.0,0.0,0.0,0.0,0.0,0.0,0.0,0.0,0.0,0.0,0.0,0.0,0.0,0.0,0.0,0.0,0.0,0.0,0.0,0.0,0.0,0.0,0.0,0.0,0.0,0.0,0.0,0.0,0.0,0.0,0.0,0.0,0.0,0.0,0.0,0.0,0.0,0.0,0.0,0.0,3.4414,3.375,3.3398,0.0,0.0,0.0,0.0,3.1562,3.1523,0.0,0.0,0.0,0.0,0.0,0.0,0.0,0.0,0.0,0.0,0.0,0.0,0.0,0.0,0.0,0.0,0.0,0.0,0.0,0.0,0.0,0.0,0.0,0.0,0.0,0.0,0.0,0.0,0.0,0.0,0.0,0.0,0.0,0.0,0.0,0.0,0.0,0.0,0.0,0.0,0.0,0.0,0.0,0.0,0.0,0.0,0.0,0.0,0.0,0.0,0.0,0.0,0.0,0.0,0.0,0.0,4.6817,5.0202,5.3626,5.6973,5.8165,5.7931,5.6263,5.2698,4.9375,0.0,0.0,0.0,0.0,0.0,0.0,0.0,0.0,0.0,0.0,0.0,0.0,0.0,0.0,0.0,0.0,0.0,0.0,0.0,0.0,0.0,0.0,0.0,0.0,0.0,0.0,0.0,0.0,0.0,0.0,0.0,0.0,0.0,0.0,0.0,0.0,0.0,0.0,0.0,0.0,0.0,3.8047,3.4961,3.5781,3.5859,0.0,0.0,3.4141,3.4258,3.6094,0.0,0.0,0.0,0.0,0.0,0.0,0.0,0.0,0.0,0.0,0.0,0.0,0.0,0.0,0.0,0.0,0.0,0.0,0.0,0.0,0.0,0.0,0.0,0.0,0.0,0.0,0.0,0.0,0.0,0.0,0.0,0.0,0.0,0.0,0.0,0.0,0.0,0.0,0.0,0.0,0.0,0.0,0.0,0.0,0.0,0.0,0.0,0.0,0.0,0.0,0.0,0.0,0.0,0.0,0.0,4.3321,4.7509,5.0433,5.3549,5.6857,5.7011,5.6231,5.4602,4.9526,4.6384,0.0,0.0,0.0,0.0,0.0,0.0,0.0,0.0,0.0,0.0,0.0,0.0,0.0,0.0,0.0,0.0,0.0,0.0,0.0,0.0,0.0,0.0,0.0,0.0,0.0,0.0,0.0,0.0,0.0,0.0,0.0,0.0,0.0,0.0,0.0,0.0,0.0,0.0,0.0,0.0,0.0,0.0,3.707,3.8008,0.0,0.0,0.0,3.6523,3.75,0.0,0.0,0.0,0.0,0.0,0.0,0.0,0.0,0.0,0.0,0.0,0.0,0.0,0.0,0.0,0.0,0.0,0.0,0.0,0.0,0.0,0.0,0.0,0.0,0.0,0.0,0.0,0.0,0.0,0.0,0.0,0.0,0.0,0.0,0.0,0.0,0.0,0.0,0.0,0.0,0.0,0.0,0.0,0.0,0.0,0.0,0.0,0.0,0.0,0.0,0.0,0.0,0.0,0.0,0.0,0.0,0.0,4.7778,5.051,5.3241,5.5934,5.5934,5.4857,5.2741,4.7235,0.0,0.0,0.0,0.0,0.0,0.0,0.0,0.0,0.0,0.0,0.0,0.0,0.0,0.0,0.0,0.0,0.0,0.0,0.0,0.0,0.0,0.0,0.0,0.0,0.0,0.0,0.0,2.625,0.0,0.0,0.0,0.0,0.0,0.0,0.0,0.0,0.0,0.0,0.0,0.0,0.0,0.0,3.8281,3.8281,3.957,3.9922,0.0,0.0,3.8828,3.9492,3.793,3.6172,0.0,0.0,0.0,0.0,0.0,0.0,0.0,0.0,0.0,0.0,0.0,0.0,0.0,0.0,0.0,0.0,0.0,0.0,0.0,0.0,0.0,0.0,0.0,0.0,0.0,0.0,0.0,0.0,0.0,0.0,0.0,0.0,0.0,0.0,0.0,0.0,0.0,0.0,0.0,0.0,0.0,0.0,0.0,0.0,0.0,0.0,0.0,0.0,0.0,0.0,0.0,0.0,0.0,0.0,0.0,4.6971,5.024,5.2395,5.3472,5.4934,5.4203,5.1145,4.8256,4.6105,0.0,0.0,0.0,0.0,0.0,0.0,0.0,0.0,0.0,0.0,0.0,0.0,0.0,0.0,0.0,0.0,0.0,0.0,0.0,0.0,0.0,0.0,0.0,0.0,0.0,0.0,0.0,0.0,0.0,0.0,0.0,0.0,0.0,0.0,0.0,0.0,0.0,0.0,0.0,0.0,0.0,4.0078,3.7734,4.0195,4.1641,0.0,0.0,4.1289,3.9023,4.2461,4.3008,3.5859,0.0,0.0,0.0,0.0,0.0,0.0,0.0,0.0,0.0,0.0,0.0,0.0,0.0,0.0,0.0,0.0,0.0,0.0,0.0,0.0,0.0,0.0,0.0,0.0,0.0,0.0,0.0,0.0,0.0,0.0,0.0,0.0,0.0,0.0,0.0,0.0,0.0,0.0,0.0,0.0,0.0,0.0,0.0,0.0,0.0,0.0,0.0,0.0,0.0,0.0,0.0,0.0,0.0,4.4624,4.7586,4.9433,5.1279,5.3087,5.3318,5.2318,5.0144,4.7527,4.4983,0.0,0.0,0.0,0.0,0.0,0.0,0.0,0.0,0.0,0.0,0.0,0.0,0.0,0.0,0.0,0.0,0.0,0.0,0.0,0.0,0.0,0.0,0.0,0.0,0.0,0.0,0.0,0.0,2.7062,2.7355,2.8417,0.0,0.0,0.0,0.0,0.0,0.0,0.0,0.0,0.0,0.0,4.0,4.1094,4.2812,0.0,0.0,4.2461,4.2695,4.1172,4.082,3.9766,3.6758,3.4922,0.0,0.0,0.0,0.0,0.0,0.0,0.0,0.0,0.0,0.0,0.0,0.0,0.0,0.0,0.0,0.0,0.0,0.0,0.0,0.0,0.0,0.0,0.0,0.0,0.0,0.0,0.0,0.0,0.0,0.0,0.0,0.0,0.0,0.0,0.0,0.0,0.0,0.0,0.0,0.0,0.0,0.0,0.0,0.0,0.0,0.0,0.0,0.0,0.0,0.0,0.0,0.0,4.4855,4.772,4.8817,5.0394,5.2395,5.2087,5.1029,4.9183,4.6586,4.3849,0.0,0.0,0.0,0.0,0.0,0.0,0.0,0.0,0.0,0.0,0.0,0.0,0.0,0.0,0.0,0.0,0.0,0.0,0.0,0.0,0.0,0.0,0.0,0.0,0.0,0.0,0.0,0.0,2.8454,2.8788,2.9873,0.0,0.0,0.0,0.0,0.0,0.0,0.0,0.0,0.0,0.0,3.9961,4.2578,4.3906,4.4258,4.332,4.3711,4.3789,4.293,4.0781,3.8594,3.6797,0.0,0.0,0.0,0.0,0.0,0.0,0.0,0.0,0.0,0.0,0.0,0.0,0.0,0.0,0.0,0.0,0.0,0.0,0.0,0.0,0.0,0.0,0.0,0.0,0.0,0.0,0.0,0.0,0.0,0.0,0.0,0.0,0.0,0.0,0.0,0.0,0.0,0.0,0.0,0.0,0.0,0.0,0.0,0.0,0.0,0.0,0.0,0.0,0.0,0.0,0.0,0.0,0.0,4.5163,4.6929,4.8566,4.9817,5.0741,5.1471,5.0664,4.824,4.5663,4.3179,4.0761,0.0,0.0,0.0,0.0,0.0,0.0,0.0,0.0,0.0,0.0,0.0,0.0,0.0,0.0,0.0,0.0,0.0,0.0,0.0,0.0,0.0,0.0,0.0,0.0,0.0,0.0,3.2469,3.208,3.1418,0.0,0.0,0.0,0.0,0.0,0.0,0.0,0.0,0.0,0.0,3.7734,4.0195,4.1133,4.2695,4.3984,4.4726,4.4883,4.4609,4.3672,4.3476,4.1562,0.0,0.0,0.0,0.0,0.0,0.0,0.0,0.0,0.0,0.0,0.0,0.0,0.0,0.0,0.0,0.0,0.0,0.0,0.0,0.0,0.0,0.0,0.0,0.0,0.0,0.0,0.0,4.2966,4.1971,0.0,0.0,0.0,0.0,0.0,0.0,0.0,0.0,0.0,0.0,0.0,4.2541,4.1178,0.0,0.0,0.0,0.0,0.0,0.0,0.0,0.0,0.0,0.0,0.0,0.0,4.5163,4.6852,4.7989,4.8971,4.9817,5.0087,4.9625,4.8279,4.624,4.3487,3.9884,0.0,0.0,0.0,0.0,0.0,0.0,0.0,0.0,0.0,0.0,0.0,0.0,0.0,0.0,0.0,0.0,0.0,0.0,0.0,0.0,0.0,0.0,0.0,0.0,0.0,3.152,0.0,0.0,0.0,0.0,0.0,0.0,0.0,0.0,0.0,0.0,0.0,3.4863,3.5467,3.75,3.9453,4.0976,4.2148,4.293,0.0,0.0,0.0,0.0,0.0,0.0,0.0,0.0,0.0,0.0,0.0,0.0,0.0,0.0,4.0273,3.4844,3.3594,3.3242,3.2695,0.0,0.0,0.0,0.0,0.0,0.0,0.0,0.0,0.0,0.0,0.0,0.0,0.0,0.0,0.0,0.0,4.229,0.0,0.0,0.0,0.0,0.0,0.0,0.0,0.0,4.1822,4.2552,4.382,4.2761,4.2816,0.0,4.247,4.1662,0.0,0.0,0.0,0.0,0.0,0.0,0.0,0.0,4.5163,4.5988,4.7124,4.8086,4.8894,4.8971,4.8586,4.7798,4.5201,4.2239,3.8931,3.6164,3.4673,0.0,0.0,0.0,0.0,0.0,0.0,0.0,0.0,0.0,0.0,0.0,0.0,0.0,0.0,0.0,0.0,0.0,0.0,0.0,0.0,0.0,0.0,0.0,3.225,0.0,0.0,0.0,0.0,0.0,0.0,0.0,0.0,0.0,3.5037,3.482,3.5154,3.6663,3.7524,3.8672,4.0508,0.0,0.0,0.0,0.0,0.0,0.0,0.0,3.9961,3.8789,3.8867,3.9219,3.9805,4.1523,4.2383,4.0976,0.0,0.0,3.6406,3.543,3.5039,3.4531,3.457,3.4684,3.4701,3.4853,3.4887,0.0,0.0,0.0,0.0,0.0,0.0,0.0,0.0,4.2624,4.3712,0.0,4.2372,0.0,0.0,0.0,0.0,0.0,0.0,0.0,0.0,4.2923,4.3981,4.3406,4.3342,4.3316,4.3355,4.397,4.3855,4.3008,4.0623,0.0,0.0,0.0,0.0,0.0,0.0,4.5124,4.4435,4.603,4.7317,4.8048,4.8048,4.7663,4.6778,4.2777,3.9815,3.8046,3.6395,3.5469,3.5509,3.6234,0.0,0.0,0.0,0.0,0.0,0.0,0.0,0.0,0.0,0.0,0.0,0.0,0.0,0.0,0.0,0.0,0.0,0.0,0.0,0.0,3.4211,0.0,0.0,0.0,0.0,0.0,0.0,0.0,0.0,0.0,0.0,3.5776,3.5231,3.5615,3.8053,0.0,0.0,0.0,0.0,4.1523,4.2305,4.3828,4.4844,4.4844,4.4141,4.2461,3.9219,0.0,0.0,4.0078,4.082,4.1211,4.0195,3.9609,3.9023,3.9766,3.8867,3.8281,3.8242,3.6367,3.543,3.6574,3.5427,3.4114,4.9554,0.0,0.0,0.0,0.0,4.6067,4.6746,4.7573,4.7499,4.6833,4.5716,4.3893,0.0,0.0,0.0,0.0,0.0,0.0,4.4453,4.4757,4.5704,4.6628,4.7549,4.6952,4.7009,4.7509,4.5355,4.4162,4.3893,4.2008,4.2239,4.4432,0.0,0.0,0.0,0.0,4.3965,4.4359,4.5991,4.7009,4.724,4.724,4.6547,4.5086,4.2701,4.0354,3.807,3.6367,3.5483,3.5509,3.5724,0.0,0.0,0.0,0.0,0.0,0.0,0.0,0.0,0.0,0.0,0.0,0.0,0.0,0.0,0.0,0.0,0.0,0.0,0.0,3.5136,3.4571,3.4199,0.0,0.0,0.0,0.0,0.0,0.0,0.0,0.0,0.0,3.7073,3.6802,3.6802,0.0,0.0,3.966,4.1443,4.1406,4.1719,4.3125,0.0,0.0,0.0,4.293,4.2266,4.0703,4.1641,4.2812,4.3437,4.4258,4.4375,4.2891,4.2383,4.1953,4.0859,3.8555,3.6953,3.6719,3.6523,3.6758,3.7691,3.7734,3.7648,5.3261,4.9811,4.7905,4.7492,4.8116,4.8414,4.8899,4.9492,4.9182,4.8783,4.8197,4.5764,4.4337,4.3632,4.2687,0.0,0.0,0.0,4.5918,4.6215,4.7337,4.8433,4.9356,4.924,4.9202,4.9279,4.7317,4.597,4.5316,4.397,4.4047,4.547,0.0,0.0,4.3794,4.3997,4.4003,4.3918,4.553,4.6394,4.6394,4.6394,4.5701,4.4355,4.3008,4.1107,3.86,3.6863,3.5828,3.5522,3.5493,3.5849,0.0,0.0,0.0,0.0,0.0,0.0,0.0,0.0,0.0,0.0,0.0,3.6171,3.665,0.0,0.0,0.0,3.4083,3.425,3.493,3.4198,0.0,0.0,0.0,0.0,0.0,0.0,0.0,3.5097,3.452,3.4943,3.7238,3.7777,3.8302,3.9175,3.9201,3.9685,4.1129,0.0,4.1211,4.293,4.3008,4.3164,4.3828,4.3633,4.3242,4.2773,4.3516,4.4336,4.4883,4.543,4.5273,4.4062,4.3437,4.2891,4.1875,3.9687,3.8047,3.8008,3.832,3.8789,3.9229,3.9669,3.9915,5.6124,5.4516,5.2301,5.086,5.0079,5.0762,5.0693,4.9964,4.9213,5.0028,5.1646,4.7902,4.7094,4.8481,4.7095,0.0,0.0,4.7099,4.716,4.5406,4.8202,4.9471,4.9548,5.0317,5.0279,4.951,4.9433,4.8586,4.7124,4.6124,4.5701,4.5663,4.4833,4.402,4.332,4.4652,4.468,4.3248,4.4799,4.5586,4.5586,4.5586,4.5163,4.4239,4.3431,4.1783,3.9282,3.7563,3.6339,3.5532,3.5504,3.5849,3.657,0.0,0.0,0.0,0.0,0.0,0.0,0.0,0.0,0.0,0.0,0.0,0.0,0.0,0.0,0.0,3.2737,0.0,3.4133,3.3583,0.0,0.0,0.0,3.5661,3.5661,3.4864,3.4288,3.4379,0.0,0.0,3.6699,0.0,3.9696,4.0572,3.9413,3.8864,3.9873,4.0117,4.0624,4.2539,4.3281,4.4336,4.5508,4.5078,4.4453,4.4531,4.4844,4.4687,4.4805,4.4844,4.4531,4.3711,4.293,4.2344,4.2305,4.1484,4.1172,4.082,4.0859,4.0851,4.0642,4.0616,4.0677,5.8584,5.7079,5.6507,5.5085,5.3326,5.3449,5.3772,5.4136,5.3927,5.3156,5.1867,4.9664,4.7941,4.6616,4.7159,4.6817,4.6015,4.8121,4.8678,4.8004,4.9298,5.0106,5.0394,5.0587,5.0587,5.0356,4.9702,4.9202,4.874,4.7317,4.6586,4.6547,4.5719,4.4872,4.4047,4.3782,4.382,4.4013,4.5086,4.5586,4.5586,4.5586,4.4893,4.3393,4.2547,4.0899,3.8431,3.7286,3.6339,3.5532,3.5493,3.557,3.5776,3.7007,0.0,0.0,0.0,0.0,0.0,0.0,0.0,0.0,0.0,3.7694,3.7665,0.0,3.6507,0.0,3.3237,3.3327,3.5021,3.4982,0.0,0.0,3.5968,3.6175,3.5622,3.4749,3.4466,3.5161,3.5391,3.6084,3.7507,3.8661,3.962,4.0447,4.0359,4.0771,4.2265,4.2507,4.2942,4.3974,4.4325,4.4635,4.5036,4.3846,4.3086,4.3789,4.3398,4.3203,4.3906,4.3984,4.3711,4.293,4.2578,4.2148,4.1484,4.1211,4.1094,4.0849,4.0808,4.0822,4.0785,4.0677,4.0739,5.9685,5.851,5.8143,5.7234,5.5985,5.6026,5.6273,5.6649,5.631,5.5184,5.3482,5.1536,4.9701,4.8197,4.8933,4.8959,4.8479,4.9875,5.0127,4.9413,5.0248,5.0548,5.0433,5.0625,5.0702,5.0664,5.0202,4.9779,4.9356,4.8471,4.7663,4.6932,4.6432,4.574,4.4914,4.4435,4.4607,4.547,4.5547,4.5586,4.5586,4.5586,4.497,4.3662,4.2431,4.08,3.8646,3.7377,3.6685,3.6594,3.6608,3.6622,3.6622,3.7507,3.7623,0.0,0.0,0.0,0.0,0.0,0.0,0.0,0.0,0.0,0.0,0.0,3.643,3.5391,3.3853,3.393,3.6367,3.5586,3.5368,3.6496,3.6329,3.6136,3.6059,3.5595,3.5504,3.5979,3.6724,3.7546,3.8469,3.9315,4.0008,4.0446,4.0931,4.1447,4.2071,4.2499,4.3141,4.4071,4.4187,4.4305,4.4731,4.3624,4.285,4.3325,4.3123,4.285,4.2974,4.2988,4.2705,4.1885,4.1712,4.1641,4.1094,4.109,4.112,4.0913,4.0793,4.0754,4.0716,4.0639,4.0816,5.9942,5.9171,5.8327,5.7997,5.7997,5.7997,5.7997,5.7923,5.7244,5.6401,5.5464,5.3261,5.1867,5.1173,5.1416,5.1342,5.0996,5.1615,5.132,5.034,5.0995,5.1003,5.0452,5.0778,5.097,5.101,5.0894,5.0471,4.974,4.951,4.8663,4.7278,4.7124,4.6663,4.595,4.5817,4.6103,4.6698,4.618,4.5932,4.5932,4.5932,4.5432,4.4432,4.2624,4.087,3.9191,3.7483,3.6901,3.7602,3.767,3.7661,3.77,3.7777,3.7507,0.0,3.6786,0.0,0.0,0.0,0.0,0.0,0.0,0.0,0.0,3.5955,3.5853,3.6661,3.4584,3.4507,3.757,3.5828,3.547,3.7641,3.6713,3.6084,3.6766,3.6892,3.6863,3.6887,3.83,3.933,3.9277,3.9969,4.0508,4.0754,4.147,4.1816,4.1316,4.194,4.2749,4.3321,4.3265,4.3404,4.3744,4.3374,4.2888,4.2988,4.2864,4.278,4.2063,4.1966,4.1721,4.103,4.0978,4.1016,4.0976,4.1077,4.1158,4.0992,4.087,4.0754,4.06,4.06,4.0931,5.9942,5.9171,5.8364,5.7997,5.7997,5.7997,5.7997,5.7997,5.785,5.6969,5.5537,5.4436,5.3518,5.2784,5.2794,5.2459,5.1784,5.1915,5.1654,5.1083,5.123,5.1593,5.2103,5.2211,5.2426,5.2682,5.201,5.1587,5.1395,5.0048,4.924,4.8933,4.8202,4.7797,4.7601,0.0,0.0,0.0,4.7009,4.7625,4.7625,4.7625,4.6894,4.5355,4.2354,0.0,3.8291,3.6622,3.5801,3.5955,3.5955,0.0,0.0,0.0,0.0,0.0,0.0,0.0,0.0,0.0,0.0,0.0,3.8965,3.8411,3.6829,3.5968,3.5839,3.6584,3.5661,3.5532,3.6801,3.6531,3.6699,3.7795,3.7738,3.7593,3.7742,3.7756,3.7767,3.7755,3.8685,3.933,3.9446,4.0008,4.0754,4.1424,4.2332,4.2761,4.2612,4.3261,4.364,4.3327,4.2733,4.204,4.1386,4.127,4.127,4.1193,4.1193,4.1193,4.1116,4.1084,4.1065,4.0795,4.0874,4.0946,4.0889,4.1047,4.1117,4.0886,4.0924,4.0908,4.0716,4.06,4.0777,6.075,0.0,5.9071,5.8603,0.0,5.8189,5.7997,5.7997,5.7997,5.7336,5.6124,5.5354,5.4546,5.3812,5.3812,5.3329,5.259,5.259,5.2254,5.1658,5.182,5.1898,5.1977,5.2379,5.2704,5.2909,5.2658,5.2356,5.1895,5.1048,5.0202,4.9394,4.8971,4.8528,4.8084,4.7681,4.6855,4.5624,4.6432,4.6855,4.6855,4.6855,4.624,4.4932,0.0,0.0,0.0,0.0,0.0,0.0,0.0,0.0,0.0,0.0,0.0,3.6572,3.7177,3.7791,3.8303,3.813,3.8133,3.8531,3.8638,3.8291,3.7406,3.6983,3.6892,3.7276,3.6969,3.7084,3.7892,3.7608,3.7853,3.8999,3.8516,3.8155,3.8561,3.8638,3.8661,3.8747,3.9377,4.0023,4.0469,4.0854,4.1293,4.1771,4.2871,4.353,4.3265,4.3782,4.4008,4.3272,4.2425,4.1755,4.12,4.07,4.0508,4.06,4.06,4.0639,4.0639,4.0639,4.0677,4.0754,4.0831,4.0874,4.0935,4.1058,4.1126,4.0974,4.0963,4.0935,4.0797,4.0693,4.0908,6.1961,6.1667,6.022,5.9532,5.9394,5.8566,5.8107,5.7997,0.0,0.0,0.0,5.6088,5.5354,5.462,5.4583,5.4142,5.3408,5.3408,5.2962,5.2254,5.2517,5.238,5.1919,5.2604,5.3034,5.3162,5.3366,5.301,5.2164,5.1972,5.1125,4.974,4.9625,4.9202,4.8394,4.8183,4.7432,4.6124,4.6201,4.6201,4.6047,4.6047,4.5624,4.4778,4.2816,4.1085,3.9561,3.7853,3.7224,3.7954,3.7993,3.8007,3.8007,3.8661,3.8354,3.6778,3.7109,3.7585,3.794,3.7536,3.765,3.853,3.8485,3.8308,3.8031,3.8007,3.8007,3.8007,3.8007,3.8354,3.92,3.8676,3.8815,4.0315,3.9285,3.877,3.94,3.9515,3.9531,3.9608,4.0085,4.0739,4.1354,4.1623,4.1854,4.2194,4.3333,4.4124,4.359,4.3897,4.403,4.3222,4.2393,4.1739,4.147,4.0969,4.0508,4.0508,4.0508,4.0508,4.0508,4.0508,4.0546,4.0716,4.0761,4.0844,4.0998,4.1091,4.1133,4.1055,4.102,4.1013,4.0917,4.0854,4.1079,6.3319,6.2585,6.1654,6.0867,6.0186,5.9394,5.864,5.7997,5.7997,5.7556,5.6785,5.6675,5.6198,5.5427,5.5454,5.4975,5.427,5.4228,5.3781,0.0,5.3072,5.3454,5.4029,5.4182,5.459,5.5154,5.4605,5.3857,5.301,5.2279,5.1433,5.0625,5.051,5.0048,4.924,4.8472,4.801,4.7778,4.8471,4.8509,4.7778,4.774,4.7355,4.6471,4.3431,4.1354,4.0369,3.8738,3.7892,3.7993,3.7993,3.8007,3.8007,3.8161,3.807,3.7755,3.7376,3.7494,3.8169,3.7977,3.8389,3.972,4.0031,3.9569,3.8139,3.7986,3.8001,3.8007,3.8084,3.8354,3.9161,3.9176,3.9499,4.0331,4.0277,4.0239,4.0277,4.0277,4.0277,4.0277,4.0392,4.0508,4.0893,4.147,4.2162,4.2854,4.3624,4.4218,4.4047,4.4222,4.3953,4.3184,4.2354,4.1546,4.0931,4.0623,4.0508,4.0508,4.0508,4.0508,4.0508,4.0508,4.0546,4.0677,4.0759,4.0881,4.104,4.1123,4.1211,4.1211,4.125,4.1211,4.1143,4.1155,4.1168,6.453,6.4016,6.2818,6.2059,6.1592,5.99,5.9016,5.864,5.8189,5.7813,5.7446,5.7446,5.7005,5.6271,5.6279,5.5802,5.506,5.5053,5.4613,5.3855,5.3849,5.3842,5.387,5.4255,5.4701,5.5042,5.5125,5.4703,5.3933,5.3472,5.2626,5.1433,5.0933,5.0471,5.0125,4.9721,4.926,4.8817,4.8279,4.7855,4.7471,4.6971,4.6355,4.5509,4.3932,4.2316,4.0546,3.9738,3.8931,3.8031,3.8007,3.8007,3.8007,3.843,3.8654,3.8448,3.8457,3.8536,3.8707,3.8786,3.909,3.9791,4.0239,4.02,3.94,3.9362,3.9339,3.9354,3.9354,3.9508,3.9892,3.9946,4.01,4.0485,4.0508,4.0508,4.0508,4.0508,4.0508,4.0508,4.0508,4.0854,4.1777,4.2277,4.2816,4.3607,4.3799,4.3684,4.3662,4.364,4.3333,4.2508,4.1662,4.1046,4.0546,4.0508,4.0508,4.0508,4.0508,4.0508,4.0508,4.0546,4.0639,4.0754,4.0835,4.1158,4.1562,4.1413,4.1406,4.1797,4.1875,4.1758,4.1381,4.153,4.1765,6.5888,6.5411,6.398,6.3048,6.2388,6.054,5.9559,5.9164,5.8652,5.8356,5.8142,5.8088,5.772,5.7258,5.7116,5.6694,5.6116,5.6029,5.5595,5.489,5.4954,5.4593,5.4047,5.4627,5.486,5.4857,5.5399,5.528,5.4587,5.4511,5.3741,5.2279,5.1356,5.0991,5.0971,5.0779,5.0356,4.9625,4.8202,4.7278,4.6894,4.624,4.547,4.4662,4.4393,4.3278,4.1239,4.0893,4.0085,3.87,3.8738,3.8854,3.8892,3.9469,3.9813,3.9775,3.9882,3.9802,3.9453,3.969,3.9814,3.9653,4.0162,4.0508,4.0508,4.0508,4.0508,4.0508,4.0431,4.0431,4.0469,4.0469,4.0508,4.0508,4.0508,4.0508,4.0508,4.0508,4.0508,4.0508,4.0508,4.1085,4.2393,4.3008,4.3393,4.3936,4.3628,4.3145,4.3069,4.298,4.2479,4.1947,4.1239,4.0777,4.0585,4.0508,4.0508,4.0508,4.0508,4.0508,4.0546,4.0639,4.0754,4.0831,4.0908,4.1241,4.1875,4.1836,4.168,4.1992,4.2305,4.2422,4.1758,4.1953,4.2461,6.7687,6.6366,6.5396,6.3731,6.1812,6.1409,6.0566,5.9366,5.955,5.929,5.8665,5.8186,5.8201,5.8438,5.8083,5.7666,5.7308,5.7338,5.6848,5.6213,5.6557,5.6526,5.6031,5.6168,5.6002,5.5646,5.572,5.5357,5.4587,5.4511,5.401,5.3087,5.2184,5.1761,5.1702,5.1087,5.0664,5.0548,4.9663,4.8432,4.7009,4.6817,4.6355,4.5509,4.4701,4.3855,4.2816,4.2124,4.1239,4.0431,4.1008,4.1431,4.1431,4.1508,4.1876,4.2497,4.1686,4.0896,4.037,4.0561,4.0389,3.9746,4.0239,4.0546,4.0546,4.0546,4.0508,4.0508,4.0508,4.0508,4.0508,4.0508,4.0508,4.0508,4.0508,4.0508,4.0508,4.0508,4.0508,4.0508,4.0546,4.0893,4.197,4.2739,4.3415,4.3897,4.3525,4.3041,4.2893,4.2447,4.204,4.1854,4.1646,4.1261,4.07,4.0508,4.0508,4.0508,4.0508,4.0546,4.0639,4.0716,4.0754,4.0908,4.1089,4.1267,4.1601,4.1719,4.2031,4.1992,4.2578,4.3242,4.2539,4.25,4.2851,6.8091,6.776,6.6019,6.4185,6.2338,6.1775,6.1239,6.0614,5.9832,5.9454,5.9343,5.8725,5.8673,5.9065,5.8641,5.8317,5.8238,5.8201,5.7791,5.7113,5.7482,5.7346,5.6813,5.7041,5.6778,5.6179,5.6345,5.6049,5.5241,5.4741,5.4318,5.3933,5.3087,5.2395,5.1933,5.1568,5.1183,5.0702,5.0356,4.9586,4.8432,4.7394,4.674,4.6317,4.5509,4.4662,4.391,4.347,4.2893,4.214,4.2409,4.2585,4.2585,4.2585,4.2701,4.3008,4.227,4.1608,4.1151,4.1222,4.1215,4.1107,4.1463,4.1578,4.1309,4.1716,4.1662,4.0662,4.0508,4.0508,4.0508,4.0508,4.0508,4.0508,4.0508,4.0508,4.0508,4.0947,4.1101,4.0677,4.0947,4.1562,4.2431,4.3299,4.3453,4.3184,4.2887,4.298,4.247,4.1992,4.1854,4.1739,4.1377,4.0969,4.0677,4.0639,4.0639,4.0677,4.0677,4.0716,4.0754,4.0831,4.0908,4.1001,4.1429,4.1974,4.2731,4.2383,4.2344,4.2422,4.2461,4.3164,4.4414,4.4297,4.4375,6.8421,6.8238,6.6166,6.4332,6.2805,6.2155,6.1775,6.1508,6.0387,6.0003,6.0033,5.9515,5.9458,5.969,5.9166,5.8952,5.9065,5.9093,5.8789,5.8295,5.8716,5.8463,5.7757,5.7941,5.771,5.7073,5.7228,5.6896,5.6049,5.5241,5.4818,5.4703,5.3972,5.3126,5.2318,5.203,5.1491,5.0779,5.0702,5.0394,4.9625,4.8355,4.7394,4.6894,4.6047,4.5201,4.4372,4.4316,4.3948,4.3156,4.3294,4.3431,4.3431,4.3431,4.3431,4.3393,4.303,4.2557,4.2106,4.2051,4.2062,4.2112,4.2448,4.2556,4.2332,4.2739,4.2508,4.1508,4.12,4.1123,4.0508,4.0508,4.0508,4.0508,4.0508,4.0508,4.0546,4.1101,4.1139,4.0662,4.0947,4.1886,4.2854,4.353,4.353,4.2931,4.2925,4.3096,4.2569,4.2398,4.2189,4.2091,4.1415,4.0893,4.077,4.0692,4.0718,4.0759,4.0784,4.0792,4.0844,4.0947,4.1016,4.1131,4.1882,4.2461,4.2812,4.2734,4.3086,4.3516,4.3359,4.3164,4.4609,4.4961,4.5234,6.9119,6.7577,6.5999,6.4383,6.2842,6.2732,6.2315,6.1691,6.1562,6.1242,6.0634,6.0571,6.071,6.0647,5.9769,5.9619,5.996,5.9944,5.9941,5.99,6.0349,6.0195,5.9427,5.9412,5.8989,5.8174,5.8104,5.7665,5.6819,5.6049,5.5626,5.5549,5.4797,5.399,5.3164,5.2338,5.1549,5.0894,5.0702,5.0664,5.0471,4.9663,4.8394,4.7048,4.6086,4.524,4.447,4.4316,4.3987,4.3156,4.3871,4.4239,4.4256,4.4239,4.4239,4.4239,4.4376,4.4057,4.3328,4.3198,4.2922,4.2396,4.2845,4.3107,4.3035,4.3261,4.3162,4.2931,4.2816,4.2277,4.0969,4.0716,4.0585,4.0508,4.0508,4.0508,4.0508,4.0677,4.0569,4.0537,4.0761,4.1508,4.2854,4.3124,4.3547,4.3679,4.3497,4.3288,4.3761,4.3419,4.3111,4.2804,4.2244,4.1508,4.0892,4.0713,4.0721,4.0805,4.0916,4.0859,4.0937,4.0983,4.1055,4.1289,4.1953,4.2422,4.2734,4.3281,4.4023,4.4141,4.332,4.3476,4.457,4.4805,4.5195,6.8385,6.6843,6.5742,6.4655,6.359,6.3025,6.2608,6.2304,6.1644,6.1392,6.1271,6.0684,6.0508,6.0781,6.0457,6.0196,6.0094,6.0092,6.0082,6.016,6.0594,6.0627,6.0396,6.0319,5.9896,5.9127,5.855,5.755,5.6242,5.5818,5.5703,5.5665,5.5434,5.4857,5.401,5.3166,5.2319,5.151,5.0971,5.0702,5.0548,4.9317,4.824,4.7702,4.6855,4.6009,4.5124,4.5124,4.4987,4.4718,4.497,4.5124,4.5141,4.5124,4.5124,4.5086,4.4799,4.4459,4.4172,4.3894,4.3744,4.3763,4.4113,4.4187,4.4057,4.4338,4.4278,4.347,4.3624,4.3278,4.2393,4.1678,4.1101,4.0639,4.0508,4.0508,4.0639,4.0947,4.1139,4.08,4.1393,4.2277,4.2393,4.3184,4.3761,4.3602,4.3717,4.4008,4.4145,4.4013,4.3744,4.3222,4.2854,4.2255,4.0908,4.0752,4.0827,4.0955,4.1055,4.1055,4.1094,4.1094,4.1172,4.1601,4.2148,4.2695,4.3086,4.3086,4.3945,4.375,4.2969,4.3672,4.4375,4.5039,4.5547,6.7981,6.6512,6.5653,6.4824,6.4007,6.3185,6.2805,6.2733,6.2055,6.192,6.1989,6.1149,6.093,6.1104,6.0935,6.0647,6.0338,6.0338,6.0313,6.0365,6.0661,6.0781,6.0781,6.0781,6.0512,5.9819,5.8781,5.7665,5.6588,5.5972,5.5703,5.5703,5.5703,5.5318,5.4472,5.3628,5.2781,5.1933,5.1125,5.0587,5.0202,4.9163,4.824,4.774,4.7163,4.6509,4.5624,4.5586,4.5586,4.5586,4.5586,4.5586,4.5586,4.5586,4.555,4.54,4.4883,4.4548,4.4436,4.4259,4.4303,4.4574,4.4993,4.5082,4.4802,4.5278,4.4932,4.4316,4.4316,4.4393,4.3624,4.2948,4.214,4.1178,4.0908,4.0793,4.0585,4.1024,4.1024,4.0831,4.1662,4.2316,4.247,4.3508,4.4047,4.3893,4.4414,4.4722,4.4722,4.4684,4.4299,4.3376,4.3162,4.2563,4.1617,4.1221,4.1006,4.1111,4.1133,4.1172,4.1211,4.1211,4.1406,4.1875,4.2461,4.3047,4.3242,4.3125,4.3125,4.3125,4.3633,4.4375,4.5,4.5625,4.5937,6.7981,6.6549,6.5603,6.4867,6.4117,6.3172,6.2805,6.2818,6.2911,6.2861,6.271,6.2261,6.1953,6.1911,6.1373,6.0935,6.0873,6.0887,6.081,6.0748,6.0796,6.0781,6.0781,6.0781,6.0704,6.0473,5.9088,5.8319,5.8011,5.6626,5.5857,5.578,5.5742,5.5395,5.4549,5.378,5.2856,5.2049,5.1241,5.0394,4.9548,4.9394,4.8625,4.7355,4.7009,4.6509,4.5701,4.5624,4.5586,4.5586,4.5586,4.5586,4.5586,4.5586,4.5457,4.5142,4.4798,4.4421,4.4134,4.4334,4.4531,4.469,4.5204,4.5532,4.5453,4.5509,4.5509,4.5355,4.5355,4.5163,4.447,4.4222,4.3547,4.2156,4.1809,4.1501,4.0831,4.0546,4.0546,4.0816,4.1662,4.2239,4.297,4.391,4.4603,4.5163,4.5393,4.5432,4.5393,4.5393,4.4837,4.3782,4.3607,4.3487,4.2541,4.1677,4.1419,4.125,4.1211,4.1211,4.1211,4.1211,4.1406,4.1836,4.2578,4.3164,4.3398,4.3359,4.3711,4.3906,4.4492,4.4805,4.5156,4.5586,4.6055,6.8274,6.721,6.5823,6.5181,6.4714,6.3429,6.2805,6.2768,6.264,6.2562,6.2551,6.2471,6.2452,6.247,6.2427,6.2204,6.1704,6.1666,6.1358,6.0858,6.0781,6.0781,6.0781,6.0781,6.0473,5.9935,5.9396,5.8819,5.8204,5.7242,5.6742,5.6665,5.6263,5.5857,5.5455,5.4626,5.3759,5.2818,5.1972,5.1125,5.0317,4.9702,4.9125,4.8586,4.7548,4.674,4.6471,4.5932,4.5586,4.5586,4.5586,4.5586,4.5586,4.5586,4.5438,4.5115,4.4777,4.4433,4.412,4.4334,4.4583,4.471,4.524,4.5547,4.5586,4.5586,4.5586,4.5586,4.5586,4.5432,4.5278,4.5201,4.4432,4.2909,4.2678,4.2332,4.1578,4.1393,4.1684,4.2277,4.3008,4.3624,4.397,4.4603,4.5218,4.5488,4.5586,4.5586,4.5624,4.568,4.5355,4.432,4.4547,4.4338,4.3272,4.2393,4.1996,4.1601,4.1406,4.1406,4.1367,4.1406,4.1562,4.2031,4.2734,4.3242,4.3437,4.375,4.4101,4.4375,4.4648,4.4883,4.5039,4.5508,4.6094,6.8862,6.7981,6.6426,6.5747,6.561,6.4301,6.3736,6.3686,6.3356,6.3268,6.3195,6.2933,6.2883,6.3001,6.3044,6.2657,6.2127,6.2089,6.1627,6.0896,6.0781,6.0781,6.0781,6.0781,6.055,6.005,5.9742,5.9358,5.8858,5.8127,5.7734,5.7621,5.6983,5.6579,5.6346,5.5324,5.4413,5.378,5.2664,5.1684,5.0837,5.001,4.9394,4.8933,4.7702,4.7009,4.6912,4.6103,4.5586,4.5586,4.5586,4.5586,4.5586,4.5586,4.54,4.4981,4.47,4.4355,4.3951,4.4296,4.46,4.471,4.5201,4.5586,4.5586,4.5586,4.5586,4.5586,4.5586,4.5586,4.5586,4.5586,4.5086,4.4201,4.3739,4.3217,4.2502,4.2316,4.2458,4.3052,4.3722,4.4201,4.447,4.5009,4.5547,4.5586,4.5642,4.568,4.5719,4.5757,4.5317,4.4824,4.45,4.4176,4.3714,4.3125,4.2591,4.2109,4.1641,4.168,4.1719,4.1836,4.1992,4.2656,4.3359,4.375,4.4023,4.4219,4.4492,4.4648,4.5,4.5391,4.5742,4.5859,4.6289,6.9633,6.8825,6.7212,6.6533,6.6434,6.5529,6.511,6.5154,6.4779,6.4524,6.4369,6.3533,6.3343,6.36,6.3307,6.2853,6.231,6.2243,6.182,6.1127,6.0858,6.0781,6.0781,6.0781,6.0742,6.0589,6.0188,5.9919,5.9804,5.9149,5.878,5.8683,5.7959,5.7434,5.708,5.5797,5.5094,5.4555,5.3282,5.2183,5.1277,5.047,4.9661,4.887,4.7868,4.7272,4.7122,4.6219,4.5586,4.5586,4.5586,4.5586,4.5586,4.5586,4.5303,4.4688,4.4587,4.4279,4.3874,4.4288,4.4645,4.471,4.524,4.5586,4.5586,4.5586,4.5586,4.5586,4.5586,4.5586,4.5586,4.5586,4.5509,4.547,4.4645,4.3893,4.3365,4.3239,4.3304,4.3457,4.3953,4.4393,4.4509,4.5201,4.5509,4.5642,4.5719,4.5791,4.5786,4.575,4.5512,4.5078,4.457,4.415,4.3789,4.3359,4.2891,4.2851,4.2344,4.2266,4.2266,4.2383,4.2539,4.3203,4.3867,4.4297,4.457,4.4766,4.5156,4.5586,4.5937,4.625,4.6289,4.6289,4.6289,6.9963,6.9633,6.8054,6.7393,6.7136,6.5946,6.5327,6.5201,6.461,6.4448,6.4155,6.3736,6.3761,6.4211,6.4362,6.424,6.3783,6.3243,6.2574,6.1728,6.105,6.0819,6.0781,6.0781,6.0781,6.0742,6.0666,6.0689,6.065,6.0102,5.9819,5.9785,5.9085,5.832,5.7617,5.7148,5.6191,5.5087,5.4543,5.343,5.2227,5.18,5.1256,5.0402,4.8941,4.815,4.7829,4.645,4.5586,4.5586,4.5586,4.5586,4.5586,4.5586,4.5303,4.48,4.48,4.4648,4.4198,4.4515,4.4936,4.5017,4.5355,4.5586,4.5586,4.5586,4.5586,4.5586,4.5586,4.5586,4.5586,4.5586,4.5586,4.547,4.4876,4.4491,4.468,4.4376,4.4205,4.4837,4.5086,4.5163,4.5278,4.5488,4.5757,4.5757,4.583,4.5863,4.5881,4.5937,4.5781,4.5195,4.4687,4.4297,4.3906,4.3476,4.3281,4.3437,4.3203,4.3008,4.3008,4.3047,4.3281,4.3633,4.4453,4.4961,4.5195,4.5391,4.5898,4.625,4.6289,4.6289,4.6289,4.6289,4.6289,7.0587,7.0477,6.8844,6.8201,6.8035,6.6809,6.6316,6.6133,6.5437,6.4867,6.4609,6.4253,6.4192,6.4445,6.4866,6.4891,6.4564,6.4089,6.3229,6.2036,6.1228,6.0819,6.0781,6.0781,6.0781,6.0819,6.1012,6.1092,6.1116,6.088,6.085,6.0667,6.008,5.9375,5.8906,5.8047,5.7305,5.623,5.551,5.4501,5.3649,5.3181,5.2551,5.1713,5.0338,4.9264,4.7863,4.6373,4.5586,4.5586,4.5586,4.5586,4.5586,4.5586,4.5342,4.4872,4.4872,4.4636,4.4445,4.4668,4.496,4.5131,4.5432,4.5547,4.5586,4.5586,4.5586,4.5586,4.5586,4.5586,4.5586,4.5586,4.5586,4.5547,4.5201,4.5163,4.5642,4.5201,4.5201,4.5547,4.5757,4.5719,4.5719,4.5796,4.5834,4.5873,4.5911,4.5975,4.5976,4.6055,4.6016,4.543,4.4961,4.457,4.4219,4.3867,4.375,4.3867,4.418,4.3945,4.3945,4.3984,4.4414,4.4805,4.5273,4.5586,4.5703,4.5859,4.6055,4.6289,4.6289,4.6289,4.6289,4.6289,4.6289,7.1321,7.1211,6.9595,6.8917,6.875,6.8035,6.754,6.7504,6.6663,6.5893,6.5257,6.4921,6.4566,6.4407,6.4866,6.4967,6.4782,6.4589,6.3614,6.2459,6.1497,6.105,6.105,6.0858,6.0819,6.0858,6.1127,6.1254,6.1305,6.1476,6.164,6.1406,6.082,6.0469,5.9922,5.8906,5.8203,5.75,5.6445,5.5547,5.4961,5.4336,5.3672,5.2767,5.1591,4.9798,4.7867,4.6429,4.5834,4.5757,4.568,4.5586,4.5586,4.5586,4.5419,4.5159,4.4919,4.4789,4.4697,4.4745,4.4881,4.515,4.5393,4.5586,4.5547,4.5547,4.5509,4.5586,4.5586,4.5586,4.5586,4.5586,4.5586,4.5586,4.5642,4.5757,4.5813,4.5786,4.5851,4.5912,4.5889,4.5902,4.5911,4.5928,4.5924,4.5975,4.603,4.6115,4.6133,4.6172,4.6055,4.5742,4.5312,4.4922,4.457,4.4258,4.4258,4.4336,4.4922,4.5039,4.5117,4.5312,4.582,4.6172,4.5976,4.5937,4.6094,4.625,4.6289,4.6289,4.6289,4.6289,4.6289,4.6289,4.6289,7.1321,7.1154,6.9535,6.8877,6.8807,6.8054,6.7687,6.7614,6.6846,6.6129,6.5382,6.4958,6.472,6.4444,6.49,6.5235,6.541,6.4897,6.3998,6.3084,6.2213,6.1843,6.1651,6.1266,6.0858,6.0896,6.1151,6.1292,6.1367,6.1523,6.1719,6.164,6.1445,6.1094,6.039,5.9961,5.914,5.8125,5.7461,5.6601,5.5625,5.5234,5.4648,5.3708,5.214,5.0314,4.8516,4.7293,4.6737,4.6506,4.6026,4.5701,4.5624,4.5586,4.5438,4.5243,4.5301,4.5247,4.5086,4.5179,4.5381,4.5435,4.5355,4.5316,4.5547,4.5393,4.5393,4.5509,4.5586,4.5586,4.5586,4.5586,4.5586,4.5624,4.5719,4.5813,4.5873,4.5859,4.5898,4.5898,4.5935,4.5905,4.5918,4.6012,4.6061,4.6079,4.6133,4.625,4.625,4.625,4.6094,4.5859,4.5625,4.5234,4.5,4.4844,4.5,4.5,4.5469,4.5742,4.5859,4.5937,4.6211,4.6289,4.625,4.6289,4.6289,4.6289,4.6289,4.6289,4.6289,4.6289,4.6289,4.6289,4.6289,7.1101,7.0604,6.9409,6.8933,6.8788,6.8037,6.7687,6.7614,6.7266,6.6522,6.5816,6.5664,6.5346,6.4769,6.523,6.5663,6.5615,6.5013,6.4359,6.3767,6.3089,6.2666,6.2613,6.2127,6.1666,6.105,6.1012,6.1157,6.124,6.1445,6.1601,6.1601,6.168,6.1445,6.0976,6.0625,5.9922,5.918,5.8633,5.7812,5.6601,5.6445,5.5777,5.4333,5.2503,5.0676,4.9698,4.8307,4.7696,4.7296,4.6663,4.6009,4.5663,4.5586,4.5475,4.5419,4.5283,4.5395,4.5375,4.5352,4.5395,4.5586,4.5432,4.5477,4.5534,4.54,4.5432,4.5547,4.5586,4.5586,4.5586,4.5586,4.5586,4.5624,4.5719,4.5827,4.5872,4.5937,4.6016,4.6055,4.6111,4.6103,4.6138,4.6133,4.6172,4.6211,4.6211,4.6289,4.6289,4.625,4.6172,4.5976,4.582,4.5586,4.5391,4.543,4.5781,4.582,4.5937,4.6094,4.6133,4.6211,4.6289,4.6289,4.6289,4.6289,4.6289,4.6289,4.6289,4.6289,4.6289,4.6289,4.6289,4.6289,4.6289,7.0734,7.0036,6.9247,6.8825,6.8605,6.8017,6.7687,6.7687,6.754,6.6801,6.6201,6.6466,6.5803,6.5366,6.5635,6.5872,6.5743,6.5333,6.4872,6.4757,6.3886,6.3565,6.3411,6.3128,6.2512,6.1281,6.1304,6.1271,6.1136,6.1289,6.1484,6.1523,6.1601,6.1601,6.1484,6.1015,6.0409,5.9976,5.9492,5.875,5.7773,5.7617,5.664,5.4893,5.3358,5.1932,5.1074,4.9792,4.8702,4.8432,4.7586,4.6778,4.6163,4.5624,4.5586,4.5586,4.5381,4.538,4.5456,4.5409,4.535,4.5586,4.5509,4.5554,4.5579,4.5495,4.5512,4.5547,4.5586,4.5586,4.5586,4.5586,4.5586,4.5624,4.5719,4.5803,4.5908,4.6016,4.6133,4.625,4.625,4.6211,4.625,4.625,4.6289,4.6289,4.6289,4.6289,4.6289,4.6289,4.6211,4.6172,4.6016,4.5976,4.5781,4.5703,4.6094,4.6172,4.6289,4.6289,4.6289,4.6289,4.6289,4.6289,4.6289,4.6289,4.6289,4.6289,4.6289,4.6289,4.6289,4.6289,4.6289,4.6289,4.6289,7.022,7.0036,6.921,6.8512,6.7944,6.7724,6.7687,6.7594,6.7074,6.6494,6.606,6.5905,6.5646,6.5321,6.5663,6.5936,6.5972,6.5755,6.5743,6.559,6.4834,6.4411,6.4295,6.3858,6.3243,6.2858,6.2421,6.1874,6.134,6.1215,6.16,6.1562,6.1601,6.168,6.1601,6.1379,6.0863,6.0388,6.0016,5.942,5.8615,5.7761,5.6768,5.5234,5.4226,5.363,5.2713,5.1411,5.0394,5.0164,4.874,4.8009,4.7394,4.6432,4.5855,4.5778,4.5686,4.5686,4.5704,4.5571,4.5534,4.5547,4.5393,4.5393,4.5457,4.5399,4.5432,4.5547,4.5586,4.5586,4.5586,4.5586,4.5586,4.5624,4.5697,4.5803,4.5854,4.5976,4.6133,4.625,4.6289,4.6289,4.6289,4.6289,4.6289,4.6289,4.6289,4.6289,4.6289,4.6289,4.6289,4.625,4.625,4.625,4.6211,4.6133,4.625,4.625,4.6289,4.6289,4.6289,4.6289,4.6289,4.6289,4.6289,4.6289,4.6289,4.6289,4.6289,4.6289,4.6289,4.6289,4.6289,4.6289,4.6289,6.9853,6.9412,6.8622,6.8071,6.7724,6.7687,6.7687,6.7626,6.712,6.668,6.6387,6.6107,6.5803,6.5676,6.5832,6.6106,6.6204,6.6136,6.6115,6.5936,6.5551,6.5257,6.5218,6.4743,6.4397,6.4012,6.3614,6.2998,6.2281,6.2444,6.222,6.1992,6.1985,6.1846,6.1548,6.1412,6.1119,6.0663,6.0573,6.0162,5.9163,5.8092,5.6698,5.5724,5.5056,5.4624,5.4033,5.3019,5.1991,5.1337,5.0221,4.9394,4.8586,4.7778,4.6894,4.6855,4.6509,4.6257,4.6142,4.595,4.5586,4.5586,4.5432,4.5432,4.5509,4.5509,4.5432,4.5547,4.5586,4.5586,4.5586,4.5586,4.5586,4.5624,4.5719,4.5796,4.5857,4.598,4.6112,4.6211,4.625,4.6289,4.6289,4.6289,4.6289,4.6289,4.6289,4.6289,4.6289,4.6289,4.6289,4.6289,4.6289,4.6289,4.6289,4.6289,4.6289,4.6289,4.6289,4.6289,4.6289,4.6289,4.6289,4.6289,4.6289,4.6289,4.6289,4.6289,4.6289,4.6289,4.6289,4.6289,4.6289,4.6289,4.6289,6.9486,6.8825,6.8201,6.7834,6.7687,6.7504,6.743,6.7377,6.6887,6.6553,6.6559,6.6201,6.5971,6.6012,6.6101,6.6273,6.6415,6.6263,6.6204,6.6128,6.5974,6.5897,6.5859,6.582,6.5436,6.4897,6.4782,6.432,6.3281,6.3267,6.2959,6.245,6.2377,6.2079,6.1461,6.1278,6.1137,6.1113,6.1089,6.0666,5.9588,5.8341,5.7131,5.6186,5.5472,5.5049,5.4882,5.4185,5.3275,5.2391,5.1509,5.0683,4.974,4.9009,4.8625,4.8471,4.7702,4.7181,4.6737,4.639,4.5911,4.5624,4.5586,4.5586,4.5586,4.5586,4.5586,4.5586,4.5586,4.5586,4.5586,4.5586,4.5586,4.5624,4.5719,4.5825,4.5849,4.598,4.6095,4.6172,4.625,4.6289,4.6289,4.6289,4.6289,4.6289,4.6289,4.6289,4.6289,4.6289,4.6289,4.6289,4.6289,4.6289,4.6289,4.6289,4.6289,4.6289,4.6289,4.6289,4.6289,4.6289,4.6289,4.6289,4.6289,4.6289,4.6289,4.6289,4.6289,4.6289,4.6289,4.6289,4.6289,4.6289,4.6289,6.9009,6.8898,6.8752,6.8367,6.765,6.701,6.6696,6.6551,6.5683,6.5348,6.5841,6.5508,6.5638,6.6051,6.6384,6.6511,6.6555,6.6524,6.6412,6.632,6.615,6.5974,6.5897,6.5897,6.582,6.5551,6.5628,6.4782,6.3935,6.3628,6.3051,6.2544,6.2359,6.1965,6.131,6.1138,6.1026,6.0997,6.0896,6.0435,5.955,5.8627,5.778,5.6896,5.6203,5.5742,5.5651,5.5067,5.431,5.3324,5.242,5.153,5.0721,5.051,5.0394,4.9933,4.8971,4.7663,4.7199,4.6852,4.639,4.595,4.5719,4.5624,4.5701,4.5624,4.5586,4.5586,4.5586,4.5586,4.5586,4.5586,4.5586,4.5642,4.5719,4.5786,4.585,4.6047,4.6123,4.6172,4.6211,4.625,4.6289,4.6289,4.6289,4.6289,4.6289,4.6289,4.6289,4.6289,4.6289,4.6289,4.6289,4.6289,4.6289,4.6289,4.6289,4.6289,4.6289,4.6289,4.6289,4.6289,4.6289,4.6289,4.6289,4.6289,4.6289,4.6289,4.6289,4.6289,4.6289,4.6289,4.6289,4.6289,4.6328,6.8495,6.8862,6.8403,6.8054,6.7614,6.6809,6.6528,6.631,6.5661,6.535,6.5577,6.5612,6.5818,6.6224,6.6499,6.6671,6.6719,6.664,6.6523,6.6406,6.6205,6.6038,6.5936,6.5897,6.5897,6.5897,6.5859,6.5667,6.4859,6.4589,6.4205,6.2974,6.2781,6.2213,6.1204,6.0935,6.0896,6.0858,6.0742,6.0358,5.9627,5.9088,5.8396,5.7203,5.678,5.6494,5.6133,5.5962,5.5279,5.4372,5.3482,5.2512,5.1588,5.1029,5.0664,5.0587,5.0048,4.9202,4.8471,4.7892,4.716,4.6583,4.6334,4.6373,4.624,4.5893,4.5855,4.6317,4.5855,4.5663,4.5624,4.5586,4.5642,4.5719,4.5918,4.592,4.6019,4.6093,4.6211,4.6211,4.6211,4.625,4.6289,4.6289,4.6289,4.6289,4.6289,4.6289,4.6289,4.6289,4.6289,4.6289,4.6289,4.6289,4.6289,4.6289,4.6289,4.6289,4.6289,4.6289,4.6289,4.6289,4.6289,4.6289,4.6289,4.6289,4.6289,4.6289,4.6289,4.6289,4.6289,4.6367,4.6406,4.6367,4.6367,6.8054,6.8531,6.776,6.743,6.7266,6.6316,6.5911,6.5998,6.5492,6.5351,6.5565,6.582,6.6165,6.6397,6.6594,6.6758,6.6875,6.6719,6.6562,6.6406,6.6221,6.6112,6.5936,6.5897,6.5897,6.5897,6.5897,6.5782,6.582,6.5628,6.4859,6.3358,6.3205,6.232,6.1204,6.0819,6.0819,6.0819,6.0781,6.0473,5.9935,5.9627,5.8742,5.7901,5.731,5.6965,5.6498,5.6404,5.5965,5.5026,5.4406,5.3402,5.2183,5.1491,5.0991,5.0837,5.0433,5.024,4.9548,4.8913,4.8084,4.7468,4.6891,4.6642,4.6337,4.5953,4.597,4.674,4.6394,4.6047,4.5932,4.5988,4.6103,4.6259,4.6317,4.6271,4.6328,4.6523,4.6484,4.625,4.625,4.6289,4.6289,4.6289,4.6289,4.6289,4.6289,4.6289,4.6289,4.625,4.625,4.625,4.6289,4.6289,4.6289,4.6289,4.6289,4.6289,4.6289,4.6289,4.6289,4.6289,4.6289,4.6289,4.6289,4.6289,4.6289,4.6289,4.6289,4.6289,4.6328,4.6523,4.6562,4.6523,4.6445,6.7724,6.7724,6.6883,6.6589,6.6516,6.4911,6.4546,6.5005,6.4672,6.481,6.5366,6.5959,6.632,6.6452,6.668,6.6875,6.6914,6.6914,6.668,6.6484,6.6361,6.615,6.5974,6.5897,6.5897,6.5897,6.5897,6.5897,6.582,6.5705,6.4743,6.3551,6.332,6.2243,6.1281,6.0781,6.0781,6.0781,6.0781,6.0781,6.0396,5.9973,5.9242,5.8505,5.7783,5.7091,5.6464,5.6534,5.625,5.5312,5.4961,5.4216,5.2856,5.2223,5.1742,5.1087,5.0894,5.0741,5.0279,4.974,4.8933,4.8126,4.7432,4.6891,4.6663,4.5991,4.6106,4.6971,4.6855,4.6778,4.6796,4.6835,4.6737,4.7055,4.7109,4.707,4.7109,4.7148,4.7031,4.6484,4.6289,4.6289,4.6289,4.6289,4.6289,4.6289,4.6289,4.6284,4.6193,4.6172,4.6172,4.6172,4.625,4.6289,4.6289,4.6289,4.6289,4.6289,4.6289,4.6289,4.6289,4.6289,4.6289,4.6289,4.6289,4.6289,4.6289,4.6289,4.6289,4.6289,4.6367,4.6562,4.6914,4.7109,4.6875,6.6464,6.6843,6.5567,6.562,6.6366,6.4772,6.4373,6.4709,6.4546,6.4862,6.5608,6.6141,6.6397,6.6489,6.6719,6.6914,6.6875,6.6758,6.6611,6.6424,6.626,6.6097,6.5936,6.5897,6.5897,6.5897,6.5897,6.5897,6.5859,6.5551,6.4512,6.3628,6.3358,6.2243,6.1358,6.0781,6.0781,6.0781,6.0781,6.0781,6.0742,6.0627,6.0127,5.9419,5.8676,5.8012,5.739,5.6813,5.6406,5.5976,5.5469,5.4609,5.3779,5.3237,5.2396,5.1587,5.1395,5.1164,5.0741,5.0317,4.9798,4.8971,4.8202,4.7643,4.7489,4.7394,4.7625,4.7894,4.7509,4.7278,4.7681,4.7391,4.7212,4.7787,4.8047,4.7969,4.7891,4.7891,4.7383,4.6758,4.6445,4.6289,4.6289,4.6289,4.6289,4.6289,4.6289,4.627,4.6177,4.6125,4.6099,4.6119,4.6172,4.625,4.625,4.6289,4.6289,4.6289,4.6289,4.6406,4.6406,4.6289,4.6289,4.6289,4.6328,4.6289,4.6289,4.6289,4.6289,4.6289,4.6445,4.6641,4.707,4.75,4.7226,6.5322,6.5605,6.4583,6.4725,6.5573,6.4485,6.4197,6.4625,6.4649,6.5064,6.5936,6.623,6.6397,6.6489,6.6719,6.6875,6.6836,6.6708,6.6547,6.6367,6.6225,6.6024,6.5936,6.5897,6.5897,6.5897,6.5897,6.5897,6.5859,6.5282,6.4628,6.3974,6.332,6.232,6.1166,6.0781,6.0781,6.0781,6.0781,6.0781,6.0819,6.0858,6.0612,6.0012,5.9472,5.8707,5.7969,5.7305,5.6914,5.6445,5.5976,5.539,5.4801,5.4149,5.3186,5.2472,5.2049,5.1818,5.101,5.0625,5.0279,4.9375,4.8914,4.874,4.874,4.8471,4.8298,4.9009,4.8317,4.7989,4.8662,4.8431,4.8372,4.8984,4.9101,4.9062,4.8711,4.8555,4.7734,4.7031,4.6719,4.6328,4.6328,4.6328,4.6406,4.6367,4.6289,4.625,4.6142,4.6113,4.606,4.6068,4.6094,4.6133,4.6211,4.6289,4.6367,4.6289,4.6367,4.6601,4.6601,4.6445,4.6562,4.6797,4.6758,4.6406,4.6289,4.6289,4.6289,4.6289,4.6601,4.6992,4.6797,4.7148,4.7226,6.4635,6.4065,6.4001,6.4082,6.4244,6.3759,6.3935,6.4494,6.4915,6.5397,6.5897,6.6269,6.6397,6.6489,6.6735,6.6875,6.6836,6.6694,6.6499,6.636,6.6167,6.5999,6.5936,6.5897,6.5897,6.5897,6.5859,6.5859,6.5743,6.5513,6.5013,6.4089,6.3128,6.2243,6.0896,6.0781,6.0781,6.0781,6.0781,6.0781,6.0819,6.0958,6.0673,6.0351,6.0046,5.9355,5.8398,5.7812,5.7305,5.664,5.6484,5.5937,5.5169,5.5006,5.3954,5.2318,5.2856,5.2356,5.1029,5.0818,5.0356,4.9798,4.9452,4.9298,4.8568,4.8337,4.8702,4.9663,4.9298,4.9336,4.9605,4.9661,4.9717,4.9922,5.0078,4.9883,4.9531,4.9219,4.8476,4.7695,4.6875,4.6328,4.6328,4.6367,4.6484,4.6484,4.6328,4.6289,4.6328,4.63,4.6374,4.6189,4.6232,4.6523,4.6601,4.6445,4.6406,4.6367,4.6445,4.668,4.6719,4.6523,4.6758,4.7226,4.7109,4.6719,4.6484,4.6289,4.6289,4.6367,4.707,4.7344,4.7031,4.6914,4.7148,6.288,6.314,6.2652,6.2961,6.3686,6.3663,6.3885,6.4495,6.5235,6.5743,6.5936,6.6269,6.6397,6.6528,6.6719,6.6875,6.6836,6.6595,6.6418,6.6346,6.609,6.5974,6.5897,6.5897,6.5897,6.5897,6.5859,6.5551,6.5013,6.5128,6.4166,6.3089,6.2397,6.1396,6.0935,6.0781,6.0781,6.0781,6.0781,6.0781,6.0819,6.102,6.1079,6.0786,6.0533,5.9765,5.8711,5.8281,5.7461,5.6758,5.6601,5.6328,5.5854,5.5719,5.4821,5.3472,5.3587,5.3531,5.2473,5.1934,5.1145,5.0587,5.0144,5.0029,4.9836,4.9836,5.0087,5.0087,4.9913,5.0067,5.0491,5.0103,5.0117,5.0781,5.0859,5.0547,5.0234,4.9961,4.9453,4.8555,4.7734,4.7305,4.7148,4.7266,4.7305,4.7305,4.7226,4.707,4.7031,4.6953,4.6916,4.6577,4.6526,4.6909,4.707,4.7109,4.7109,4.7109,4.6953,4.6836,4.6758,4.6875,4.6875,4.7305,4.7187,4.7031,4.6601,4.6289,4.6289,4.6523,4.7031,4.7383,4.7148,4.7148,4.7422,6.1594,6.1946,6.2016,6.2608,6.3566,6.3787,6.4281,6.4945,6.5628,6.5897,6.5936,6.6192,6.632,6.6451,6.664,6.6875,6.6875,6.6555,6.6394,6.6357,6.6051,6.5936,6.5897,6.5897,6.5897,6.5897,6.5859,6.559,6.5205,6.4782,6.3743,6.2474,6.1527,6.1257,6.0973,6.0781,6.0781,6.0781,6.0781,6.0819,6.0935,6.1119,6.1306,6.1119,6.0742,5.9961,5.918,5.8359,5.7539,5.6914,5.6601,5.6562,5.6419,5.6092,5.5383,5.4515,5.378,5.3916,5.3454,5.2433,5.1836,5.178,5.1145,5.0894,5.0933,5.0779,5.0933,5.0914,5.0452,5.0605,5.0874,5.0469,5.0742,5.1367,5.125,5.0898,5.0781,5.0508,5.0117,4.9258,4.8672,4.8281,4.8086,4.8203,4.832,4.8242,4.8164,4.8008,4.7851,4.7773,4.7695,4.7392,4.7264,4.7711,4.7912,4.7969,4.7969,4.793,4.7734,4.7539,4.7851,4.8125,4.7734,4.7344,4.7383,4.7226,4.6601,4.6289,4.6289,4.6406,4.668,4.6953,4.7109,4.7226,4.7266,6.1043,6.0711,6.2112,6.3062,6.3676,6.4266,6.5009,6.5833,6.5897,6.5897,6.5897,6.6051,6.6179,6.6374,6.6536,6.668,6.6758,6.6523,6.6411,6.6298,6.6038,6.5936,6.5897,6.5897,6.5897,6.5897,6.582,6.5743,6.5667,6.4474,6.3243,6.2474,6.1848,6.1488,6.1127,6.0896,6.0858,6.0781,6.0781,6.0858,6.0973,6.1186,6.1323,6.1259,6.0937,6.0156,5.9336,5.8476,5.7578,5.6992,5.6601,5.6523,5.6402,5.628,5.5583,5.4824,5.3895,5.401,5.422,5.32,5.2933,5.2955,5.1896,5.1625,5.149,5.1395,5.1413,5.1433,5.1106,5.1123,5.1094,5.1172,5.1211,5.1406,5.1406,5.125,5.1172,5.0898,5.0508,4.9922,4.9375,4.9023,4.8945,4.9062,4.9219,4.957,4.9531,4.9336,4.9141,4.8828,4.8672,4.8428,4.8435,4.8653,4.8789,4.8867,4.8825,4.8766,4.8761,4.8672,4.9023,4.8906,4.8203,4.7773,4.7734,4.7461,4.6953,4.6523,4.6289,4.6406,4.6523,4.6562,4.6719,4.6641,4.6641,6.0534,6.0494,6.1548,6.2761,6.4229,6.5124,6.5618,6.5872,6.5897,6.5897,6.5936,6.6013,6.6121,6.6204,6.6492,6.6556,6.6541,6.6438,6.632,6.6174,6.6013,6.5936,6.5859,6.582,6.5859,6.582,6.5743,6.5436,6.4743,6.3705,6.3281,6.2897,6.1796,6.145,6.1358,6.1089,6.0935,6.0819,6.0819,6.0896,6.1032,6.1235,6.137,6.1352,6.119,6.0351,5.9336,5.8828,5.789,5.6875,5.664,5.6562,5.6534,5.6297,5.5849,5.544,5.478,5.4493,5.5126,5.4528,5.4072,5.4148,5.3282,5.257,5.2299,5.2011,5.1818,5.1819,5.152,5.1291,5.1367,5.1484,5.1445,5.1406,5.1523,5.168,5.1601,5.1367,5.1016,5.0664,5.0117,4.9883,4.9805,4.9844,5.0078,5.0625,5.082,5.0586,5.0312,4.9961,4.9687,4.9414,4.9453,4.9648,4.9687,4.9726,4.9687,4.9649,4.9648,4.9453,4.9219,4.8945,4.8398,4.8008,4.7734,4.7578,4.7344,4.6914,4.6328,4.6289,4.6367,4.6328,4.6289,4.6289,4.6289,6.0572,6.0974,6.1715,6.2975,6.4433,6.5467,6.5897,6.5897,6.5897,6.5897,6.5897,6.5974,6.6051,6.6136,6.6314,6.6385,6.6412,6.6312,6.62,6.6121,6.5859,6.559,6.5513,6.532,6.5051,6.5051,6.4936,6.4666,6.4128,6.3435,6.2897,6.2127,6.1243,6.1458,6.1458,6.1243,6.105,6.0973,6.0973,6.1012,6.1152,6.131,6.1462,6.1445,6.125,6.0195,5.9297,5.8906,5.7656,5.6758,5.664,5.6601,5.6558,5.6336,5.611,5.5724,5.5416,5.5301,5.5612,5.5186,5.5178,5.5087,5.4459,5.3623,5.3003,5.264,5.253,5.2412,5.1787,5.1328,5.1523,5.1641,5.1562,5.1445,5.1758,5.2109,5.1992,5.1836,5.1601,5.1328,5.1016,5.0781,5.0664,5.0664,5.0742,5.1055,5.1211,5.1133,5.0976,5.0781,5.0586,5.0391,5.0469,5.0625,5.0586,5.0508,5.0469,5.0469,5.0508,5.0234,4.9648,4.9375,4.9258,4.8476,4.7539,4.7344,4.7109,4.6719,4.6289,4.6289,4.6289,4.6289,4.6289,4.6289,4.6289,6.0606,6.1443,6.2427,6.3325,6.4369,6.5379,6.5897,6.5897,6.5897,6.5897,6.5897,6.5897,6.5974,6.6063,6.6157,6.6244,6.6128,6.5989,6.5797,6.5897,6.5397,6.5013,6.4628,6.4474,6.4243,6.3628,6.3474,6.3858,6.4012,6.3358,6.2243,6.1112,6.1147,6.1327,6.1348,6.135,6.1228,6.1228,6.1189,6.1189,6.1381,6.152,6.1523,6.1445,6.0586,5.9492,5.8984,5.8047,5.6758,5.6758,5.664,5.664,5.6484,5.6388,5.6133,5.6015,5.5801,5.5878,5.5882,5.5608,5.5781,5.5586,5.5024,5.4402,5.3865,5.2969,5.2695,5.2695,5.2146,5.2109,5.2305,5.2539,5.2578,5.2539,5.2734,5.2812,5.2656,5.2344,5.1953,5.1641,5.1289,5.1094,5.1094,5.1055,5.1016,5.1328,5.1406,5.1406,5.1367,5.1289,5.1211,5.1055,5.1055,5.1094,5.1133,5.1055,5.1172,5.1211,5.1172,5.1094,5.0586,5.0398,5.0273,4.875,4.707,4.6875,4.6641,4.6406,4.6289,4.6289,4.6289,4.6289,4.6289,4.6328,4.6289,5.9095,5.9998,6.215,6.3185,6.3614,6.5217,6.5859,6.5897,6.5897,6.582,6.5859,6.5859,6.5859,6.5859,6.582,6.5874,6.5774,6.5296,6.5076,6.4782,6.4411,6.4128,6.3666,6.3614,6.3397,6.3397,6.3281,6.3051,6.282,6.2474,6.2074,6.1119,6.1118,6.1196,6.1337,6.1348,6.1383,6.1443,6.142,6.1395,6.1481,6.1523,6.1523,6.1562,6.0976,6.0469,5.9922,5.9062,5.8203,5.7734,5.6914,5.664,5.6445,5.6406,5.6308,5.6193,5.6133,5.6148,5.6188,5.6094,5.6211,5.6094,5.5664,5.5234,5.4531,5.3359,5.2734,5.2773,5.2812,5.2891,5.3047,5.3359,5.3594,5.3633,5.375,5.3594,5.3359,5.2812,5.2305,5.1875,5.1484,5.1406,5.1406,5.1406,5.1406,5.1406,5.1406,5.1406,5.1406,5.1328,5.1328,5.125,5.1289,5.1328,5.1406,5.1406,5.1406,5.1406,5.1289,5.1328,5.1367,5.0469,4.9492,4.7891,4.6523,4.6484,4.6445,4.6367,4.6289,4.6289,4.6289,4.6289,4.6367,4.6406,4.6328,5.8729,5.9947,6.1752,6.2554,6.286,6.4126,6.4757,6.4743,6.4743,6.4743,6.482,6.5089,6.532,6.5166,6.5051,6.4936,6.4743,6.432,6.4128,6.3834,6.3488,6.3166,6.2935,6.2728,6.2358,6.2358,6.2627,6.2397,6.1743,6.2012,6.1882,6.1246,6.1186,6.1268,6.1445,6.1484,6.1479,6.1582,6.1566,6.1582,6.1562,6.1601,6.1601,6.168,6.1289,6.0898,6.0234,5.9375,5.8476,5.7773,5.707,5.668,5.6523,5.6445,5.6367,5.6297,5.6256,5.6302,5.6377,5.6445,5.6523,5.6328,5.5781,5.5234,5.5039,5.3945,5.3047,5.3008,5.2773,5.2812,5.3281,5.3594,5.3867,5.3984,5.4648,5.4961,5.4023,5.3047,5.2344,5.1601,5.1406,5.1406,5.1406,5.1406,5.1406,5.1406,5.1406,5.1523,5.1484,5.1562,5.1523,5.1445,5.1445,5.1406,5.1406,5.1406,5.1406,5.1406,5.1406,5.1133,5.082,4.9726,4.8516,4.7461,4.668,4.6367,4.6328,4.6289,4.6289,4.6289,4.6289,4.6289,4.6406,4.6601,4.6797,5.8736,6.0188,6.1298,6.1744,6.1919,6.2911,6.3372,6.3358,6.332,6.3358,6.3474,6.4051,6.4282,6.4128,6.3743,6.3474,6.332,6.332,6.3205,6.3128,6.2897,6.2358,6.205,6.1882,6.155,6.1473,6.1666,6.1435,6.1012,6.1473,6.1697,6.1368,6.1421,6.1562,6.168,6.1719,6.168,6.1677,6.1671,6.169,6.1719,6.1719,6.168,6.1406,6.1015,6.0625,6.0078,5.9219,5.8281,5.7695,5.7226,5.6758,5.6562,5.6523,5.6484,5.6445,5.6425,5.6427,5.647,5.6523,5.6562,5.6406,5.5703,5.5273,5.5117,5.4531,5.3672,5.332,5.3047,5.3242,5.3711,5.418,5.4453,5.4648,5.5469,5.5742,5.4453,5.3281,5.25,5.1641,5.1406,5.1406,5.1406,5.1406,5.1484,5.1484,5.1562,5.1641,5.1758,5.1914,5.1953,5.1758,5.1601,5.1523,5.1406,5.1406,5.1406,5.1406,5.1328,5.0898,5.0391,4.9766,4.8906,4.7773,4.7109,4.6758,4.6406,4.6289,4.6289,4.6406,4.6289,4.6367,4.6836,4.707,4.7461,5.7637,5.8584,6.0204,6.0906,6.1155,6.259,6.3291,6.3291,6.3214,6.3291,6.3051,6.2704,6.2858,6.3551,6.3435,6.3166,6.282,6.2589,6.2373,6.2296,6.1858,6.1396,6.1204,6.1281,6.1012,6.0973,6.105,6.0896,6.0819,6.1127,6.1328,6.1285,6.1434,6.1562,6.168,6.1719,6.1719,6.1719,6.1719,6.1719,6.1719,6.1719,6.1719,6.1601,6.1562,6.1484,6.1015,5.9805,5.918,5.8515,5.7539,5.6836,5.6601,5.6562,5.6562,5.6523,5.6523,5.6523,5.6562,5.6562,5.6601,5.6562,5.5937,5.5508,5.5195,5.4765,5.4219,5.4101,5.4062,5.4492,5.5,5.5547,5.5898,5.5781,5.6211,5.5312,5.418,5.3555,5.293,5.207,5.1406,5.1406,5.1406,5.1523,5.1797,5.1914,5.2226,5.2305,5.2461,5.2461,5.2344,5.2031,5.168,5.1562,5.1406,5.1406,5.1406,5.1406,5.1289,5.0898,5.0547,5.0273,4.9375,4.8203,4.7617,4.7266,4.6914,4.6836,4.6562,4.6601,4.6406,4.6445,4.6953,4.75,4.7891]},{"header":{"parameterUnit":"m.s-1","parameterCategory":1,"la1":31.0,"la2":29.5877,"lo1":-88.7671,"lo2":-86.6584,"dy":0.0162,"dx":0.0185,"nx":115,"ny":88,"refTime":"2024-03-17T00:00:00:Z","depth":0,"parameterNumber":3,"parameterNumberName":"V-component_of_WINDS"},"data":[0.0,0.0,0.0,0.0,0.0,0.0,0.0,0.0,0.0,0.0,0.0,0.0,0.0,0.0,0.0,0.0,0.0,0.0,0.0,0.0,0.0,0.0,0.0,0.0,0.0,0.0,0.0,0.0,0.0,0.0,0.0,0.0,0.0,0.0,0.0,0.0,0.0,0.0,0.0,0.0,0.0,0.0,0.0,0.0,0.0,0.0,0.0,0.0,0.0,0.0,0.0,0.0,0.0,0.0,0.0,0.0,0.0,0.0,0.0,0.0,0.0,0.0,0.0,0.0,0.0,0.0,0.0,0.0,0.0,0.0,0.0,0.0,0.0,0.0,0.0,0.0,0.0,0.0,0.0,0.0,0.0,0.0,0.0,0.0,0.0,0.0,0.0,0.0,0.0,0.0,0.0,0.0,0.0,0.0,0.0,0.0,0.0,0.0,0.0,0.0,0.0,0.0,0.0,0.0,0.0,0.0,0.0,0.0,0.0,0.0,0.0,0.0,0.0,0.0,0.0,0.0,0.0,0.0,0.0,0.0,0.0,0.0,0.0,0.0,0.0,0.0,0.0,0.0,0.0,0.0,0.0,0.0,0.0,0.0,0.0,0.0,0.0,0.0,0.0,0.0,0.0,0.0,0.0,0.0,0.0,0.0,0.0,0.0,0.0,0.0,0.0,0.0,0.0,0.0,0.0,0.0,0.0,0.0,0.0,0.0,0.0,0.0,0.0,0.0,0.0,0.0,0.0,0.0,0.0,0.0,0.0,0.0,0.0,0.0,0.0,0.0,0.0,0.0,0.0,0.0,0.0,0.0,0.0,0.0,0.0,0.0,0.0,0.0,0.0,0.0,0.0,0.0,0.0,0.0,0.0,0.0,0.0,0.0,0.0,0.0,0.0,0.0,0.0,0.0,0.0,0.0,0.0,0.0,0.0,0.0,0.0,0.0,0.0,0.0,0.0,0.0,0.0,0.0,0.0,0.0,0.0,0.0,0.0,0.0,0.0,0.0,0.0,0.0,0.0,0.0,0.0,0.0,0.0,0.0,0.0,0.0,0.0,0.0,0.0,0.0,0.0,0.0,0.0,0.0,0.0,0.0,0.0,0.0,0.0,0.0,0.0,0.0,0.0,0.0,0.0,0.0,0.0,0.0,0.0,0.0,0.0,0.0,0.0,0.0,0.0,0.0,0.0,0.0,0.0,0.0,0.0,0.0,0.0,0.0,0.0,0.0,0.0,0.0,0.0,0.0,0.0,0.0,0.0,0.0,0.0,0.0,0.0,0.0,0.0,0.0,0.0,0.0,0.0,0.0,0.0,0.0,0.0,0.0,0.0,0.0,0.0,0.0,0.0,0.0,0.0,0.0,0.0,0.0,0.0,0.0,0.0,0.0,0.0,0.0,0.0,0.0,0.0,0.0,0.0,0.0,0.0,0.0,0.0,0.0,0.0,0.0,0.0,0.0,0.0,0.0,0.0,0.0,0.0,0.0,0.0,0.0,0.0,0.0,0.0,0.0,0.0,0.0,0.0,0.0,0.0,0.0,0.0,0.0,0.0,0.0,0.0,0.0,0.0,0.0,0.0,0.0,0.0,0.0,0.0,0.0,0.0,0.0,0.0,0.0,0.0,0.0,0.0,0.0,0.0,0.0,0.0,0.0,0.0,0.0,0.0,0.0,0.0,0.0,0.0,0.0,0.0,0.0,0.0,0.0,0.0,0.0,0.0,0.0,0.0,0.0,0.0,0.0,0.0,0.0,0.0,0.0,0.0,0.0,0.0,0.0,0.0,0.0,0.0,0.0,0.0,0.0,0.0,0.0,0.0,0.0,0.0,0.0,0.0,0.0,0.0,0.0,0.0,0.0,0.0,0.0,0.0,0.0,0.0,0.0,0.0,0.0,0.0,0.0,0.0,0.0,0.0,0.0,0.0,0.0,0.0,0.0,0.0,0.0,0.0,0.0,0.0,0.0,0.0,0.0,0.0,0.0,0.0,0.0,0.0,0.0,0.0,0.0,0.0,0.0,0.0,0.0,0.0,0.0,0.0,0.0,0.0,0.0,0.0,0.0,0.0,0.0,0.0,0.0,0.0,0.0,0.0,0.0,0.0,0.0,0.0,0.0,0.0,0.0,0.0,0.0,0.0,0.0,0.0,0.0,0.0,0.0,0.0,0.0,0.0,0.0,0.0,0.0,0.0,0.0,0.0,0.0,0.0,0.0,0.0,0.0,0.0,0.0,0.0,0.0,0.0,0.0,0.0,0.0,0.0,0.0,0.0,0.0,0.0,0.0,0.0,0.0,0.0,0.0,0.0,0.0,0.0,0.0,0.0,0.0,0.0,0.0,0.0,0.0,0.0,0.0,0.0,0.0,0.0,0.0,0.0,0.0,0.0,0.0,0.0,0.0,0.0,0.0,0.0,0.0,0.0,0.0,0.0,0.0,0.0,0.0,0.0,0.0,0.0,0.0,0.0,0.0,0.0,0.0,0.0,0.0,0.0,0.0,0.0,0.0,0.0,0.0,0.0,0.0,0.0,0.0,0.0,0.0,0.0,0.0,0.0,0.0,0.0,0.0,0.0,0.0,0.0,0.0,0.0,0.0,0.0,0.0,0.0,0.0,0.0,0.0,0.0,0.0,0.0,0.0,0.0,0.0,0.0,0.0,0.0,0.0,0.0,0.0,0.0,0.0,0.0,0.0,0.0,0.0,0.0,0.0,0.0,0.0,0.0,0.0,0.0,0.0,0.0,0.0,0.0,0.0,0.0,0.0,0.0,0.0,0.0,0.0,0.0,0.0,0.0,0.0,0.0,0.0,0.0,0.0,0.0,0.0,0.0,0.0,0.0,0.0,0.0,0.0,0.0,0.0,0.0,0.0,0.0,0.0,0.0,0.0,0.0,0.0,0.0,0.0,0.0,0.0,0.0,0.0,0.0,0.0,0.0,0.0,0.0,0.0,0.0,0.0,0.0,0.0,0.0,0.0,0.0,0.0,0.0,0.0,0.0,0.0,0.0,0.0,0.0,0.0,0.0,0.0,0.0,0.0,0.0,0.0,0.0,0.0,0.0,0.0,0.0,0.0,0.0,0.0,0.0,0.0,0.0,0.0,0.0,0.0,0.0,0.0,0.0,0.0,0.0,0.0,0.0,0.0,0.0,0.0,0.0,0.0,0.0,0.0,0.0,0.0,0.0,0.0,0.0,0.0,0.0,0.0,0.0,0.0,0.0,0.0,0.0,0.0,0.0,0.0,0.0,0.0,0.0,0.0,0.0,0.0,0.0,0.0,0.0,0.0,0.0,0.0,0.0,0.0,0.0,0.0,0.0,0.0,0.0,0.0,0.0,0.0,0.0,0.0,0.0,0.0,0.0,0.0,0.0,0.0,0.0,0.0,0.0,0.0,0.0,0.0,0.0,0.0,0.0,0.0,0.0,0.0,0.0,0.0,0.0,0.0,0.0,0.0,0.0,0.0,0.0,0.0,0.0,0.0,0.0,0.0,0.0,0.0,0.0,0.0,0.0,0.0,0.0,0.0,0.0,0.0,0.0,0.0,0.0,0.0,0.0,0.0,0.0,0.0,0.0,0.0,0.0,0.0,0.0,0.0,0.0,0.0,0.0,0.0,0.0,0.0,0.0,0.0,0.0,0.0,0.0,0.0,0.0,0.0,0.0,0.0,0.0,0.0,0.0,0.0,0.0,0.0,0.0,0.0,0.0,0.0,0.0,0.0,0.0,0.0,0.0,0.0,0.0,0.0,0.0,0.0,0.0,0.0,0.0,0.0,0.0,0.0,0.0,0.0,0.0,0.0,0.0,0.0,0.0,0.0,0.0,0.0,0.0,0.0,0.0,0.0,0.0,0.0,0.0,0.0,0.0,0.0,0.0,0.0,0.0,0.0,0.0,0.0,0.0,0.0,0.0,0.0,0.0,0.0,0.0,0.0,0.0,0.0,0.0,0.0,0.0,0.0,0.0,0.0,0.0,0.0,0.0,0.0,0.0,0.0,0.0,0.0,0.0,0.0,0.0,0.0,0.0,0.0,0.0,0.0,0.0,0.0,0.0,0.0,0.0,0.0,0.0,0.0,0.0,0.0,0.0,0.0,0.0,0.0,0.0,0.0,0.0,0.0,0.0,0.0,0.0,0.0,0.0,0.0,0.0,0.0,0.0,0.0,0.0,0.0,0.0,0.0,0.0,0.0,0.0,0.0,0.0,0.0,0.0,0.0,0.0,0.0,0.0,0.0,0.0,0.0,0.0,0.0,0.0,0.0,0.0,0.0,0.0,0.0,0.0,0.0,0.0,0.0,0.0,0.0,0.0,0.0,0.0,0.0,0.0,0.0,0.0,0.0,0.0,0.0,0.0,0.0,0.0,0.0,0.0,0.0,0.0,0.0,0.0,0.0,0.0,0.0,0.0,0.0,0.0,0.0,0.0,0.0,0.0,0.0,0.0,0.0,0.0,0.0,0.0,0.0,0.0,0.0,0.0,0.0,0.0,0.0,0.0,0.0,0.0,0.0,0.0,0.0,0.0,0.0,0.0,0.0,0.0,0.0,0.0,0.0,0.0,0.0,0.0,0.0,0.0,0.0,0.0,0.0,0.0,0.0,0.0,0.0,0.0,0.0,0.0,0.0,0.0,0.0,0.0,0.0,0.0,0.0,0.0,0.0,0.0,0.0,0.0,0.0,0.0,0.0,0.0,0.0,0.0,0.0,0.0,0.0,0.0,0.0,0.0,0.0,0.0,0.0,0.0,0.0,0.0,0.0,0.0,0.0,0.0,0.0,0.0,0.0,0.0,0.0,0.0,0.0,0.0,0.0,0.0,0.0,0.0,0.0,0.0,0.0,0.0,0.0,0.0,0.0,0.0,0.0,0.0,0.0,0.0,0.0,0.0,0.0,0.0,0.0,0.0,0.0,0.0,0.0,0.0,0.0,0.0,0.0,0.0,0.0,0.0,0.0,0.0,0.0,0.0,0.0,0.0,0.0,0.0,0.0,0.0,0.0,0.0,0.0,0.0,0.0,0.0,0.0,0.0,0.0,0.0,0.0,0.0,0.0,0.0,0.0,0.0,0.0,0.0,0.0,0.0,0.0,0.0,0.0,0.0,0.0,0.0,0.0,0.0,0.0,0.0,0.0,0.0,0.0,0.0,0.0,0.0,0.0,0.0,0.0,0.0,0.0,0.0,0.0,0.0,0.0,0.0,0.0,0.0,0.0,0.0,0.0,0.0,0.0,0.0,0.0,0.0,0.0,0.0,0.0,0.0,0.0,0.0,0.0,0.0,0.0,0.0,0.0,0.0,0.0,0.0,0.0,0.0,0.0,0.0,0.0,0.0,0.0,0.0,0.0,0.0,0.0,0.0,0.0,0.0,0.0,0.0,0.0,0.0,0.0,0.0,0.0,0.0,0.0,0.0,0.0,0.0,0.0,0.0,0.0,0.0,0.0,0.0,0.0,0.0,0.0,0.0,0.0,0.0,0.0,0.0,0.0,0.0,0.0,0.0,0.0,0.0,0.0,0.0,0.0,0.0,0.0,0.0,0.0,0.0,0.0,0.0,0.0,0.0,0.0,0.0,0.0,0.0,0.0,0.0,0.0,0.0,0.0,0.0,0.0,0.0,0.0,0.0,0.0,0.0,0.0,0.0,0.0,0.0,0.0,0.0,0.0,0.0,0.0,0.0,0.0,0.0,0.0,0.0,0.0,0.0,0.0,0.0,0.0,0.0,0.0,0.0,0.0,0.0,0.0,0.0,0.0,0.0,0.0,0.0,0.0,0.0,0.0,0.0,0.0,0.0,0.0,0.0,0.0,0.0,0.0,0.0,0.0,0.0,0.0,0.0,0.0,0.0,0.0,0.0,0.0,0.0,0.0,0.0,0.0,0.0,0.0,0.0,0.0,0.0,0.0,0.0,0.0,0.0,0.0,0.0,0.0,0.0,0.0,0.0,0.0,0.0,0.0,0.0,0.0,0.0,0.0,0.0,0.0,0.0,0.0,0.0,0.0,0.0,0.0,0.0,0.0,0.0,0.0,0.0,0.0,0.0,0.0,0.0,0.0,0.0,0.0,0.0,0.0,0.0,0.0,0.0,0.0,0.0,0.0,0.0,0.0,0.0,0.0,0.0,0.0,0.0,0.0,0.0,0.0,0.0,0.0,0.0,0.0,0.0,0.0,0.0,0.0,0.0,0.0,0.0,0.0,0.0,0.0,0.0,0.0,0.0,0.0,0.0,0.0,0.0,0.0,0.0,0.0,0.0,0.0,0.0,0.0,0.0,0.0,0.0,0.0,0.0,0.0,0.0,0.0,0.0,0.0,0.0,0.0,0.0,0.0,0.0,0.0,0.0,0.0,0.0,0.0,0.0,0.0,0.0,0.0,0.0,0.0,0.0,0.0,0.0,0.0,0.0,0.0,0.0,0.0,0.0,0.0,0.0,0.0,0.0,0.0,0.0,0.0,0.0,0.0,0.0,0.0,0.0,0.0,0.0,0.0,0.0,0.0,0.0,0.0,0.0,0.0,0.0,0.0,0.0,0.0,0.0,0.0,0.0,0.0,0.0,0.0,0.0,0.0,0.0,0.0,0.0,0.0,0.0,0.0,0.0,0.0,0.0,0.0,0.0,0.0,0.0,0.0,0.0,0.0,0.0,0.0,0.0,0.0,0.0,0.0,0.0,0.0,0.0,0.0,0.0,0.0,0.0,0.0,0.0,0.0,0.0,0.0,0.0,0.0,0.0,0.0,0.0,0.0,0.0,0.0,0.0,0.0,0.0,0.0,0.0,0.0,0.0,0.0,0.0,0.0,0.0,0.0,0.0,0.0,0.2338,0.0524,0.0,0.0,0.0,0.0,0.0,0.0,0.0,0.0,0.0,0.0,0.0,0.0,0.0,0.0,0.0,0.0,0.0,0.0,0.0,0.0,0.0,0.0,0.0,0.0,0.0,0.0,0.0,0.0,0.0,0.0,0.0,0.0,0.0,0.0,0.0,0.0,0.0,0.0,0.0,0.0,0.0,0.0,0.0,0.0,0.0,0.0,0.0,0.0,0.0,0.0,0.0,0.0,0.0,0.0,0.0,0.0,0.0,0.0,0.0,0.0,0.0,0.0,0.0,0.0,0.0,0.0,0.0,0.0,0.0,0.0,0.0,0.0,0.0,0.0,0.0,0.0,0.0,0.0,0.0,0.0,0.0,0.0,0.0,0.0,0.0,0.0,0.0,0.0,0.0,0.0,0.0,0.0,0.0,0.0,0.0,0.0,0.0,0.0,0.0,0.0,0.0,0.0,0.0,0.0,0.0,0.0,0.0,0.0,0.0,0.0,0.0,0.0,0.5347,0.3545,0.1715,0.0,0.0,0.0,0.0,0.0,0.0,0.0,0.0,0.0,0.0,0.0,0.0,0.0,0.0,0.0,0.0,0.0,0.0,0.0,0.0,0.0,0.0,0.0,0.0,0.0,0.0,0.0,0.0,0.0,0.0,0.0,0.0,0.0,0.0,0.0,0.0,0.0,0.0,0.0,0.0,0.0,0.0,0.0,0.0,0.0,0.0,0.0,0.0,0.0,0.0,0.0,0.0,0.0,0.0,0.0,0.0,0.0,0.0,0.0,0.0,0.0,0.0,0.0,0.0,0.0,0.0,0.0,0.0,0.0,0.0,0.0,0.0,0.0,0.0,0.0,0.0,0.0,0.0,0.0,0.0,0.0,0.0,0.0,0.0,0.0,0.0,0.0,0.0,0.0,0.0,0.0,0.0,0.0,0.0,0.0,0.0,0.0,0.0,0.0,0.0,0.0,0.0,0.0,0.0,0.0,0.0,0.0,0.0,0.0,0.0,0.0,0.0,0.5267,0.2478,0.0622,0.0,0.0,0.0,0.0,0.0,0.0,0.0,0.0,0.0,0.0,0.0,0.0,0.0,0.0,0.0,0.0,0.0,0.0,0.0,0.0,0.0,0.0,0.0,0.0,0.0,0.0,0.0,0.0,0.0,0.0,0.0,0.0,0.0,0.0,0.0,0.0,0.0,0.0,0.0,0.0,0.0,0.0,0.0,0.0,0.0,0.0,0.0,0.0,0.0,0.0,0.0,0.0,0.0,0.0,0.0,0.0,0.0,0.0,0.0,0.0,0.0,0.0,0.0,0.0,0.0,0.0,0.0,0.0,0.0,0.0,0.0,0.0,0.0,0.0,0.0,0.0,0.0,0.0,0.0,0.0,0.0,0.0,0.0,0.0,0.0,0.0,0.0,0.0,0.0,0.0,0.0,0.0,0.0,0.0,0.0,0.0,0.0,0.0,0.0,0.0,0.0,0.0,0.0,0.0,0.0,0.0,0.0,0.0,0.0,0.0,0.0,0.0,0.5259,0.0,0.0,0.0,0.0,0.0,0.0,0.0,0.0,0.0,0.0,0.0,0.0,0.0,0.0,0.0,0.0,0.0,0.0,0.0,0.0,0.0,0.0,0.0,0.0,0.0,0.0,0.0,0.0,0.0,0.0,0.0,0.0,0.0,0.0,0.0,0.0,0.0,0.0,0.0,0.0,0.0,0.0,0.0,0.0,0.0,0.0,0.0,0.0,0.0,0.0,0.0,0.0,0.0,0.0,0.0,0.0,0.0,0.0,0.0,0.0,0.0,0.0,0.0,0.0,0.0,0.0,0.0,0.0,0.0,0.0,0.0,0.0,0.0,0.0,0.0,0.0,0.0,0.0,0.0,0.0,0.0,0.0,0.0,0.0,0.0,0.0,0.0,0.0,0.0,0.0,0.0,0.0,0.0,0.0,0.0,0.0,0.0,0.0,0.0,0.0,0.0,0.0,0.0,0.0,0.0,0.0,0.0,0.0,0.0,0.0,0.0,0.0,0.0,0.5325,0.5261,0.182,0.0,0.0,0.0,0.0,0.0,0.0,0.0,0.0,0.0,0.0,0.0,0.0,0.0,0.0,0.0,0.0,0.0,0.0,0.0,0.0,0.0,0.0,0.0,0.0,0.0,0.0,0.0,0.0,0.0,0.0,0.0,0.0,0.0,0.0,0.0,0.0,0.0,0.0,0.0,0.0,0.0,0.0,0.0,0.0,0.0,0.0,0.0,0.0,0.0,0.0,0.0,0.0,0.0,0.0,0.0,0.0,0.0,0.0,0.0,0.0,0.0,0.0,0.0,0.0,0.0,0.0,0.0,0.0,0.0,0.0,0.0,0.0,0.0,0.0,0.0,0.0,0.0,0.0,0.0,0.0,0.0,0.0,0.0,0.0,0.0,0.0,0.0,0.0,0.0,0.0,0.0,0.0,0.0,0.0,0.0,0.0,0.0,0.0,0.0,0.0,0.0,0.0,0.0,0.0,0.0,0.0,0.0,0.0,0.0,0.0,0.0,0.0,0.0,0.5312,0.1856,0.0,0.0,0.0,0.0,0.0,0.0,0.0,0.0,0.0,0.0,0.0,0.0,0.0,0.0,0.0,0.0,0.0,0.0,0.0,0.0,0.0,0.0,0.0,0.0,0.0,0.0,0.0,0.0,0.0,0.0,0.0,0.0,0.0,0.0,0.0,0.0,0.0,0.0,0.0,0.0,0.0,0.0,0.0,0.0,0.0,0.0,0.0,0.0,0.0,0.0,0.0,0.0,0.0,0.0,0.0,0.0,0.0,0.0,0.0,0.0,0.0,0.0,0.0,0.0,0.0,0.0,0.0,0.0,0.0,0.0,0.0,0.0,0.0,0.0,0.0,0.0,0.0,0.0,0.0,0.0,0.0,0.0,0.0,0.0,0.0,0.0,0.0,0.0,0.0,0.0,0.0,0.0,0.0,0.0,0.0,0.0,0.0,0.0,0.0,0.0,0.0,0.0,0.0,0.0,0.0,0.0,0.0,0.0,0.0,0.0,0.0,0.0,0.0,0.3294,0.1138,0.0,0.0,0.0,0.0,0.0,0.0,0.0,0.0,0.0,0.0,0.0,0.0,0.0,0.0,0.0,0.0,0.0,0.0,0.0,0.0,0.0,0.0,0.0,0.0,0.0,0.0,0.0,0.0,0.0,0.0,0.0,0.0,0.0,0.0,0.0,0.0,0.0,0.0,0.0,0.0,0.0,0.0,0.0,0.0,0.0,0.0,0.0,0.0,0.0,0.0,0.0,0.0,0.0,0.0,0.0,0.0,0.0,0.0,0.0,0.0,0.0,0.0,0.0,0.0,0.0,0.0,0.0,0.0,0.0,0.0,0.0,0.0,0.0,0.0,0.0,0.0,0.0,0.0,0.0,0.0,0.0,0.0,0.0,0.0,0.0,0.0,0.0,0.0,0.0,0.0,0.0,0.0,0.0,0.0,0.0,0.0,0.0,0.0,0.0,0.0,0.0,0.0,0.0,0.0,0.0,0.0,0.0,0.0,0.0,0.0,0.0,0.0,0.0,0.0,0.0,0.0,0.0,0.0,0.0,0.0,0.0,0.0,0.0,0.0,0.0,0.0,0.0,0.0,0.0,0.0,0.0,0.0,0.0,0.0,0.0,0.0,0.0,0.0,0.0,0.0,0.0,0.0,0.0,0.0,0.0,0.0,0.0,0.0,0.0,0.0,0.0,0.0,0.0,0.0,0.0,0.0,0.0,0.0,0.0,0.0,0.0,0.0,0.0,0.0,0.0,0.0,0.0,0.0,0.0,0.0,0.0,0.0,0.0,0.0,0.0,0.0,0.0,0.0,0.0,0.0,0.0,0.0,0.0,0.0,0.0,0.0,0.0,0.0,0.0,0.0,0.0,0.0,0.0,0.0,0.0,0.0,0.0,0.0,0.0,0.0,0.0,0.0,0.0,0.0,0.0,0.0,0.0,0.0,0.0,0.0,0.0,0.0,0.0,0.0,0.0,0.0,0.0,0.0,0.0,0.0,0.0,0.0,0.0,0.0,0.0,0.0,0.0,0.0,0.0,0.0,0.0,0.0,0.0,0.0,0.0,0.0,0.0,0.0,0.0,0.0,0.0,0.0,0.0,0.0,0.0,0.0,0.0,0.0,0.0,0.0,0.0,0.0,0.0,0.0,0.0,0.0,0.0,0.0,0.0,0.0,0.0,0.0,0.0,0.0,0.0,0.0,0.0,0.0,0.0,0.0,0.0,0.0,0.0,0.0,0.0,0.0,0.0,0.0,0.0,0.0,0.0,0.0,0.0,0.0,0.0,0.0,0.0,0.0,0.0,0.0,0.0,0.0,0.0,0.0,0.0,0.0,0.0,0.0,0.0,0.0,0.0,0.0,0.0,0.0,0.0,0.0,0.0,0.0,0.0,0.0,0.0,0.0,0.0,0.0,0.0,0.0,0.0,0.0,0.0,0.0,0.0,0.0,0.0,0.0,0.0,0.0,0.0,0.0,0.0,0.0,0.0,0.0,0.0,0.0,0.0,0.0,0.0,0.0,0.0,0.0,0.0,0.0,0.5709,0.384,0.1389,0.0,0.0,0.2956,0.3021,0.0,0.0,0.0,0.0,0.0,0.0,0.0,0.0,0.0,0.0,0.0,0.0,0.0,0.0,0.0,0.0,0.0,0.0,0.0,0.0,0.0,0.0,0.0,0.0,0.0,0.0,0.0,0.0,0.0,0.0,0.0,0.0,0.0,0.0,0.0,0.0,0.0,0.0,0.0,0.0,0.0,0.0,0.0,0.0,0.0,0.0,0.0,0.0,0.0,0.0,0.0,0.0,0.0,0.0,0.0,0.0,0.0,0.0,0.0,0.0,0.0,0.0,0.0,0.0,0.0,0.0,0.0,0.0,0.0,0.0,0.0,0.0,0.0,0.0,0.0,0.0,0.0,0.0,0.0,0.0,0.0,0.0,0.0,0.0,0.0,0.0,0.0,0.0,0.0,0.0,0.0,0.0,0.0,0.0,0.0,0.0,0.0,0.0,0.0,0.0,0.0,0.0,0.0,0.0,0.0,0.0,0.0,0.0,0.6894,0.9203,0.3937,0.0,0.0247,0.6184,0.7,0.0,0.0,0.0,0.0,0.0,0.0,0.0,0.0,0.0,0.0,0.0,0.0,0.0,0.0,0.0,0.0,0.0,0.0,0.0,0.0,0.0,0.0,0.0,0.0,0.0,0.0,0.0,0.0,0.0,0.0,0.0,0.0,0.0,0.0,0.0,0.0,0.0,0.0,0.0,0.0,0.0,0.0,0.0,0.0,0.0,0.0,0.0,0.0,0.0,0.0,0.0,0.0,0.0,0.0,0.0,0.0,0.0,0.0,0.0,0.0,0.0,0.0,0.0,0.0,0.0,0.0,0.0,0.0,0.0,0.0,0.0,0.0,0.0,0.0,0.0,0.0,0.0,0.0,0.0,0.0,0.0,0.0,0.0,0.0,0.0,0.0,0.0,0.0,0.0,0.0,0.0,0.0,0.0,0.0,0.0,0.0,0.0,0.0,0.0,0.0,0.0,0.0,0.0,0.0,0.0,0.0,0.0,0.0,0.8591,1.0285,0.9099,0.5754,0.0126,0.1497,0.4247,0.0,0.0,0.0,0.0,0.0,0.0,0.0,0.0,0.0,0.0,0.0,0.0,0.0,0.0,0.0,0.0,0.0,0.0,0.0,0.0,0.0,0.0,0.0,0.0,0.0,0.0,0.0,0.0,0.0,0.0,0.0,0.0,0.0,0.0,0.0,0.0,0.0,0.0,0.0,0.0,0.0,0.0,0.0,0.0,0.0,0.0,0.0,0.0,0.0,0.0,0.0,0.0,0.0,0.0,0.0,0.0,0.0,0.0,0.0,0.0,0.0,0.0,0.0,0.0,0.0,0.0,0.0,0.0,0.0,0.0,0.0,0.0,0.0,0.0,0.0,0.0,0.0,0.0,0.0,0.0,0.0,0.0,0.0,0.0,0.0,0.0,0.0,0.0,0.0,0.0,0.0,0.0,0.0,0.0,0.0,0.0,0.0,0.0,0.0,0.0,0.0,0.0,0.0,0.0,0.0,0.0,0.0,0.0,0.911,1.0237,0.8881,0.6341,0.2671,0.0946,0.1725,0.0,0.0,0.0,0.0,0.0,0.0,0.0,0.0,0.0,0.0,0.0,0.0,0.0,0.0,0.0,0.0,0.0,0.0,0.0,0.0,0.0,0.0,0.0,0.0,0.0,0.0,0.0,0.0,0.0,0.0,0.0,0.0,0.0,0.0,0.0,0.0,0.0,0.0,0.0,0.0,0.0,0.0,0.0,0.0,0.0,0.0,0.0,0.0,0.0,0.0,0.0,0.0,0.0,0.0,0.0,0.0,0.0,0.0,0.0,0.0,0.0,0.0,0.0,0.0,0.0,0.0,0.0,0.0,0.0,0.0,0.0,0.0,0.0,0.0,0.0,0.0,0.0,0.0,0.0,0.0,0.0,0.0,0.0,0.0,0.0,0.0,0.0,0.0,0.0,0.0,0.0,0.0,0.0,0.0,0.0,0.0,0.0,0.0,0.0,0.0,0.0,0.0,0.0,0.0,0.0,0.0,0.0,0.8303,0.9083,0.9721,0.7418,0.5942,0.5397,0.1939,0.0,0.0,0.0,0.0,0.0,0.0,0.0,0.0,0.0,0.0,0.0,0.0,0.0,0.0,0.0,0.0,0.0,0.0,0.0,0.0,0.0,0.0,0.0,0.0,0.0,0.0,0.0,0.0,0.0,0.0,0.0,0.0,0.0,0.0,0.0,0.0,0.0,0.0,0.0,0.0,-0.4494,-0.4107,0.0,0.0,0.0,0.0,0.0,0.0,0.0,0.0,-0.1656,0.0,0.0,0.0,0.0,0.0,0.0,0.0,0.0,0.0,0.0,0.0,0.0,0.0,0.0,0.0,0.0,0.0,0.0,0.0,0.0,0.0,0.0,0.0,0.0,0.0,0.0,0.0,0.0,0.0,0.0,0.0,0.0,0.0,0.0,0.0,0.0,0.0,0.0,0.0,0.0,0.0,0.0,0.0,0.0,0.0,0.0,0.0,0.0,0.0,0.0,0.0,0.0,0.0,0.0,0.0,0.0,0.8106,0.8513,0.9144,1.0019,0.9883,0.8399,0.5533,0.1921,0.0,0.0,0.0,0.0,0.0,0.0,0.0,0.0,0.0,0.0,0.0,0.0,0.0,0.0,0.0,0.0,0.0,0.0,0.0,0.0,0.0,0.0,0.0,0.0,0.0,0.0,0.0,0.0,0.0,0.0,0.0,0.0,0.0,0.0,0.0,0.0,0.0,0.0,0.0,0.0,0.0,-0.2345,-0.0567,0.0,0.0,0.0,0.0,0.0,0.0,0.0,0.0,0.0,0.0,0.0,0.0,0.0,0.0,0.0,0.0,0.0,0.0,0.0,0.0,0.0,0.0,0.0,0.0,0.0,0.0,0.0,0.0,0.0,0.0,0.0,0.0,0.0,0.0,0.0,0.0,0.0,0.0,0.0,0.0,0.0,0.0,0.0,0.0,0.0,0.0,0.0,0.0,0.0,0.0,0.0,0.0,0.0,0.0,0.0,0.0,0.0,0.0,0.0,0.0,0.0,0.0,0.0,0.0,0.8228,0.871,0.9347,1.0161,1.0575,0.901,0.5463,0.1847,0.0,0.0,0.0,0.0,0.0,0.0,0.0,0.0,0.0,0.0,0.0,0.0,0.0,0.0,0.0,0.0,0.0,0.0,0.0,0.0,0.0,0.0,0.0,0.0,0.0,0.0,0.0,0.0,0.0,0.0,0.0,0.0,0.0,0.0,0.0,0.0,0.0,0.0,0.0,0.0,0.0,-0.1886,0.0,0.0,0.0,0.0,0.0,0.0,0.0,0.0,0.0,0.0,0.0,0.0,0.0,0.0,0.0,0.0,0.0,0.0,0.0,0.0,0.0,0.0,0.0,0.0,0.0,0.0,0.0,0.0,0.0,0.0,0.0,0.0,0.0,0.0,0.0,0.0,0.0,0.0,0.0,0.0,0.0,0.0,0.0,0.0,0.0,0.0,0.0,0.0,0.0,0.0,0.0,0.0,0.0,0.0,0.0,0.0,0.0,0.0,0.0,0.0,0.0,0.0,0.0,0.0,0.0,0.8255,0.8852,0.9503,1.0202,1.0555,0.8934,0.55,0.1908,0.0,0.0,0.0,0.0,0.0,0.0,0.0,0.0,0.0,0.0,0.0,0.0,0.0,0.0,0.0,0.0,0.0,0.0,0.0,0.0,0.0,0.0,0.0,0.0,0.0,0.0,0.0,0.0,0.0,0.0,0.0,0.0,0.0,0.0,0.0,0.0,0.0,0.0,0.0,0.0,0.0,0.0,0.0,0.0,0.0,0.0,0.0,0.0,0.0,0.0,0.0,0.0,0.0,0.0,0.0,0.0,0.0,0.0,0.0,0.0,0.0,0.0,0.0,0.0,0.0,0.0,0.0,0.0,0.0,0.0,0.0,0.0,0.0,0.0,0.0,0.0,0.0,0.0,0.0,0.0,0.0,0.0,0.0,0.0,0.0,0.0,0.0,0.0,0.0,0.0,0.0,0.0,0.0,0.0,0.0,0.0,0.0,0.0,0.0,0.0,0.0,0.0,0.0,0.0,0.0,0.0,0.0,0.8255,0.8852,0.9456,1.0046,1.0256,0.8787,0.5418,0.1955,0.0,0.0,0.0,0.0,0.0,0.0,0.0,0.0,0.0,0.0,0.0,0.0,0.0,0.0,0.0,0.0,0.0,0.0,0.0,0.0,0.0,0.0,0.0,0.0,0.0,0.0,0.0,0.0,0.0,0.0,0.0,0.0,0.0,0.0,0.0,0.0,0.0,0.0,0.0,0.0,0.0,0.0,0.0,0.0,0.0,0.0,0.0,0.0,0.0,0.0,0.0,0.0,0.0,0.0,0.0,0.0,0.0,0.0,0.0,0.0,0.0,0.0,0.0,0.0,0.0,0.0,0.0,0.0,0.0,0.0,0.0,0.0,0.0,0.0,0.0,0.0,0.0,0.0,0.0,0.0,0.0,0.0,0.0,0.0,0.0,0.0,0.0,0.0,0.0,0.0,0.0,0.0,0.0,0.0,0.0,0.0,0.0,0.0,0.0,0.0,0.0,0.0,0.0,0.0,0.0,0.0,0.7834,0.8377,0.8893,0.9442,1.0025,1.0053,0.9284,0.7795,0.4006,0.1417,0.0,0.0,0.0,0.0,0.0,0.0,0.0,0.0,0.0,0.0,0.0,0.0,0.0,0.0,0.0,0.0,0.0,0.0,0.0,0.0,0.0,0.0,0.0,0.0,0.0,0.0,0.0,0.0,0.0,0.0,0.0,0.0,0.0,0.0,0.0,0.0,0.0,0.0,0.0,0.0,0.0,0.0,0.0,0.0,0.0,0.0,0.0,0.0,0.0,0.0,0.0,0.0,0.0,0.0,0.0,0.0,0.0,0.0,0.0,0.0,0.0,0.0,0.0,0.0,0.0,0.0,0.0,0.0,0.0,0.0,0.0,0.0,0.0,0.0,0.0,0.0,0.0,0.0,0.0,0.0,0.0,0.0,0.0,0.0,0.0,0.0,0.0,0.0,0.0,0.0,0.0,0.0,0.0,0.0,0.0,0.0,0.0,0.0,0.0,0.0,0.0,0.0,0.0,0.0,0.0,0.0,0.8425,0.8906,0.9388,0.9863,0.9863,0.9673,0.93,0.6323,0.0,0.0,0.0,0.0,0.0,0.0,0.0,0.0,0.0,0.0,0.0,0.0,0.0,0.0,0.0,0.0,0.0,0.0,0.0,0.0,0.0,0.0,0.0,0.0,0.0,0.0,0.0,0.0,0.0,0.0,0.0,0.0,0.0,0.0,0.0,0.0,0.0,0.0,0.0,0.0,0.0,0.0,0.0,0.0,0.0,0.0,0.0,0.0,0.0,0.0,0.0,0.0,0.0,0.0,0.0,0.0,0.0,0.0,0.0,0.0,0.0,0.0,0.0,0.0,0.0,0.0,0.0,0.0,0.0,0.0,0.0,0.0,0.0,0.0,0.0,0.0,0.0,0.0,0.0,0.0,0.0,0.0,0.0,0.0,0.0,0.0,0.0,0.0,0.0,0.0,0.0,0.0,0.0,0.0,0.0,0.0,0.0,0.0,0.0,0.0,0.0,0.0,0.0,0.0,0.0,0.0,0.0,0.8282,0.8859,0.9239,0.9429,0.9686,0.9557,0.8903,0.8184,0.7302,0.0,0.0,0.0,0.0,0.0,0.0,0.0,0.0,0.0,0.0,0.0,0.0,0.0,0.0,0.0,0.0,0.0,0.0,0.0,0.0,0.0,0.0,0.0,0.0,0.0,0.0,0.0,0.0,0.0,0.0,0.0,0.0,0.0,0.0,0.0,0.0,0.0,0.0,0.0,0.0,0.0,0.0,0.0,0.0,0.0,0.0,0.0,0.0,0.0,0.0,0.0,0.0,0.0,0.0,0.0,0.0,0.0,0.0,0.0,0.0,0.0,0.0,0.0,0.0,0.0,0.0,0.0,0.0,0.0,0.0,0.0,0.0,0.0,0.0,0.0,0.0,0.0,0.0,0.0,0.0,0.0,0.0,0.0,0.0,0.0,0.0,0.0,0.0,0.0,0.0,0.0,0.0,0.0,0.0,0.0,0.0,0.0,0.0,0.0,0.0,0.0,0.0,0.0,0.0,0.0,0.7868,0.8391,0.8716,0.9042,0.9361,0.9401,0.9225,0.8955,0.8273,0.7628,0.0,0.0,0.0,0.0,0.0,0.0,0.0,0.0,0.0,0.0,0.0,0.0,0.0,0.0,0.0,0.0,0.0,0.0,0.0,0.0,0.0,0.0,0.0,0.0,0.0,0.0,0.0,0.0,0.3323,0.3177,0.2799,0.0,0.0,0.0,0.0,0.0,0.0,0.0,0.0,0.0,0.0,0.0,0.0,0.0,0.0,0.0,0.0,0.0,0.0,0.0,0.0,0.0,0.0,0.0,0.0,0.0,0.0,0.0,0.0,0.0,0.0,0.0,0.0,0.0,0.0,0.0,0.0,0.0,0.0,0.0,0.0,0.0,0.0,0.0,0.0,0.0,0.0,0.0,0.0,0.0,0.0,0.0,0.0,0.0,0.0,0.0,0.0,0.0,0.0,0.0,0.0,0.0,0.0,0.0,0.0,0.0,0.0,0.0,0.0,0.0,0.0,0.0,0.0,0.0,0.0,0.7909,0.8307,0.8608,0.8886,0.9239,0.9184,0.9113,0.8783,0.8214,0.7535,0.0,0.0,0.0,0.0,0.0,0.0,0.0,0.0,0.0,0.0,0.0,0.0,0.0,0.0,0.0,0.0,0.0,0.0,0.0,0.0,0.0,0.0,0.0,0.0,0.0,0.0,0.0,0.0,0.4379,0.3982,0.4398,0.0,0.0,0.0,0.0,0.0,0.0,0.0,0.0,0.0,0.0,0.0,0.0,0.0,0.0,0.0,0.0,0.0,0.0,0.0,0.0,0.0,0.0,0.0,0.0,0.0,0.0,0.0,0.0,0.0,0.0,0.0,0.0,0.0,0.0,0.0,0.0,0.0,0.0,0.0,0.0,0.0,0.0,0.0,0.0,0.0,0.0,0.0,0.0,0.0,0.0,0.0,0.0,0.0,0.0,0.0,0.0,0.0,0.0,0.0,0.0,0.0,0.0,0.0,0.0,0.0,0.0,0.0,0.0,0.0,0.0,0.0,0.0,0.0,0.0,0.7963,0.8064,0.8454,0.8784,0.8947,0.9076,0.8933,0.8506,0.8052,0.7516,0.6821,0.0,0.0,0.0,0.0,0.0,0.0,0.0,0.0,0.0,0.0,0.0,0.0,0.0,0.0,0.0,0.0,0.0,0.0,0.0,0.0,0.0,0.0,0.0,0.0,0.0,0.0,0.4997,0.2103,0.1303,0.0,0.0,0.0,0.0,0.0,0.0,0.0,0.0,0.0,0.0,0.0,0.0,0.0,0.0,0.0,0.0,0.0,0.0,0.0,0.0,0.0,0.0,0.0,0.0,0.0,0.0,0.0,0.0,0.0,0.0,0.0,0.0,0.0,0.0,0.0,0.0,0.0,0.0,0.0,0.0,0.0,0.0,0.0,0.0,0.0,0.0,0.0,0.0,1.0613,1.0076,0.0,0.0,0.0,0.0,0.0,0.0,0.0,0.0,0.0,0.0,0.0,0.731,0.7168,0.0,0.0,0.0,0.0,0.0,0.0,0.0,0.0,0.0,0.0,0.0,0.0,0.7963,0.8051,0.8354,0.8635,0.8784,0.8832,0.875,0.8513,0.8153,0.757,0.6853,0.0,0.0,0.0,0.0,0.0,0.0,0.0,0.0,0.0,0.0,0.0,0.0,0.0,0.0,0.0,0.0,0.0,0.0,0.0,0.0,0.0,0.0,0.0,0.0,0.0,0.57,0.0,0.0,0.0,0.0,0.0,0.0,0.0,0.0,0.0,0.0,0.0,0.351,0.0387,0.0,0.0,0.0,0.0,0.0,0.0,0.0,0.0,0.0,0.0,0.0,0.0,0.0,0.0,0.0,0.0,0.0,0.0,0.0,0.0,0.0,0.0,0.0,0.0,0.0,0.0,0.0,0.0,0.0,0.0,0.0,0.0,0.0,0.0,0.0,0.0,0.0,0.0,0.0,0.0,1.074,0.0,0.0,0.0,0.0,0.0,0.0,0.0,0.0,0.7563,0.7695,0.7924,0.7636,0.755,0.0,0.7489,0.7346,0.0,0.0,0.0,0.0,0.0,0.0,0.0,0.0,0.7963,0.8006,0.8309,0.8479,0.8621,0.8635,0.8567,0.8536,0.797,0.7448,0.6865,0.589,0.5569,0.0,0.0,0.0,0.0,0.0,0.0,0.0,0.0,0.0,0.0,0.0,0.0,0.0,0.0,0.0,0.0,0.0,0.0,0.0,0.0,0.0,0.0,0.0,0.605,0.0,0.0,0.0,0.0,0.0,0.0,0.0,0.0,0.0,0.0382,0.2664,0.4083,0.2644,0.1065,0.0,0.0,0.0,0.0,0.0,0.0,0.0,0.0,0.0,0.0,0.0,0.0,0.0,0.0,0.0,0.0,0.0,0.0,0.0,0.0,0.0,0.0,0.0,0.0,0.0454,0.2122,0.4898,0.7019,0.0,0.0,0.0,0.0,0.0,0.0,0.0,0.0,1.5831,1.4626,0.0,1.1651,0.0,0.0,0.0,0.0,0.0,0.0,0.0,0.0,0.8052,0.8549,0.8437,0.7935,0.7638,0.7645,0.7753,0.7733,0.7584,0.7163,0.0,0.0,0.0,0.0,0.0,0.0,0.7957,0.8035,0.822,0.8343,0.8472,0.8472,0.8404,0.8248,0.7543,0.7021,0.6709,0.5927,0.5538,0.5783,0.6634,0.0,0.0,0.0,0.0,0.0,0.0,0.0,0.0,0.0,0.0,0.0,0.0,0.0,0.0,0.0,0.0,0.0,0.0,0.0,0.0,0.6186,0.0,0.0,0.0,0.0,0.0,0.0,0.0,0.0,0.0,0.0,0.0624,0.0461,0.1867,0.6197,0.0,0.0,0.0,0.0,0.0,0.0,0.0,0.0,0.0,0.0,0.0,0.0,0.0,0.0,0.0,0.0,0.0,0.0,0.0,0.0,0.0,0.0,0.0,0.0,0.0,0.0,0.5548,0.6486,0.7096,1.8036,0.0,0.0,0.0,0.0,1.4968,1.5528,1.7081,1.6588,1.6126,1.5407,1.3945,0.0,0.0,0.0,0.0,0.0,0.0,0.724,0.7791,0.8265,0.8642,0.8813,0.8385,0.8289,0.8377,0.7997,0.7787,0.774,0.7407,0.7448,0.7834,0.0,0.0,0.0,0.0,0.7555,0.8021,0.8213,0.8289,0.833,0.833,0.8208,0.795,0.7529,0.7115,0.6798,0.6331,0.5938,0.5783,0.6379,0.0,0.0,0.0,0.0,0.0,0.0,0.0,0.0,0.0,0.0,0.0,0.0,0.0,0.0,0.0,0.0,0.0,0.0,0.0,0.588,0.5708,0.58,0.0,0.0,0.0,0.0,0.0,0.0,0.0,0.0,0.0,0.4799,0.4763,0.4112,0.0,0.0,0.3819,0.0452,0.0,0.0,0.0,0.0,0.0,0.0,0.0,0.0,0.0,0.0,0.0,0.0,0.0,0.0,0.0,0.0,0.0,0.0,0.0,0.0,0.0,0.0,0.0,0.181,0.455,0.7148,1.9386,1.813,1.6729,1.6006,1.5866,1.6082,1.7316,1.8874,1.8144,1.7756,1.7423,1.587,1.4727,1.3862,1.1538,0.0,0.0,0.0,0.7478,0.7837,0.8453,0.8758,0.8925,0.8682,0.8676,0.8689,0.8343,0.8106,0.7991,0.7753,0.7767,0.8018,0.0,0.0,0.7624,0.7363,0.7561,0.8041,0.8131,0.818,0.818,0.818,0.8058,0.7821,0.7584,0.7341,0.7154,0.6666,0.6237,0.5944,0.6338,0.6563,0.0,0.0,0.0,0.0,0.0,0.0,0.0,0.0,0.0,0.0,0.0,0.6541,0.6298,0.0,0.0,0.0,0.601,0.5962,0.5689,0.5569,0.0,0.0,0.0,0.0,0.0,0.0,0.0,0.611,0.6009,0.6083,0.6566,0.6661,0.5043,0.0598,0.3257,0.4346,0.0538,0.0,0.0,0.0,0.0,0.0,0.0,0.0,0.0,0.0,0.0,0.0,0.0,0.0,0.0,0.0,0.0,0.0,0.0,0.0,0.0,0.0,0.0,0.0,0.2313,0.5135,0.7128,2.0428,1.9708,1.7881,1.6648,1.6272,1.8601,2.0096,2.0952,2.0008,1.9329,1.8798,1.7435,1.6446,1.5753,1.2289,0.0,0.0,0.969,0.8104,0.77,0.8499,0.8946,0.896,0.8872,0.8866,0.873,0.8716,0.8567,0.8309,0.8133,0.8058,0.8052,0.7805,0.7465,0.7152,0.7472,0.7778,0.8015,0.8,0.8038,0.8038,0.8038,0.7963,0.7801,0.7658,0.7556,0.7547,0.6962,0.6489,0.6345,0.65,0.6563,0.6531,0.0,0.0,0.0,0.0,0.0,0.0,0.0,0.0,0.0,0.0,0.0,0.0,0.0,0.0,0.0,0.5772,0.0,0.5482,0.5695,0.0,0.0,0.0,0.6288,0.6288,0.6304,0.62,0.5907,0.0,0.0,0.6471,0.0,0.5226,0.1062,0.2497,0.3059,0.087,0.0,0.0266,0.0,0.0,0.0,0.0,0.0,0.0,0.0,0.0,0.0,0.0,0.0,0.0,0.0,0.0,0.0,0.0,0.0,0.0,0.0,0.0,0.1962,0.5802,0.6979,0.7081,2.1323,2.0775,2.0288,1.9507,1.8622,2.0117,2.0911,2.1053,2.0836,2.0007,1.8878,1.8076,1.7213,1.6393,1.4756,1.3868,1.3412,1.2221,1.0347,0.8033,0.8582,0.8948,0.8886,0.892,0.892,0.8879,0.8764,0.8676,0.8594,0.8343,0.8214,0.8208,0.7959,0.7811,0.7767,0.7917,0.7924,0.7959,0.795,0.8038,0.8038,0.8038,0.7916,0.7651,0.7502,0.7396,0.721,0.6742,0.6489,0.6345,0.6338,0.6352,0.6308,0.6525,0.0,0.0,0.0,0.0,0.0,0.0,0.0,0.0,0.0,0.6901,0.6388,0.0,0.6437,0.0,0.5861,0.5801,0.586,0.5854,0.0,0.0,0.6342,0.6297,0.6281,0.6284,0.631,0.62,0.624,0.6363,0.6614,0.6817,0.6541,0.5505,0.5852,0.6002,0.547,0.3999,0.3003,0.2786,0.2808,0.3415,0.4634,0.2298,0.0,0.0,0.0,0.0,0.0,0.0,0.0,0.0,0.0,0.0,0.0,0.0,0.0,0.4474,0.5463,0.5646,0.6917,0.7081,0.7183,2.1724,2.1296,2.1162,2.069,2.0239,2.0808,2.104,2.1039,2.1053,2.0495,1.9466,1.8758,1.809,1.7423,1.6254,1.5672,1.5635,1.3832,1.2731,1.2206,0.9881,0.8913,0.8893,0.8927,0.894,0.8933,0.8852,0.8777,0.8703,0.8547,0.8404,0.8275,0.8187,0.8065,0.8021,0.8035,0.7966,0.8018,0.8031,0.8038,0.8038,0.8038,0.7929,0.7699,0.7482,0.7286,0.6901,0.6675,0.6551,0.6617,0.6537,0.6458,0.6458,0.6614,0.6634,0.0,0.0,0.0,0.0,0.0,0.0,0.0,0.0,0.0,0.0,0.0,0.6424,0.624,0.5969,0.5983,0.6331,0.6035,0.5918,0.6271,0.6324,0.6291,0.6277,0.6437,0.65,0.6506,0.6558,0.662,0.6783,0.6932,0.7054,0.7041,0.7217,0.7215,0.704,0.6067,0.5393,0.5509,0.5523,0.5833,0.6985,0.497,0.3184,0.3125,0.3205,0.3184,0.3099,0.2253,0.1585,0.1554,0.0728,0.0,0.0,0.1884,0.4141,0.6114,0.7101,0.7094,0.7088,0.7074,0.7197,2.1817,2.1537,2.1229,2.1109,2.1109,2.1109,2.1109,2.1082,2.1118,2.0808,2.0187,1.9386,1.8878,1.8499,1.7328,1.7303,1.8184,1.5412,1.5445,1.7457,1.2478,0.9683,0.901,0.9182,0.9217,0.8994,0.8974,0.8899,0.8771,0.873,0.8581,0.8336,0.8309,0.8228,0.7999,0.8079,0.8026,0.8024,0.8039,0.8099,0.8099,0.8099,0.8011,0.7834,0.7516,0.7115,0.6734,0.6525,0.6673,0.6969,0.6812,0.6641,0.6647,0.6661,0.6614,0.0,0.6652,0.0,0.0,0.0,0.0,0.0,0.0,0.0,0.0,0.6421,0.6322,0.6464,0.6098,0.6084,0.6709,0.6237,0.6015,0.6299,0.6391,0.6363,0.6318,0.6505,0.6666,0.6753,0.684,0.6847,0.6926,0.7048,0.7143,0.7094,0.7312,0.7373,0.7285,0.7112,0.725,0.7834,0.7921,0.7361,0.7222,0.7064,0.6889,0.7001,0.6789,0.7063,0.685,0.5339,0.4017,0.386,0.2506,0.0,0.0,0.3323,0.6059,0.686,0.7115,0.7094,0.7068,0.7068,0.7217,2.1817,2.1537,2.1243,2.1109,2.1109,2.1109,2.1109,2.1109,2.1056,2.0735,2.0214,1.9813,1.9479,1.9212,1.8955,1.8964,1.9104,1.8512,1.8546,1.8972,1.739,1.4066,0.9539,1.0623,1.0547,0.9408,0.9171,0.9096,0.9062,0.8825,0.8682,0.8628,0.8499,0.832,0.8073,0.0,0.0,0.0,0.8289,0.8397,0.8397,0.8397,0.8269,0.7997,0.7468,0.0,0.6666,0.6458,0.6393,0.6421,0.6421,0.0,0.0,0.0,0.0,0.0,0.0,0.0,0.0,0.0,0.0,0.0,0.6433,0.6428,0.6411,0.6342,0.64,0.6451,0.6288,0.6345,0.6572,0.6524,0.6471,0.6325,0.6654,0.6798,0.6401,0.6318,0.649,0.6998,0.6908,0.6847,0.6867,0.7054,0.7094,0.7118,0.7369,0.7636,0.7802,0.7725,0.7597,0.7348,0.7343,0.7224,0.7111,0.7091,0.7091,0.7078,0.7078,0.7078,0.7065,0.6783,0.6412,0.637,0.6109,0.4304,0.0892,0.0806,0.2785,0.6293,0.7032,0.7121,0.7088,0.7068,0.719,2.2111,0.0,2.1354,2.1041,0.0,2.1036,2.1109,2.1109,2.1109,2.0869,2.0428,2.0147,1.9853,1.9586,1.9586,1.9542,1.9401,1.9401,1.9407,1.9443,1.9118,1.7365,1.4292,1.2575,1.1323,1.0524,0.976,0.9232,0.915,0.9001,0.8852,0.871,0.8635,0.8448,0.8262,0.83,0.8262,0.8045,0.8187,0.8262,0.8262,0.8262,0.8153,0.7923,0.0,0.0,0.0,0.0,0.0,0.0,0.0,0.0,0.0,0.0,0.0,0.7358,0.7902,0.8205,0.8054,0.9507,0.9331,0.6881,0.6726,0.6666,0.6512,0.6438,0.6505,0.6573,0.6519,0.6539,0.6681,0.6716,0.6675,0.6701,0.6965,0.6986,0.6713,0.6726,0.6817,0.7007,0.7032,0.6967,0.7136,0.7204,0.7188,0.7177,0.7463,0.7773,0.7921,0.7917,0.776,0.7435,0.729,0.7269,0.7265,0.7177,0.7143,0.7068,0.7068,0.7074,0.7074,0.7074,0.7081,0.7094,0.7108,0.6109,0.4032,0.1703,0.0718,0.3135,0.5484,0.6483,0.5824,0.6263,0.7121,2.2552,2.2445,2.1621,2.1228,2.1032,2.1027,2.1149,2.1109,0.0,0.0,0.0,2.0414,2.0147,1.988,1.9867,1.9706,1.9439,1.9439,1.9408,1.9407,1.9374,1.9065,1.8385,1.4218,1.2,1.1421,1.0011,0.9347,0.9198,0.9164,0.9015,0.8771,0.875,0.8676,0.8533,0.8604,0.8364,0.8133,0.8147,0.8147,0.8119,0.8119,0.8045,0.7896,0.755,0.7244,0.6887,0.6675,0.6647,0.6778,0.6785,0.6702,0.6702,0.6817,0.7195,0.7901,0.8397,0.8937,0.946,1.0234,0.9649,0.7315,0.7133,0.7014,0.6791,0.6702,0.6702,0.6702,0.6702,0.6763,0.6912,0.6733,0.6844,0.7109,0.7104,0.7098,0.7125,0.7146,0.7059,0.7073,0.7068,0.7183,0.7292,0.7339,0.738,0.725,0.7543,0.778,0.7882,0.7938,0.7863,0.7719,0.7475,0.736,0.7312,0.7224,0.7143,0.7143,0.7143,0.7143,0.7143,0.7143,0.7149,0.7088,0.6821,0.656,0.6585,0.3144,0.0,0.0,0.3048,0.5399,0.421,0.5107,0.6323,2.3046,2.2779,2.2136,2.1554,2.1018,2.1032,2.1054,2.1109,2.1109,2.0949,2.0668,2.0628,2.0454,2.0174,1.9637,1.9468,1.9351,1.947,1.9442,0.0,1.9448,1.7886,1.5365,1.4518,1.2729,1.0222,0.9751,0.9496,0.9347,0.9218,0.9069,0.8927,0.8906,0.8825,0.8682,0.8765,0.8682,0.8425,0.8547,0.8554,0.8425,0.8418,0.835,0.8194,0.7658,0.7292,0.7027,0.6831,0.6681,0.6785,0.6785,0.6702,0.6702,0.6729,0.6798,0.6998,0.8629,0.9784,1.0138,1.1792,1.1098,0.7541,0.7149,0.7066,0.7069,0.704,0.6957,0.6702,0.6715,0.6763,0.6905,0.682,0.6787,0.7021,0.7102,0.7095,0.7102,0.7102,0.7102,0.7102,0.7122,0.7143,0.721,0.7312,0.7434,0.7556,0.7692,0.7697,0.7767,0.7897,0.7849,0.7712,0.7468,0.7326,0.7217,0.7163,0.7143,0.7143,0.7143,0.7143,0.7143,0.7143,0.7149,0.7081,0.5819,0.5201,0.6317,0.3236,0.0,0.0,0.0,0.0,0.2967,0.3782,0.4055,2.3487,2.33,2.2709,2.2281,2.1962,2.1359,2.1044,2.1054,2.1036,2.1042,2.0909,2.0909,2.0748,2.0481,2.0345,2.0172,2.004,2.0174,2.0012,1.9469,1.9599,1.8803,1.7114,1.5429,1.3765,1.2329,1.059,0.9646,0.951,0.9429,0.9279,0.9069,0.8981,0.8899,0.8838,0.8879,0.8797,0.8608,0.8513,0.8438,0.837,0.8282,0.8174,0.8024,0.7746,0.7461,0.7149,0.7007,0.6865,0.6791,0.6702,0.6702,0.6702,0.6776,0.7077,0.7735,0.9321,1.0868,1.2204,1.1951,1.0474,0.7375,0.7095,0.7088,0.7125,0.7118,0.7025,0.6939,0.6939,0.6966,0.7034,0.6954,0.6981,0.7048,0.7143,0.7143,0.7143,0.7143,0.7143,0.7143,0.7143,0.7204,0.7366,0.7455,0.755,0.7787,0.7822,0.7801,0.7699,0.7597,0.7543,0.7495,0.7346,0.7238,0.7149,0.7143,0.7143,0.7143,0.7143,0.7143,0.7143,0.7149,0.7074,0.7094,0.6103,0.4871,0.0,0.1627,0.0,0.0,0.0,0.0,0.1445,0.1632,0.1641,2.3981,2.3808,2.3287,2.3104,2.2862,2.1885,2.1384,2.1096,2.0195,2.0094,2.0589,2.0856,2.0724,2.0276,2.0788,2.0916,2.0563,2.0117,1.9824,1.9707,1.9056,1.8665,1.8084,1.5406,1.3933,1.3297,1.102,0.9747,0.9625,0.9612,0.9476,0.9218,0.9055,0.8876,0.8988,0.8954,0.8879,0.875,0.8499,0.8336,0.8269,0.8153,0.8018,0.7875,0.7828,0.7631,0.7272,0.721,0.7068,0.6824,0.6831,0.6851,0.6858,0.6959,0.7469,0.8455,0.9575,1.1413,1.3681,1.1381,0.9009,0.726,0.7082,0.7143,0.7143,0.7143,0.7143,0.7143,0.7129,0.7129,0.7136,0.7136,0.7143,0.7143,0.7143,0.7143,0.7143,0.7143,0.7143,0.7143,0.7143,0.7244,0.7475,0.7584,0.7651,0.7945,0.7889,0.7705,0.7691,0.7289,0.7204,0.7302,0.7272,0.719,0.7156,0.7143,0.7143,0.7143,0.7143,0.7143,0.7149,0.7074,0.7094,0.7108,0.7121,0.5155,0.0,0.0,0.0,0.0,0.0,0.0,0.0,0.0,0.0,2.4636,2.4155,2.3964,2.3512,2.2957,2.2807,2.2044,2.0877,1.7781,1.7282,1.892,2.0462,2.0182,1.8988,2.0284,2.0989,2.0717,1.7804,1.8061,2.0183,1.7156,1.5278,1.5013,1.3355,1.1776,1.0565,0.995,0.9761,0.9625,0.9612,0.9523,0.9361,0.9084,0.901,0.9117,0.9008,0.8933,0.8913,0.8757,0.854,0.8289,0.8255,0.8174,0.8024,0.7882,0.7733,0.755,0.7428,0.7272,0.7129,0.7231,0.7305,0.7305,0.7319,0.7478,0.778,0.8671,1.0672,1.341,0.9925,0.7577,0.7187,0.7095,0.7149,0.7149,0.7149,0.7143,0.7143,0.7143,0.7143,0.7143,0.7143,0.7143,0.7143,0.7143,0.7143,0.7143,0.7143,0.7143,0.7143,0.7149,0.721,0.74,0.7536,0.7753,0.7938,0.7577,0.7396,0.7563,0.7389,0.7224,0.738,0.7437,0.7368,0.7177,0.7143,0.7143,0.7143,0.7143,0.7149,0.7074,0.7088,0.7094,0.7121,0.6508,0.4611,0.0,0.0,0.0,0.0,0.0,0.0,0.0,0.0,0.0,2.4783,2.4663,2.4192,2.352,2.2998,2.2943,2.2592,2.1912,1.9875,1.8889,1.8853,1.9365,1.864,1.7076,1.8349,1.923,1.9345,1.7655,1.7256,1.7871,1.6076,1.4298,1.2465,1.2515,1.2069,1.1302,1.0443,0.9883,0.9741,0.9652,0.9578,0.951,0.9361,0.9239,0.9157,0.8977,0.891,0.894,0.8879,0.8743,0.854,0.8357,0.8241,0.8167,0.8024,0.7875,0.7644,0.7665,0.7563,0.7336,0.7382,0.7509,0.7509,0.7509,0.7529,0.7584,0.793,1.0085,1.427,1.28,1.0372,0.7341,0.7125,0.7144,0.7098,0.7262,0.7346,0.717,0.7143,0.7143,0.7143,0.7143,0.7143,0.7143,0.7143,0.7143,0.7143,0.7128,0.7155,0.7081,0.7128,0.7235,0.7482,0.7732,0.776,0.7712,0.7369,0.7289,0.7489,0.7499,0.738,0.736,0.7389,0.7224,0.7081,0.7074,0.7074,0.7081,0.7081,0.7088,0.7094,0.7108,0.7121,0.7045,0.4904,0.2843,0.0559,0.0,0.0,0.0,0.0,0.0,0.0,0.0,0.0,2.4903,2.4836,2.4246,2.3574,2.2859,2.293,2.2943,2.2539,2.0793,1.9352,1.8211,1.6925,1.5654,1.4744,1.5992,1.6904,1.6937,1.6111,1.589,1.562,1.4776,1.2961,1.0966,1.1657,1.2004,1.1612,1.0607,1.0032,0.9883,0.9741,0.9666,0.9646,0.9517,0.9367,0.9225,0.9057,0.8963,0.8954,0.894,0.8886,0.875,0.8526,0.8357,0.8269,0.8119,0.797,0.7724,0.7814,0.765,0.7416,0.7537,0.7658,0.7658,0.7658,0.7658,0.7651,0.7684,0.963,1.3884,1.4172,1.286,0.9819,0.8251,0.7217,0.7369,0.7536,0.7495,0.7319,0.7265,0.7251,0.7143,0.7143,0.7143,0.7143,0.7143,0.7143,0.7149,0.7155,0.7161,0.717,0.7128,0.7197,0.7556,0.7773,0.7773,0.757,0.7376,0.7308,0.7602,0.7667,0.7724,0.7611,0.7396,0.721,0.7005,0.5447,0.5542,0.5819,0.5641,0.528,0.656,0.7128,0.5673,0.4414,0.1646,0.0,0.0,0.0,0.0,0.0,0.0,0.0,0.0,0.0,0.0,2.5157,2.4596,2.4022,2.3434,2.2873,2.2832,2.2835,2.2606,1.8821,1.684,1.6247,1.3013,1.1115,1.124,1.3387,1.4038,1.343,1.2196,1.3152,1.5352,1.2553,1.0885,1.0746,1.061,1.0534,1.0651,1.0376,1.0168,1.0019,0.9883,0.9808,0.9795,0.9786,0.9641,0.9374,0.9111,0.8858,0.8974,0.894,0.8933,0.8899,0.8757,0.8533,0.8296,0.8126,0.7977,0.7841,0.7814,0.7657,0.7416,0.7637,0.7801,0.7704,0.7801,0.7801,0.7801,0.7925,0.9164,1.1711,1.2183,1.2714,1.3878,1.0286,0.7698,0.7879,0.7725,0.7611,0.757,0.755,0.7455,0.7224,0.7088,0.7156,0.7143,0.7143,0.7143,0.7143,0.7081,0.7245,0.7422,0.7279,0.7319,0.7556,0.7604,0.7678,0.7604,0.7279,0.7341,0.7815,0.7949,0.7893,0.7837,0.7639,0.7319,0.6751,0.4639,0.2847,0.2764,0.2861,0.0,0.0,0.6675,0.0,0.0,0.0,0.0,0.0,0.0,0.0,0.0,0.0,0.0,0.0,0.0,0.0,2.489,2.4329,2.3928,2.3373,2.2988,2.2939,2.2942,2.2523,1.8553,1.6737,1.6131,1.3592,1.1762,1.0717,1.1615,1.2521,1.3185,1.2636,1.3595,1.5279,1.2328,1.069,1.0649,1.0636,1.0561,1.0426,1.0324,1.0148,0.9917,0.9842,0.9822,0.9815,0.9774,0.9673,0.9523,0.9136,0.899,0.9083,0.8988,0.894,0.8913,0.8696,0.8506,0.8411,0.8262,0.8113,0.7957,0.7957,0.7831,0.7784,0.7929,0.7957,0.7858,0.7957,0.7957,0.795,0.8,0.9146,1.1424,1.1864,1.1517,1.081,1.0692,0.9493,0.8364,0.7918,0.7807,0.7665,0.7692,0.7631,0.7475,0.7255,0.7155,0.7074,0.7143,0.7143,0.7074,0.7128,0.7161,0.7286,0.7299,0.7455,0.7475,0.7712,0.7815,0.759,0.761,0.776,0.7883,0.7959,0.791,0.7719,0.7556,0.7356,0.7121,0.4643,0.2408,0.1341,0.0,0.0,0.0,0.0,0.0,0.0,0.0,0.0,0.0,0.0,0.0,0.0,0.0,0.0,0.0,0.0,0.0,2.4743,2.4209,2.4058,2.3594,2.2981,2.2842,2.2859,2.2369,1.8676,1.6881,1.632,1.3837,1.1844,1.0912,1.0744,1.124,1.2413,1.2413,1.3095,1.3936,1.1791,1.0717,1.0717,1.0717,1.067,1.0548,1.0365,1.0168,0.9978,0.9869,0.9822,0.9822,0.9822,0.9754,0.9605,0.9215,0.9069,0.9157,0.9015,0.892,0.8852,0.8669,0.8506,0.8418,0.8316,0.8201,0.8045,0.8038,0.8038,0.8038,0.8038,0.8038,0.8038,0.8038,0.8237,0.8619,0.8826,0.9672,1.1492,1.1859,1.0738,0.8362,0.9461,0.9788,0.8203,0.7984,0.7923,0.7814,0.7814,0.7828,0.7692,0.7476,0.7336,0.7168,0.7121,0.7101,0.7156,0.7141,0.7141,0.7108,0.7346,0.7461,0.7489,0.7672,0.7767,0.774,0.7931,0.7986,0.7986,0.7979,0.7911,0.7746,0.7611,0.7409,0.7151,0.561,0.2688,0.1346,0.0,0.0,0.0,0.0,0.0,0.0,0.0,0.0,0.0,0.0,0.0,0.0,0.0,0.0,0.0,0.0,0.0,2.4743,2.4222,2.4528,2.3931,2.3021,2.2993,2.2859,2.2245,1.9084,1.7581,1.695,1.295,1.1482,1.1056,1.096,1.0744,1.0871,1.101,1.0996,1.1122,1.0857,1.0717,1.0717,1.0717,1.0704,1.0663,1.0419,1.0283,1.0229,0.9985,0.9849,0.9836,0.9829,0.9768,0.9618,0.9483,0.932,0.9178,0.9035,0.8886,0.8737,0.871,0.8574,0.835,0.8289,0.8201,0.8058,0.8045,0.8038,0.8038,0.8038,0.8038,0.8038,0.8038,0.8528,0.9698,1.0342,1.1075,1.1722,1.1879,1.0794,0.8586,0.8174,0.8336,0.8117,0.8024,0.8024,0.7997,0.7997,0.7963,0.7841,0.7897,0.7678,0.7244,0.7184,0.7131,0.7108,0.7149,0.7149,0.7197,0.7346,0.7448,0.7577,0.7644,0.7764,0.7963,0.8004,0.8011,0.8004,0.8004,0.8007,0.7917,0.7787,0.757,0.731,0.6788,0.3897,0.0,0.0,0.0,0.0,0.0,0.0,0.0,0.0,0.0,0.0,0.0,0.0,0.0,0.0,0.0,0.0,0.0,0.0,2.485,2.4462,2.461,2.4208,2.3554,2.3086,2.2859,2.2846,2.1569,2.0327,1.838,1.471,1.299,1.271,1.1711,1.0968,1.088,1.0873,1.0819,1.0731,1.0717,1.0717,1.0717,1.0717,1.0663,1.0568,1.0473,1.0371,1.0263,1.0093,1.0005,0.9992,0.9794,0.9849,0.9654,0.9632,0.96,0.9313,0.9164,0.9015,0.8872,0.8764,0.8662,0.8567,0.8384,0.8241,0.8194,0.8099,0.8038,0.8038,0.8038,0.8038,0.8038,0.8038,0.8627,1.0002,1.158,1.2114,1.1925,1.1879,1.0909,0.8691,0.7977,0.8031,0.8038,0.8038,0.8038,0.8038,0.8038,0.8011,0.7984,0.797,0.7834,0.747,0.7429,0.7369,0.7144,0.7299,0.7444,0.7455,0.7584,0.7692,0.7753,0.7764,0.7872,0.7918,0.8038,0.8038,0.8045,0.7952,0.7997,0.8014,0.7855,0.7221,0.6178,0.5393,0.3582,0.0,0.0,0.0,0.0,0.0,0.0,0.0,0.0,0.0,0.0,0.0,0.0,0.0,0.0,0.0,0.0,0.0,0.0,2.5064,2.4743,2.4671,2.4255,2.3718,2.3087,2.3041,2.318,2.306,2.1785,1.9623,1.6569,1.4662,1.3967,1.2826,1.1754,1.0955,1.0948,1.0867,1.0738,1.0717,1.0717,1.0717,1.0717,1.0677,1.0588,1.0534,1.0466,1.0378,1.0249,0.9532,0.8483,0.928,0.9088,0.8295,0.9258,0.9717,0.9483,0.9286,0.8997,0.885,0.8818,0.871,0.8628,0.8411,0.8289,0.8166,0.8026,0.8038,0.8038,0.8038,0.8038,0.8038,0.8038,0.8825,1.0592,1.1873,1.2823,1.3228,1.3437,1.1638,0.8893,0.797,0.8038,0.8038,0.8038,0.8038,0.8038,0.8038,0.8038,0.8038,0.8038,0.795,0.7794,0.7712,0.7523,0.7303,0.7461,0.7773,0.7785,0.7808,0.7794,0.7841,0.7936,0.8031,0.8038,0.7945,0.7952,0.7959,0.7965,0.7279,0.6899,0.6949,0.5914,0.4498,0.3678,0.2978,0.0,0.0,0.0,0.0,0.0,0.0,0.0,0.0,0.0,0.0,0.0,0.0,0.0,0.0,0.0,0.0,0.0,0.0,2.5344,2.505,2.4796,2.438,2.3852,2.3366,2.3377,2.3714,2.3258,2.2217,2.045,1.8218,1.6234,1.4683,1.4035,1.2788,1.1267,1.0975,1.09,1.0778,1.0731,1.0717,1.0717,1.0717,1.0711,1.0683,1.0478,1.0431,1.0411,1.0297,0.8654,0.6686,0.7759,0.7561,0.5496,0.7718,0.8726,0.8885,0.8678,0.8382,0.8351,0.8446,0.831,0.8068,0.7903,0.7911,0.8097,0.8046,0.8038,0.8038,0.8038,0.8038,0.8038,0.8038,0.9114,1.1453,1.1843,1.3221,1.5,1.5358,1.3224,0.8691,0.7977,0.8038,0.8038,0.8038,0.8038,0.8038,0.8038,0.8038,0.8038,0.8038,0.8024,0.8018,0.7973,0.774,0.7354,0.7624,0.7928,0.7956,0.7849,0.7828,0.7848,0.797,0.8024,0.7945,0.7959,0.7766,0.6537,0.5617,0.4583,0.0,0.0,0.4057,0.0,0.0,0.0,0.0,0.0,0.0,0.0,0.0,0.0,0.0,0.0,0.0,0.0,0.0,0.0,0.0,0.0,0.0,0.0,0.0,0.0,2.5464,2.5344,2.477,2.4529,2.4436,2.4165,2.4263,2.4378,2.3836,2.3139,2.209,2.0249,1.8133,1.6308,1.4859,1.3216,1.1678,1.1151,1.0893,1.0745,1.0765,1.0724,1.0717,1.0717,1.0717,1.0711,1.0697,1.0565,1.0558,1.0058,0.9608,0.9068,0.452,0.0,0.0,0.0,0.3929,0.579,0.6094,0.5852,0.572,0.5673,0.5613,0.552,0.5576,0.6553,0.7897,0.8086,0.8038,0.8038,0.8038,0.8038,0.8038,0.8038,0.9114,1.117,1.117,1.2068,1.4896,1.5654,1.3204,0.875,0.7997,0.8038,0.8038,0.8038,0.8038,0.8038,0.8038,0.8038,0.8038,0.8038,0.8038,0.8018,0.8014,0.7945,0.7778,0.7925,0.7994,0.8007,0.795,0.7963,0.7984,0.7918,0.7965,0.7965,0.7772,0.6548,0.4418,0.0,0.0,0.0,0.0,0.0,0.0,0.0,0.0,0.0,0.0,0.0,0.0,0.0,0.0,0.0,0.0,0.0,0.0,0.0,0.0,0.0,0.0,0.0,0.0,0.0,0.0,2.5692,2.5651,2.5227,2.4823,2.4595,2.4647,2.463,2.4562,2.4303,2.3931,2.3038,2.1187,1.9167,1.7117,1.5274,1.335,1.153,1.1301,1.1007,1.0799,1.0658,1.0724,1.0717,1.0717,1.0717,1.0724,1.0758,0.9813,0.8318,0.7071,0.6261,0.5308,0.2098,0.0,0.0,0.0,0.0,0.2578,0.2909,0.2737,0.2577,0.2554,0.2639,0.2937,0.363,0.5504,0.7688,0.8073,0.8038,0.8038,0.8038,0.8038,0.8038,0.8038,0.8916,1.0877,1.0877,1.196,1.3482,1.4084,1.2258,0.8977,0.8011,0.8031,0.8038,0.8038,0.8038,0.8038,0.8038,0.8038,0.8038,0.8038,0.8038,0.8031,0.797,0.7963,0.7945,0.797,0.797,0.8031,0.7965,0.7959,0.7959,0.7972,0.7979,0.7985,0.7992,0.5035,0.0,0.0,0.0,0.0,0.0,0.0,0.0,0.0,0.0,0.0,0.0,0.0,0.0,0.0,0.0,0.0,0.0,0.0,0.0,0.0,0.0,0.0,0.0,0.0,0.0,0.0,0.0,2.5959,2.5919,2.5675,2.5254,2.4684,2.4595,2.4583,2.4569,2.4593,2.4309,2.343,2.1408,1.9279,1.7107,1.5274,1.3365,1.1423,1.1389,1.1074,1.0873,1.0705,1.0765,1.0765,1.0731,1.0724,1.0731,1.0778,0.8745,0.6038,0.2415,0.0,0.0,0.0,0.0,0.0,0.0,0.0,0.0,0.0,0.0,0.0,0.0,0.0,0.0806,0.2253,0.4905,0.7154,0.7978,0.7979,0.7965,0.7952,0.8038,0.8038,0.8038,0.8726,0.9805,1.0681,1.1375,1.2186,1.2304,1.0672,0.847,0.8004,0.8038,0.8031,0.8031,0.8024,0.8038,0.8038,0.8038,0.8038,0.8038,0.8038,0.8038,0.7945,0.7965,0.7872,0.7559,0.716,0.7272,0.7166,0.7578,0.7992,0.7892,0.7685,0.5035,0.5244,0.3528,0.0,0.0,0.0,0.0,0.0,0.0,0.0,0.0,0.0,0.0,0.0,0.0,0.0,0.0,0.0,0.0,0.0,0.0,0.0,0.0,0.0,0.0,0.0,0.0,0.0,0.0,0.0,2.5959,2.6074,2.6171,2.5923,2.5214,2.477,2.4636,2.4609,2.4661,2.4233,2.3314,2.142,1.9171,1.6967,1.5132,1.3421,1.1681,1.1443,1.1141,1.0698,1.069,1.0766,1.0732,1.0665,1.0731,1.0738,1.0645,0.875,0.5369,0.0,0.0,0.0,0.0,0.0,0.0,0.0,0.0,0.0,0.0,0.0,0.0,0.0,0.0,0.0586,0.091,0.3408,0.7034,0.802,0.8031,0.7991,0.8012,0.8058,0.8045,0.8038,0.8627,0.941,0.932,1.0654,1.3248,1.1264,0.8718,0.8216,0.7997,0.7991,0.8031,0.8004,0.8004,0.8024,0.8038,0.8038,0.8038,0.8038,0.8038,0.8045,0.7959,0.7872,0.7266,0.0,0.0,0.0,0.3817,0.5636,0.7478,0.739,0.5962,0.2919,0.0,0.0,0.0,0.0,0.0,0.0,0.0,0.0,0.0,0.0,0.0,0.0,0.0,0.0,0.0,0.0,0.0,0.0,0.0,0.0,0.0,0.0,0.0,0.0,0.0,0.0,0.0,0.0,0.0,2.5879,2.5872,2.5951,2.5773,2.5377,2.4932,2.4636,2.4609,2.4649,2.372,2.2181,2.0232,1.8122,1.5849,1.4014,1.2466,1.1865,1.1463,1.1348,1.1101,1.1124,1.105,1.09,1.0955,1.0873,1.0765,1.0758,0.8867,0.5897,0.0,0.0,0.0,0.0,0.0,0.0,0.0,0.0,0.0,0.0,0.0,0.0,0.0,0.2191,0.2966,0.1948,0.1659,0.3802,0.7112,0.7982,0.8233,0.8228,0.8113,0.8052,0.8038,0.8428,0.8726,0.9213,0.9442,1.0789,1.0888,0.9442,0.8038,0.8011,0.884,0.8954,0.8825,0.8011,0.8031,0.8038,0.8038,0.8038,0.8038,0.8038,0.8045,0.7959,0.7054,0.4518,0.0,0.0,0.0,0.1409,0.2517,0.3732,0.0,0.0,0.0,0.0,0.0,0.0,0.0,0.0,0.0,0.0,0.0,0.0,0.0,0.0,0.0,0.0,0.0,0.0,0.0,0.0,0.0,0.0,0.0,0.0,0.0,0.0,0.0,0.0,0.0,0.0,0.0,0.0,2.5745,2.5491,2.5375,2.5391,2.531,2.4756,2.4636,2.4636,2.4583,2.3164,2.0873,1.8902,1.6865,1.4491,1.261,1.1763,1.1592,1.1667,1.1585,1.1564,1.1552,1.1351,1.1324,1.1131,1.1023,1.0806,1.0672,0.943,0.7236,0.0,0.0,0.0,0.0,0.0,0.0,0.0,0.4622,0.8296,0.0,0.0,0.0,0.0,0.0,0.5769,0.502,0.1473,0.2453,0.5343,0.8587,0.854,0.8391,0.8248,0.814,0.8045,0.8038,0.8038,0.8924,0.913,0.9145,0.9756,0.9846,0.8038,0.8024,0.8855,0.9896,0.9153,0.823,0.8031,0.8038,0.8038,0.8038,0.8038,0.8038,0.8045,0.7959,0.5827,0.2506,0.0,0.0,0.0,0.0,0.0,0.0,0.0,0.0,0.0,0.0,0.0,0.0,0.0,0.0,0.0,0.0,0.0,0.0,0.0,0.0,0.0,0.0,0.0,0.0,0.0,0.0,0.0,0.0,0.0,0.0,0.0,0.0,0.0,0.0,0.0,0.0,0.0,0.0,2.5558,2.5491,2.502,2.4767,2.473,2.4649,2.4636,2.4435,2.3917,2.2734,2.067,1.8587,1.6367,1.4332,1.2466,1.1626,1.1188,1.1299,1.1592,1.1565,1.1578,1.1502,1.1482,1.126,1.1151,1.1084,1.0866,1.0354,0.999,0.9012,0.5389,0.0,0.0,0.0,0.0,0.5235,0.8148,1.0241,0.8568,0.677,0.4999,0.4419,0.4592,0.6904,0.6778,0.5046,0.2532,0.563,0.8886,0.8845,0.8594,0.8465,0.8357,0.8187,0.8085,0.8072,0.8364,0.8364,0.8265,0.8343,0.8542,0.8031,0.8004,0.8004,0.8528,0.8414,0.8011,0.8031,0.8038,0.8038,0.8038,0.8038,0.8038,0.8045,0.7852,0.7459,0.5732,0.0,0.0,0.0,0.0,0.0,0.0,0.0,0.0,0.0,0.0,0.0,0.0,0.0,0.0,0.0,0.0,0.0,0.0,0.0,0.0,0.0,0.0,0.0,0.0,0.0,0.0,0.0,0.0,0.0,0.0,0.0,0.0,0.0,0.0,0.0,0.0,0.0,0.0,2.5424,2.5264,2.4807,2.4608,2.4649,2.4636,2.4636,2.4114,2.1971,2.0386,1.9036,1.725,1.5041,1.3213,1.2201,1.0618,0.9452,1.0919,1.1509,1.1626,1.1558,1.1653,1.1646,1.1416,1.1355,1.1287,1.1074,1.0967,1.0982,1.073,0.8606,0.0,0.3927,0.189,0.1343,0.4833,0.8862,1.0016,1.0545,0.9933,0.8183,0.7648,0.7464,0.7955,0.872,0.792,0.6754,0.698,0.9051,0.8937,0.8742,0.871,0.8567,0.8425,0.8269,0.8262,0.8201,0.8052,0.8032,0.7999,0.8038,0.8038,0.8011,0.8011,0.8024,0.8024,0.8011,0.8031,0.8038,0.8038,0.8038,0.8038,0.8038,0.8045,0.7959,0.7972,0.7366,0.534,0.3022,0.0,0.0,0.0,0.0,0.0,0.0,0.0,0.0,0.0,0.0,0.0,0.0,0.0,0.0,0.0,0.0,0.0,0.0,0.0,0.0,0.0,0.0,0.0,0.0,0.0,0.0,0.0,0.0,0.0,0.0,0.0,0.0,0.0,0.0,0.0,0.0,2.5291,2.505,2.4823,2.469,2.4636,2.4569,2.4543,2.3529,1.9972,1.8301,1.7679,1.5741,1.3722,1.2086,1.1358,1.0052,0.7127,0.9313,0.9452,1.166,1.1633,1.1619,1.1613,1.1606,1.1538,1.1443,1.1423,1.1341,1.1158,1.1013,1.096,0.9472,0.7383,0.5295,0.4163,0.6305,0.8456,0.9679,1.0772,1.0697,1.0507,1.0156,0.9817,0.9781,0.9781,0.9707,0.9061,0.8219,0.7962,0.8064,0.8389,0.8823,0.8771,0.8642,0.8574,0.8547,0.8411,0.8213,0.8031,0.7971,0.7992,0.8045,0.8038,0.8038,0.8038,0.8038,0.8038,0.8038,0.8038,0.8038,0.8038,0.8038,0.8038,0.8045,0.7959,0.7566,0.6648,0.534,0.4236,0.0,0.0,0.0,0.0,0.0,0.0,0.0,0.0,0.0,0.0,0.0,0.0,0.0,0.0,0.0,0.0,0.0,0.0,0.0,0.0,0.0,0.0,0.0,0.0,0.0,0.0,0.0,0.0,0.0,0.0,0.0,0.0,0.0,0.0,0.0,0.0,2.5117,2.5077,2.5364,2.5052,2.4623,2.4555,2.4275,2.3404,1.9768,1.7969,1.7642,1.5274,1.3205,1.1647,1.1556,1.1279,0.891,0.509,0.5518,0.9468,1.107,1.1633,1.1619,1.1619,1.1606,1.1558,1.1572,1.1423,1.1274,1.1219,1.1118,1.0607,1.0295,0.9537,0.8344,0.8728,1.0212,1.0618,1.0738,1.0656,1.05,1.0337,1.0188,1.0032,0.991,0.9829,0.9438,0.7862,0.6068,0.5369,0.7601,0.8739,0.883,0.8906,0.8886,0.8804,0.8635,0.8404,0.811,0.8051,0.7971,0.7999,0.7959,0.8045,0.8058,0.8045,0.8038,0.8038,0.8038,0.8038,0.8038,0.8038,0.8038,0.7945,0.7959,0.5318,0.3407,0.4332,0.3428,0.0,0.0,0.0,0.0,0.0,0.0,0.0,0.0,0.0,0.0,0.0,0.0,0.0,0.0,0.0,0.0,0.0,0.0,0.0,0.0,0.0,0.0,0.0,0.0,0.0,0.0,0.0,0.0,0.0,0.0,0.0,0.0,0.0,0.0,0.0,0.0,2.493,2.5064,2.5066,2.477,2.4609,2.4647,2.405,2.2671,1.9294,1.7663,1.6959,1.4096,1.1162,0.9307,1.0384,0.8925,0.0,0.0,0.0,0.0,0.9157,1.1496,1.1626,1.1619,1.1619,1.1619,1.1613,1.1579,1.1436,1.1389,1.1321,1.1104,1.107,1.069,1.0792,1.0744,1.0738,1.0731,1.0711,1.0643,1.0514,1.0419,1.0297,1.0086,1.0012,0.9834,0.9394,0.8738,0.5445,0.416,0.6094,0.8787,0.8864,0.8883,0.8933,0.892,0.8825,0.8676,0.8547,0.8229,0.8104,0.8004,0.8066,0.8073,0.8153,0.8092,0.8085,0.8167,0.8085,0.8052,0.8045,0.8038,0.7945,0.7959,0.7478,0.4422,0.1808,0.1912,0.0,0.0,0.0,0.0,0.0,0.0,0.0,0.0,0.0,0.0,0.0,0.0,0.0,0.0,0.0,0.0,0.0,0.0,0.0,0.0,0.0,0.0,0.0,0.0,0.0,0.0,0.0,0.0,0.0,0.0,0.0,0.0,0.0,0.0,0.0,0.0,0.0,2.477,2.4943,2.4663,2.4543,2.4649,2.463,2.334,2.1126,1.8471,1.7053,1.6044,1.3092,0.9446,0.654,0.7293,0.0,0.0,0.0,0.0,0.0,0.7106,1.1063,1.1626,1.1619,1.1619,1.1619,1.1619,1.1599,1.1606,1.1572,1.1436,1.1172,1.1145,1.0989,1.0792,1.0724,1.0724,1.0724,1.0717,1.0663,1.0568,1.0514,1.0358,0.9949,0.9462,0.915,0.9581,0.7301,0.3791,0.2402,0.3685,0.6439,0.8382,0.8963,0.8876,0.885,0.8893,0.8859,0.8737,0.8515,0.8262,0.8157,0.8057,0.8119,0.8275,0.8206,0.8106,0.8241,0.818,0.8119,0.8099,0.8006,0.8026,0.7327,0.6406,0.354,0.0,0.0,0.0,0.0,0.0,0.0,0.0,0.0,0.0,0.0,0.0,0.0,0.0,0.0,0.0,0.0,0.0,0.0,0.0,0.0,0.0,0.0,0.0,0.0,0.0,0.0,0.0,0.0,0.0,0.0,0.0,0.0,0.0,0.0,0.0,0.0,0.0,0.0,0.0,2.4649,2.4649,2.4674,2.4566,2.4539,2.4593,2.1911,1.818,1.7329,1.6009,1.4491,1.2374,0.9468,0.596,0.0,0.0,0.0,0.0,0.0,0.0,0.7268,1.107,1.1633,1.1619,1.1619,1.1619,1.1619,1.1619,1.1606,1.1586,1.1416,1.1206,1.1165,1.0975,1.0806,1.0717,1.0717,1.0717,1.0717,1.0717,1.0649,1.0575,1.0446,0.9659,0.7607,0.6505,0.9069,0.4573,0.0,0.0,0.0,0.4148,0.7311,0.8622,0.8891,0.9008,0.8974,0.8947,0.8866,0.8771,0.8849,0.8703,0.8364,0.8057,0.8228,0.8213,0.8234,0.8282,0.8262,0.8248,0.8146,0.8153,0.8031,0.7032,0.0,0.0,0.0,0.0,0.0,0.0,0.0,0.0,0.0,0.0,0.0,0.0,0.0,-0.0707,-0.3534,0.0,0.0,0.0,0.0,0.0,0.0,0.0,0.0,0.0,0.0,0.0,0.0,0.0,0.0,0.0,0.0,0.0,0.0,0.0,0.0,0.0,0.0,0.0,0.0,0.0,0.0,2.5347,2.4329,2.4514,2.4371,2.4155,2.3735,2.1072,1.7188,1.4753,1.3491,1.2753,1.1811,0.9479,0.5525,0.0,0.0,0.0,0.0,0.3782,0.3626,0.711,1.0913,1.1626,1.1619,1.1619,1.1619,1.1619,1.1619,1.1613,1.1558,1.1375,1.1219,1.1172,1.0975,1.0819,1.0717,1.0717,1.0717,1.0717,1.0717,1.0711,1.069,1.0602,1.0344,0.9819,0.6353,0.4139,0.1612,0.0,0.0,0.0,0.0,0.6246,0.7956,0.9003,0.9096,0.9062,0.9022,0.8947,0.8872,0.8893,0.8855,0.8499,0.8294,0.8267,0.8357,0.8397,0.8445,0.8377,0.8336,0.83,0.8143,0.7795,0.661,0.0,0.0,0.0,0.0,0.0,0.0,0.0,0.0,0.0,0.0,0.0,0.0,0.0,-0.1313,-0.3736,-0.6073,-0.3729,-0.1107,0.0,0.0,0.0,0.0,0.0,0.0,0.0,0.0,0.0,0.0,0.0,0.0,0.0,0.0,0.0,0.0,0.0,0.0,0.0,0.0,0.0,0.0,0.0,2.6226,2.4856,2.4468,2.42,2.3705,2.3153,2.148,1.8378,1.3742,1.1619,1.1626,1.1529,0.9479,0.5525,0.0,0.0,0.0,0.657,0.6994,0.7562,0.9013,1.1345,1.1626,1.1619,1.1619,1.1619,1.1619,1.1619,1.1613,1.1511,1.1396,1.128,1.1165,1.0989,1.0785,1.0717,1.0717,1.0717,1.0717,1.0717,1.0724,1.0731,0.96,0.9639,0.9552,0.6819,0.0,0.0,0.0,0.0,0.0,0.0,0.4674,0.7369,0.902,0.9252,0.9178,0.9137,0.8994,0.8927,0.8866,0.8817,0.8735,0.8594,0.8594,0.8547,0.8625,0.8642,0.852,0.8354,0.8362,0.8322,0.6368,0.0,0.0,0.0,0.0,0.0,0.0,0.0,0.0,0.0,0.0,0.0,0.0,0.0,0.0,0.0,-0.2519,-0.4847,-0.6268,-0.3626,0.0,0.0,0.0,0.0,0.0,0.0,0.0,0.0,0.0,0.0,0.0,0.0,0.0,0.0,0.0,0.0,0.0,0.0,0.0,0.0,0.0,0.0,0.0,2.6773,2.621,2.4568,2.38,2.3701,2.3207,2.2484,2.018,1.454,1.1531,1.1619,1.1536,0.9479,0.5525,0.1748,0.0,0.0,0.7451,1.0384,1.051,1.048,1.1489,1.1626,1.1619,1.1619,1.1619,1.1613,1.1613,1.1592,1.1552,1.1463,1.1301,1.1131,1.0975,1.0738,1.0717,1.0717,1.0717,1.0717,1.0717,1.0724,1.0611,0.9203,0.7544,0.7772,0.5062,0.0,0.0,0.0,0.0,0.0,0.0,0.3979,0.7731,0.9392,0.9225,0.932,0.9232,0.8883,0.896,0.8879,0.8893,0.8831,0.8804,0.8892,0.885,0.8807,0.8757,0.8582,0.8588,0.8635,0.831,0.5665,0.0,0.0,0.0,0.0,0.0,0.0,0.0,0.0,0.0,0.0,0.0,0.0,0.0,0.0,0.0,0.0,-0.3136,-0.4976,-0.6183,-0.3537,0.0,0.0,0.0,0.0,0.0,0.0,0.0,0.0,0.0,0.0,0.0,0.0,0.0,0.0,0.0,0.0,0.0,0.0,0.0,0.0,0.0,0.0,2.8656,2.5992,2.405,2.3228,2.318,2.3014,2.0296,1.5484,1.2828,1.1592,1.1626,1.1536,0.9479,0.5528,0.0,0.0,0.0,0.4657,0.8449,1.1549,1.1653,1.1633,1.1619,1.1619,1.1619,1.1619,1.1613,1.1558,1.1463,1.1484,1.1314,1.1124,1.1002,1.0826,1.0744,1.0717,1.0717,1.0717,1.0717,1.0717,1.0724,1.0485,0.9128,0.5719,0.503,0.0,0.0,0.0,0.0,0.0,0.0,0.0,0.3049,0.6472,0.942,0.9429,0.9449,0.9319,0.9017,0.8924,0.8903,0.892,0.8955,0.8934,0.89,0.89,0.8832,0.8832,0.8689,0.8716,0.8789,0.8272,0.0,0.0,0.0,0.0,0.0,0.0,0.0,0.0,0.0,0.0,0.0,0.0,0.0,0.0,0.0,0.0,0.0,0.0,-0.2664,-0.6235,-0.6022,-0.3383,0.0,0.0,0.0,0.0,0.0,0.0,0.0,0.0,0.0,0.0,0.0,0.0,0.0,0.0,0.0,0.0,0.0,0.0,0.0,0.0,0.0,2.9379,2.6614,2.3961,2.2942,2.2823,2.2902,1.8584,1.2477,1.1572,1.1619,1.1626,1.1523,0.9468,0.5522,0.0,0.0,0.0,0.4071,0.8005,1.1253,1.1647,1.1626,1.1619,1.1619,1.1619,1.1619,1.1613,1.1565,1.1497,1.1423,1.124,1.1016,1.0987,1.0939,1.0751,1.0717,1.0717,1.0717,1.0717,1.0724,1.0744,1.0365,0.971,0.6694,0.0,0.0,0.0,0.0,0.0,0.0,0.0,0.0,0.271,0.5154,0.8648,0.9123,0.9483,0.9386,0.9305,0.9245,0.9257,0.8897,0.8903,0.8974,0.8981,0.8954,0.8981,0.8863,0.8783,0.8582,0.8399,0.0,0.0,0.0,0.0,0.0,0.0,0.0,0.0,0.0,0.0,0.0,0.0,0.0,0.0,0.0,0.0,0.0,0.0,0.0,0.0,-0.373,-0.6958,-0.5331,-0.3035,0.0,0.0,0.0,0.0,0.0,0.0,0.0,0.0,0.0,0.0,0.0,0.0,0.0,0.0,0.0,0.0,0.0,0.0,0.0,0.0,2.8627,2.7668,2.4467,2.2953,2.2862,2.2128,1.7876,1.1756,1.1619,1.1619,1.1619,1.1647,0.9891,0.5953,0.1888,0.0,0.0,0.0,0.786,1.0649,1.1496,1.1626,1.1619,1.1619,1.1619,1.1619,1.1606,1.1592,1.1579,1.1369,1.1151,1.1016,1.1184,1.098,1.0778,1.0738,1.0731,1.0717,1.0717,1.0731,1.0751,0.9965,0.985,0.7522,0.0,0.0,0.0,0.0,0.0,0.0,0.0,0.0,0.3697,0.48,0.6948,0.8683,0.9503,0.9523,0.9683,0.962,0.9334,0.898,0.8917,0.9103,0.9195,0.9062,0.9181,0.9069,0.8897,0.8326,0.0,0.0,0.0,0.0,0.0,0.0,0.0,0.0,0.0,0.0,0.0,0.0,0.0,0.0,0.0,0.0,0.0,0.0,0.0,0.0,0.0,-0.0951,-0.3918,-0.6621,0.0,0.0,-0.2025,-0.5018,-0.6095,0.0,0.0,0.0,0.0,0.0,0.0,0.0,0.0,0.0,0.0,0.0,0.0,0.0,0.0,0.0,0.0,2.9688,2.8048,2.5651,2.4092,2.2116,1.7146,1.3499,1.1763,1.1619,1.1619,1.1626,1.164,1.0768,0.9452,0.3048,0.247,0.3633,0.5667,0.829,1.0185,1.164,1.1626,1.1613,1.1606,1.1613,1.1606,1.1592,1.1538,1.1416,1.1233,1.1158,1.109,1.1035,1.0974,1.0819,1.0772,1.0744,1.0724,1.0724,1.0738,0.994,0.8879,0.9035,0.7397,0.3475,0.0,0.0,0.0,0.0,0.0,0.0,0.0,0.4573,0.5049,0.6363,0.9277,0.9659,0.9486,0.972,0.9737,0.917,0.8455,0.8678,0.8915,0.9104,0.8704,0.8671,0.8904,0.7815,0.6639,0.0,0.0,0.0,0.0,0.0,0.0,0.0,0.0,0.0,0.0,0.0,0.0,0.0,0.0,0.0,0.0,0.0,0.0,0.0,0.0,0.0,0.0,0.0,0.0,0.0,0.0,0.0,-0.1951,0.0,0.0,0.0,0.0,0.0,0.0,0.0,0.0,0.0,0.0,0.0,0.0,0.0,0.0,0.0,0.0,0.0,2.8891,2.6988,2.5248,2.3077,1.9853,1.4214,1.1619,1.1619,1.1619,1.1619,1.1619,1.1633,1.1647,1.0919,0.697,0.537,0.5518,0.7702,0.9746,1.0768,1.1613,1.1565,1.1552,1.1518,1.147,1.147,1.145,1.1402,1.1307,1.1185,1.109,1.0955,1.0799,1.0699,1.0699,1.0799,1.0765,1.0751,1.0751,1.0758,0.9685,0.8344,0.8092,0.0,0.0,0.0,0.0,0.0,0.0,0.0,0.0,0.0,0.3707,0.5053,0.7138,0.97,0.9647,0.9627,0.9431,0.6654,0.6043,0.6155,0.7412,0.7179,0.5805,0.4721,0.6799,0.8184,0.6129,0.0,0.0,0.0,0.0,0.0,0.0,0.0,0.0,0.0,0.0,0.0,0.0,0.0,0.0,0.0,0.0,0.0,0.0,0.0,0.0,0.0,0.0,0.0,0.0,0.0,0.0,0.0,0.0,0.0,0.0,0.0,0.0,0.0,0.0,0.0,0.0,0.0,0.0,0.0,0.0,0.0,0.0,0.0,0.0,0.0,0.0,2.7142,2.5293,2.3652,2.0882,1.6947,1.3302,1.1619,1.1619,1.1619,1.1619,1.1619,1.1619,1.1633,1.1352,1.0035,0.8574,0.8559,0.9568,1.0568,1.1619,1.1531,1.1463,1.1396,1.1369,1.1328,1.1219,1.1192,1.126,1.1287,1.1172,1.0975,1.0638,0.9958,0.9576,0.9442,1.0404,1.0658,1.0658,1.0652,1.0652,1.0685,0.9606,0.0,0.0,0.0,0.0,0.0,0.0,0.0,0.0,0.0,0.0,0.0,0.4438,0.7266,0.9625,0.9714,0.9727,0.8227,0.4865,0.0,0.0,0.4814,0.4282,0.2941,0.0,0.0,0.0,0.3532,0.0,0.0,0.0,0.0,0.0,0.0,0.0,0.0,0.0,0.0,0.0,0.0,0.0,0.0,0.0,0.0,0.0,0.0,0.0,0.0,0.0,0.0,0.0,0.0,0.0,0.0,0.0,0.0,0.0,0.0,0.0,0.0,-0.5186,0.0,0.0,0.0,0.0,0.0,0.0,0.0,0.0,0.0,0.0,0.0,0.0,0.0,2.6311,2.4699,2.3392,2.0683,1.6897,1.312,1.1613,1.1619,1.1619,1.1606,1.1613,1.1613,1.1613,1.1613,1.1606,1.0581,1.0712,1.0488,1.1328,1.1423,1.1502,1.1307,1.1226,1.1074,1.1179,1.1179,1.1158,1.1118,1.1077,1.1016,1.0806,1.0365,0.859,0.6702,0.6853,0.8349,0.9722,1.0558,1.0692,1.0136,0.96,0.9332,0.0,0.0,0.0,0.0,0.0,0.0,0.0,0.0,0.0,0.0,0.0,0.0,0.4926,0.8523,0.9394,0.9774,0.8022,0.0,0.0,0.0,0.0,0.0,0.0,0.0,0.0,0.0,0.0,0.0,0.0,0.0,0.0,0.0,0.0,0.0,0.0,0.0,0.0,0.0,0.0,0.0,0.0,0.0,0.0,0.0,0.0,0.0,0.0,0.0,0.0,0.0,0.0,0.0,0.0,0.0,0.0,0.0,0.0,0.0,0.0,0.0,0.0,0.0,0.0,0.0,0.0,0.0,0.0,0.0,0.0,0.0,0.0,0.0,0.0,2.5689,2.3463,2.2781,2.0476,1.6843,1.3192,1.1564,1.1416,1.1416,1.1416,1.143,1.1477,1.1518,1.1491,1.147,1.145,1.1416,1.1341,1.1307,1.1399,1.1337,1.1138,1.1097,1.092,1.0995,1.0995,1.1043,1.1002,1.0887,1.0934,1.0772,0.9837,0.6431,0.3479,0.0,0.0,0.7957,1.0443,1.0303,0.8929,0.0,0.0,0.0,0.0,0.0,0.0,0.0,0.0,0.0,0.0,0.0,0.0,0.0,0.0,0.0,0.5049,0.7531,0.9801,0.7798,0.0,0.0,0.0,0.0,0.0,0.0,0.0,0.0,0.0,0.0,0.0,0.0,0.0,0.0,0.0,0.0,0.0,0.0,0.0,0.0,0.0,0.0,0.0,0.0,0.0,0.0,0.0,0.0,0.0,0.0,0.0,0.0,0.0,0.0,0.0,0.0,0.0,0.0,0.0,0.0,0.0,0.0,0.0,0.0,0.0,0.0,0.0,0.0,0.0,0.0,0.0,0.0,0.0,0.0,0.0,0.0,2.4781,2.2055,2.1857,2.0062,1.6736,1.3086,1.1317,1.1172,1.1165,1.1172,1.1192,1.1294,1.1335,1.1307,1.124,1.1192,1.1165,1.1165,1.1145,1.1131,1.109,1.0995,1.0941,1.0772,1.0853,1.0839,1.0873,1.0833,1.0758,1.0839,1.0463,0.9308,0.5644,0.0,0.0,0.0,0.3098,0.6619,0.7027,0.5262,0.0,0.0,0.0,0.0,0.0,0.0,0.0,0.0,0.0,0.0,0.0,0.0,0.0,0.0,0.0,0.0,0.4937,0.6803,0.6434,0.0,0.0,0.0,0.0,0.0,0.0,0.0,0.0,0.0,0.0,0.0,0.0,0.0,0.0,0.0,0.0,0.0,0.0,0.0,0.0,0.0,0.0,0.0,0.0,0.0,0.0,0.0,0.0,0.0,0.0,0.0,0.0,0.0,0.0,0.0,0.0,0.0,0.0,0.0,0.0,0.0,0.0,0.0,0.0,0.0,0.0,0.0,0.0,0.0,0.0,0.0,0.0,0.0,0.0,0.0,0.0,2.3141,2.1323,2.1319,1.935,1.5958,1.2308,1.0875,1.0875,1.0862,1.0875,1.1118,1.1056,1.1084,1.1206,1.1185,1.1138,1.1077,1.1036,1.1138,1.1125,1.0907,1.0826,1.0792,1.0806,1.0758,1.0751,1.0765,1.0738,1.0724,1.0778,1.0538,0.9844,1.0143,0.0,0.0,0.0,0.0,0.0,0.0,0.0,0.0,0.0,0.0,0.0,0.0,0.0,0.0,0.0,0.0,0.0,0.0,0.0,0.0,0.0,0.0,0.0,0.0,0.0,0.0,0.0,0.0,0.0,0.0,0.0,0.0,0.0,0.0,0.0,0.0,0.0,0.0,0.0,0.0,0.0,0.0,0.0,0.0,0.0,0.0,0.0,0.0,0.0,0.0,0.0,0.0,0.0,0.0,0.0,0.0,0.0,0.0,0.0,0.0,0.0,0.0,0.0,0.0,0.0,0.0,0.0,0.0,0.0,0.0,0.0,0.0,0.0,0.0,0.0,0.0,0.0,0.0,0.0,0.0,0.0,0.0]}]]